<?xml version="1.0" encoding="UTF-8" standalone="no" ?>
<gpx xmlns="http://www.topografix.com/GPX/1/1" xmlns:xsi="http://www.w3.org/2001/XMLSchema-instance" xsi:schemaLocation="http://www.topografix.com/GPX/1/1 http://www.topografix.com/GPX/1/1/gpx.xsd" version="1.1" creator="VisuGPX - https://www.visugpx.com">
  <metadata>
    <name>Môle - tour et sommet</name>
    <desc><![CDATA[Môle - tour et sommet depuis hauteurs Marignier]]></desc>
  </metadata>
  <trk>
    <name><![CDATA[2017-05-09 18:48:42-Course TT]]></name>
    <trkseg>
      <trkpt lat="46.10275" lon="6.47124">
        <ele>1328.68</ele>
        <time>2017-05-09T14:57:45Z</time>
      </trkpt>
      <trkpt lat="46.10275" lon="6.47124">
        <ele>1262.35</ele>
        <time>2017-05-09T14:57:46Z</time>
      </trkpt>
      <trkpt lat="46.10277" lon="6.47122">
        <ele>1262.35</ele>
        <time>2017-05-09T14:57:47Z</time>
      </trkpt>
      <trkpt lat="46.10278" lon="6.47121">
        <ele>1262.35</ele>
        <time>2017-05-09T14:57:48Z</time>
      </trkpt>
      <trkpt lat="46.10279" lon="6.47119">
        <ele>1262.35</ele>
        <time>2017-05-09T14:57:49Z</time>
      </trkpt>
      <trkpt lat="46.1028" lon="6.47117">
        <ele>1328.68</ele>
        <time>2017-05-09T14:57:50Z</time>
      </trkpt>
      <trkpt lat="46.10282" lon="6.47114">
        <ele>1328.68</ele>
        <time>2017-05-09T14:57:51Z</time>
      </trkpt>
      <trkpt lat="46.10287" lon="6.47109">
        <ele>1328.2</ele>
        <time>2017-05-09T14:57:53Z</time>
      </trkpt>
      <trkpt lat="46.10291" lon="6.47104">
        <ele>1327.72</ele>
        <time>2017-05-09T14:57:55Z</time>
      </trkpt>
      <trkpt lat="46.10296" lon="6.47101">
        <ele>1328.2</ele>
        <time>2017-05-09T14:57:57Z</time>
      </trkpt>
      <trkpt lat="46.103" lon="6.47098">
        <ele>1328.2</ele>
        <time>2017-05-09T14:57:59Z</time>
      </trkpt>
      <trkpt lat="46.10306" lon="6.47095">
        <ele>1328.68</ele>
        <time>2017-05-09T14:58:01Z</time>
      </trkpt>
      <trkpt lat="46.10315" lon="6.47091">
        <ele>1329.16</ele>
        <time>2017-05-09T14:58:04Z</time>
      </trkpt>
      <trkpt lat="46.10319" lon="6.47087">
        <ele>1328.68</ele>
        <time>2017-05-09T14:58:06Z</time>
      </trkpt>
      <trkpt lat="46.10323" lon="6.47082">
        <ele>1328.68</ele>
        <time>2017-05-09T14:58:08Z</time>
      </trkpt>
      <trkpt lat="46.10326" lon="6.47076">
        <ele>1329.64</ele>
        <time>2017-05-09T14:58:11Z</time>
      </trkpt>
      <trkpt lat="46.10327" lon="6.47069">
        <ele>1329.64</ele>
        <time>2017-05-09T14:58:13Z</time>
      </trkpt>
      <trkpt lat="46.10328" lon="6.47064">
        <ele>1329.64</ele>
        <time>2017-05-09T14:58:14Z</time>
      </trkpt>
      <trkpt lat="46.10339" lon="6.47044">
        <ele>1330.6</ele>
        <time>2017-05-09T14:58:20Z</time>
      </trkpt>
      <trkpt lat="46.10342" lon="6.47036">
        <ele>1331.56</ele>
        <time>2017-05-09T14:58:24Z</time>
      </trkpt>
      <trkpt lat="46.10347" lon="6.47029">
        <ele>1331.56</ele>
        <time>2017-05-09T14:58:27Z</time>
      </trkpt>
      <trkpt lat="46.10352" lon="6.4702">
        <ele>1332.04</ele>
        <time>2017-05-09T14:58:30Z</time>
      </trkpt>
      <trkpt lat="46.10358" lon="6.47007">
        <ele>1332.04</ele>
        <time>2017-05-09T14:58:33Z</time>
      </trkpt>
      <trkpt lat="46.10361" lon="6.47001">
        <ele>1332.04</ele>
        <time>2017-05-09T14:58:35Z</time>
      </trkpt>
      <trkpt lat="46.10364" lon="6.4699">
        <ele>1333.01</ele>
        <time>2017-05-09T14:58:38Z</time>
      </trkpt>
      <trkpt lat="46.10372" lon="6.46973">
        <ele>1333.01</ele>
        <time>2017-05-09T14:58:43Z</time>
      </trkpt>
      <trkpt lat="46.10383" lon="6.4696">
        <ele>1334.45</ele>
        <time>2017-05-09T14:58:49Z</time>
      </trkpt>
      <trkpt lat="46.10404" lon="6.46947">
        <ele>1335.41</ele>
        <time>2017-05-09T14:58:58Z</time>
      </trkpt>
      <trkpt lat="46.10428" lon="6.4693">
        <ele>1337.33</ele>
        <time>2017-05-09T14:59:08Z</time>
      </trkpt>
      <trkpt lat="46.10448" lon="6.46909">
        <ele>1338.77</ele>
        <time>2017-05-09T14:59:18Z</time>
      </trkpt>
      <trkpt lat="46.10469" lon="6.46898">
        <ele>1338.77</ele>
        <time>2017-05-09T14:59:27Z</time>
      </trkpt>
      <trkpt lat="46.1049" lon="6.46897">
        <ele>1340.7</ele>
        <time>2017-05-09T14:59:36Z</time>
      </trkpt>
      <trkpt lat="46.1051" lon="6.46894">
        <ele>1341.18</ele>
        <time>2017-05-09T14:59:44Z</time>
      </trkpt>
      <trkpt lat="46.10531" lon="6.46886">
        <ele>1342.62</ele>
        <time>2017-05-09T14:59:55Z</time>
      </trkpt>
      <trkpt lat="46.10553" lon="6.46881">
        <ele>1343.1</ele>
        <time>2017-05-09T15:00:04Z</time>
      </trkpt>
      <trkpt lat="46.10577" lon="6.46876">
        <ele>1343.1</ele>
        <time>2017-05-09T15:00:12Z</time>
      </trkpt>
      <trkpt lat="46.10599" lon="6.46865">
        <ele>1345.02</ele>
        <time>2017-05-09T15:00:21Z</time>
      </trkpt>
      <trkpt lat="46.10619" lon="6.46848">
        <ele>1345.5</ele>
        <time>2017-05-09T15:00:31Z</time>
      </trkpt>
      <trkpt lat="46.10642" lon="6.4685">
        <ele>1344.54</ele>
        <time>2017-05-09T15:00:39Z</time>
      </trkpt>
      <trkpt lat="46.10663" lon="6.46855">
        <ele>1345.02</ele>
        <time>2017-05-09T15:00:47Z</time>
      </trkpt>
      <trkpt lat="46.10681" lon="6.46858">
        <ele>1345.02</ele>
        <time>2017-05-09T15:00:56Z</time>
      </trkpt>
      <trkpt lat="46.10683" lon="6.46858">
        <ele>1345.02</ele>
        <time>2017-05-09T15:00:57Z</time>
      </trkpt>
      <trkpt lat="46.10686" lon="6.46858">
        <ele>1345.02</ele>
        <time>2017-05-09T15:00:58Z</time>
      </trkpt>
      <trkpt lat="46.10712" lon="6.46861">
        <ele>1345.5</ele>
        <time>2017-05-09T15:01:07Z</time>
      </trkpt>
      <trkpt lat="46.10736" lon="6.46867">
        <ele>1345.98</ele>
        <time>2017-05-09T15:01:16Z</time>
      </trkpt>
      <trkpt lat="46.10756" lon="6.46884">
        <ele>1345.02</ele>
        <time>2017-05-09T15:01:23Z</time>
      </trkpt>
      <trkpt lat="46.10773" lon="6.46905">
        <ele>1343.58</ele>
        <time>2017-05-09T15:01:30Z</time>
      </trkpt>
      <trkpt lat="46.10781" lon="6.46912">
        <ele>1343.58</ele>
        <time>2017-05-09T15:01:33Z</time>
      </trkpt>
      <trkpt lat="46.10783" lon="6.46915">
        <ele>1343.58</ele>
        <time>2017-05-09T15:01:34Z</time>
      </trkpt>
      <trkpt lat="46.10785" lon="6.46917">
        <ele>1343.58</ele>
        <time>2017-05-09T15:01:35Z</time>
      </trkpt>
      <trkpt lat="46.10788" lon="6.46919">
        <ele>1343.1</ele>
        <time>2017-05-09T15:01:36Z</time>
      </trkpt>
      <trkpt lat="46.1079" lon="6.46921">
        <ele>1343.1</ele>
        <time>2017-05-09T15:01:37Z</time>
      </trkpt>
      <trkpt lat="46.10792" lon="6.46923">
        <ele>1343.1</ele>
        <time>2017-05-09T15:01:38Z</time>
      </trkpt>
      <trkpt lat="46.10813" lon="6.4693">
        <ele>1340.7</ele>
        <time>2017-05-09T15:01:48Z</time>
      </trkpt>
      <trkpt lat="46.10822" lon="6.46928">
        <ele>1337.33</ele>
        <time>2017-05-09T15:01:55Z</time>
      </trkpt>
      <trkpt lat="46.10824" lon="6.46928">
        <ele>1337.33</ele>
        <time>2017-05-09T15:02:00Z</time>
      </trkpt>
      <trkpt lat="46.10822" lon="6.46929">
        <ele>1337.33</ele>
        <time>2017-05-09T15:02:04Z</time>
      </trkpt>
      <trkpt lat="46.10822" lon="6.46937">
        <ele>1337.33</ele>
        <time>2017-05-09T15:02:07Z</time>
      </trkpt>
      <trkpt lat="46.10822" lon="6.46939">
        <ele>1337.33</ele>
        <time>2017-05-09T15:02:08Z</time>
      </trkpt>
      <trkpt lat="46.10821" lon="6.4694">
        <ele>1337.33</ele>
        <time>2017-05-09T15:02:09Z</time>
      </trkpt>
      <trkpt lat="46.10821" lon="6.46942">
        <ele>1336.85</ele>
        <time>2017-05-09T15:02:12Z</time>
      </trkpt>
      <trkpt lat="46.10821" lon="6.46942">
        <ele>1336.85</ele>
        <time>2017-05-09T15:02:13Z</time>
      </trkpt>
      <trkpt lat="46.10822" lon="6.46942">
        <ele>1336.85</ele>
        <time>2017-05-09T15:02:16Z</time>
      </trkpt>
      <trkpt lat="46.10825" lon="6.46943">
        <ele>1337.33</ele>
        <time>2017-05-09T15:02:18Z</time>
      </trkpt>
      <trkpt lat="46.10825" lon="6.46944">
        <ele>1337.33</ele>
        <time>2017-05-09T15:02:21Z</time>
      </trkpt>
      <trkpt lat="46.10825" lon="6.4694">
        <ele>1336.85</ele>
        <time>2017-05-09T15:02:37Z</time>
      </trkpt>
      <trkpt lat="46.10824" lon="6.46939">
        <ele>1336.85</ele>
        <time>2017-05-09T15:02:38Z</time>
      </trkpt>
      <trkpt lat="46.10823" lon="6.46939">
        <ele>1336.85</ele>
        <time>2017-05-09T15:02:40Z</time>
      </trkpt>
      <trkpt lat="46.10822" lon="6.46938">
        <ele>1336.85</ele>
        <time>2017-05-09T15:02:43Z</time>
      </trkpt>
      <trkpt lat="46.10822" lon="6.46938">
        <ele>1336.85</ele>
        <time>2017-05-09T15:02:45Z</time>
      </trkpt>
      <trkpt lat="46.10824" lon="6.46939">
        <ele>1336.85</ele>
        <time>2017-05-09T15:02:48Z</time>
      </trkpt>
      <trkpt lat="46.10827" lon="6.46938">
        <ele>1336.85</ele>
        <time>2017-05-09T15:02:52Z</time>
      </trkpt>
      <trkpt lat="46.10825" lon="6.46939">
        <ele>1336.85</ele>
        <time>2017-05-09T15:02:56Z</time>
      </trkpt>
      <trkpt lat="46.10829" lon="6.46938">
        <ele>1336.85</ele>
        <time>2017-05-09T15:02:58Z</time>
      </trkpt>
      <trkpt lat="46.10832" lon="6.46937">
        <ele>1336.37</ele>
        <time>2017-05-09T15:02:59Z</time>
      </trkpt>
      <trkpt lat="46.10835" lon="6.46936">
        <ele>1336.37</ele>
        <time>2017-05-09T15:03:00Z</time>
      </trkpt>
      <trkpt lat="46.1084" lon="6.46934">
        <ele>1336.37</ele>
        <time>2017-05-09T15:03:01Z</time>
      </trkpt>
      <trkpt lat="46.10845" lon="6.46932">
        <ele>1336.37</ele>
        <time>2017-05-09T15:03:02Z</time>
      </trkpt>
      <trkpt lat="46.10849" lon="6.46931">
        <ele>1336.37</ele>
        <time>2017-05-09T15:03:03Z</time>
      </trkpt>
      <trkpt lat="46.10852" lon="6.46929">
        <ele>1335.89</ele>
        <time>2017-05-09T15:03:04Z</time>
      </trkpt>
      <trkpt lat="46.10855" lon="6.4693">
        <ele>1335.89</ele>
        <time>2017-05-09T15:03:05Z</time>
      </trkpt>
      <trkpt lat="46.10856" lon="6.4693">
        <ele>1335.89</ele>
        <time>2017-05-09T15:03:06Z</time>
      </trkpt>
      <trkpt lat="46.10858" lon="6.4693">
        <ele>1335.89</ele>
        <time>2017-05-09T15:03:07Z</time>
      </trkpt>
      <trkpt lat="46.1086" lon="6.46929">
        <ele>1335.41</ele>
        <time>2017-05-09T15:03:08Z</time>
      </trkpt>
      <trkpt lat="46.10863" lon="6.46929">
        <ele>1335.41</ele>
        <time>2017-05-09T15:03:09Z</time>
      </trkpt>
      <trkpt lat="46.10865" lon="6.46929">
        <ele>1335.41</ele>
        <time>2017-05-09T15:03:10Z</time>
      </trkpt>
      <trkpt lat="46.10867" lon="6.46928">
        <ele>1335.41</ele>
        <time>2017-05-09T15:03:11Z</time>
      </trkpt>
      <trkpt lat="46.10872" lon="6.46927">
        <ele>1335.41</ele>
        <time>2017-05-09T15:03:14Z</time>
      </trkpt>
      <trkpt lat="46.10876" lon="6.46922">
        <ele>1335.89</ele>
        <time>2017-05-09T15:03:17Z</time>
      </trkpt>
      <trkpt lat="46.10882" lon="6.46917">
        <ele>1336.37</ele>
        <time>2017-05-09T15:03:20Z</time>
      </trkpt>
      <trkpt lat="46.1089" lon="6.46911">
        <ele>1337.81</ele>
        <time>2017-05-09T15:03:24Z</time>
      </trkpt>
      <trkpt lat="46.10898" lon="6.46906">
        <ele>1338.77</ele>
        <time>2017-05-09T15:03:28Z</time>
      </trkpt>
      <trkpt lat="46.10903" lon="6.46902">
        <ele>1339.73</ele>
        <time>2017-05-09T15:03:31Z</time>
      </trkpt>
      <trkpt lat="46.10906" lon="6.46898">
        <ele>1340.7</ele>
        <time>2017-05-09T15:03:34Z</time>
      </trkpt>
      <trkpt lat="46.1091" lon="6.46893">
        <ele>1342.14</ele>
        <time>2017-05-09T15:03:37Z</time>
      </trkpt>
      <trkpt lat="46.10916" lon="6.4689">
        <ele>1343.58</ele>
        <time>2017-05-09T15:03:41Z</time>
      </trkpt>
      <trkpt lat="46.10921" lon="6.46888">
        <ele>1344.06</ele>
        <time>2017-05-09T15:03:43Z</time>
      </trkpt>
      <trkpt lat="46.10924" lon="6.46887">
        <ele>1344.54</ele>
        <time>2017-05-09T15:03:44Z</time>
      </trkpt>
      <trkpt lat="46.10927" lon="6.46884">
        <ele>1344.54</ele>
        <time>2017-05-09T15:03:45Z</time>
      </trkpt>
      <trkpt lat="46.10931" lon="6.46883">
        <ele>1345.02</ele>
        <time>2017-05-09T15:03:46Z</time>
      </trkpt>
      <trkpt lat="46.10934" lon="6.46881">
        <ele>1345.02</ele>
        <time>2017-05-09T15:03:47Z</time>
      </trkpt>
      <trkpt lat="46.10937" lon="6.46881">
        <ele>1345.02</ele>
        <time>2017-05-09T15:03:48Z</time>
      </trkpt>
      <trkpt lat="46.10942" lon="6.4688">
        <ele>1345.5</ele>
        <time>2017-05-09T15:03:49Z</time>
      </trkpt>
      <trkpt lat="46.10944" lon="6.46878">
        <ele>1345.98</ele>
        <time>2017-05-09T15:03:50Z</time>
      </trkpt>
      <trkpt lat="46.10945" lon="6.46877">
        <ele>1345.98</ele>
        <time>2017-05-09T15:03:51Z</time>
      </trkpt>
      <trkpt lat="46.10956" lon="6.46872">
        <ele>1348.39</ele>
        <time>2017-05-09T15:03:58Z</time>
      </trkpt>
      <trkpt lat="46.10968" lon="6.46862">
        <ele>1351.75</ele>
        <time>2017-05-09T15:04:07Z</time>
      </trkpt>
      <trkpt lat="46.10978" lon="6.46855">
        <ele>1354.63</ele>
        <time>2017-05-09T15:04:14Z</time>
      </trkpt>
      <trkpt lat="46.10979" lon="6.46854">
        <ele>1355.12</ele>
        <time>2017-05-09T15:04:15Z</time>
      </trkpt>
      <trkpt lat="46.10982" lon="6.46853">
        <ele>1355.6</ele>
        <time>2017-05-09T15:04:16Z</time>
      </trkpt>
      <trkpt lat="46.10995" lon="6.46847">
        <ele>1358</ele>
        <time>2017-05-09T15:04:24Z</time>
      </trkpt>
      <trkpt lat="46.10998" lon="6.46845">
        <ele>1358.48</ele>
        <time>2017-05-09T15:04:25Z</time>
      </trkpt>
      <trkpt lat="46.11" lon="6.46844">
        <ele>1358.48</ele>
        <time>2017-05-09T15:04:26Z</time>
      </trkpt>
      <trkpt lat="46.1102" lon="6.46841">
        <ele>1361.84</ele>
        <time>2017-05-09T15:04:38Z</time>
      </trkpt>
      <trkpt lat="46.11022" lon="6.4684">
        <ele>1361.84</ele>
        <time>2017-05-09T15:04:39Z</time>
      </trkpt>
      <trkpt lat="46.11023" lon="6.4684">
        <ele>1361.84</ele>
        <time>2017-05-09T15:04:40Z</time>
      </trkpt>
      <trkpt lat="46.11025" lon="6.46839">
        <ele>1361.84</ele>
        <time>2017-05-09T15:04:41Z</time>
      </trkpt>
      <trkpt lat="46.11026" lon="6.46838">
        <ele>1361.84</ele>
        <time>2017-05-09T15:04:42Z</time>
      </trkpt>
      <trkpt lat="46.11028" lon="6.46837">
        <ele>1361.84</ele>
        <time>2017-05-09T15:04:43Z</time>
      </trkpt>
      <trkpt lat="46.1103" lon="6.46836">
        <ele>1362.33</ele>
        <time>2017-05-09T15:04:44Z</time>
      </trkpt>
      <trkpt lat="46.11048" lon="6.46831">
        <ele>1364.73</ele>
        <time>2017-05-09T15:04:55Z</time>
      </trkpt>
      <trkpt lat="46.1105" lon="6.4683">
        <ele>1364.73</ele>
        <time>2017-05-09T15:04:56Z</time>
      </trkpt>
      <trkpt lat="46.11059" lon="6.46826">
        <ele>1366.65</ele>
        <time>2017-05-09T15:05:02Z</time>
      </trkpt>
      <trkpt lat="46.11061" lon="6.46825">
        <ele>1366.65</ele>
        <time>2017-05-09T15:05:03Z</time>
      </trkpt>
      <trkpt lat="46.11062" lon="6.46825">
        <ele>1367.13</ele>
        <time>2017-05-09T15:05:04Z</time>
      </trkpt>
      <trkpt lat="46.11063" lon="6.46825">
        <ele>1367.61</ele>
        <time>2017-05-09T15:05:05Z</time>
      </trkpt>
      <trkpt lat="46.11064" lon="6.46823">
        <ele>1367.61</ele>
        <time>2017-05-09T15:05:07Z</time>
      </trkpt>
      <trkpt lat="46.11066" lon="6.46822">
        <ele>1368.09</ele>
        <time>2017-05-09T15:05:08Z</time>
      </trkpt>
      <trkpt lat="46.11067" lon="6.46821">
        <ele>1368.57</ele>
        <time>2017-05-09T15:05:09Z</time>
      </trkpt>
      <trkpt lat="46.11068" lon="6.4682">
        <ele>1368.57</ele>
        <time>2017-05-09T15:05:10Z</time>
      </trkpt>
      <trkpt lat="46.11069" lon="6.4682">
        <ele>1368.57</ele>
        <time>2017-05-09T15:05:11Z</time>
      </trkpt>
      <trkpt lat="46.11071" lon="6.46819">
        <ele>1369.05</ele>
        <time>2017-05-09T15:05:12Z</time>
      </trkpt>
      <trkpt lat="46.11072" lon="6.46818">
        <ele>1369.54</ele>
        <time>2017-05-09T15:05:13Z</time>
      </trkpt>
      <trkpt lat="46.11074" lon="6.46818">
        <ele>1370.02</ele>
        <time>2017-05-09T15:05:14Z</time>
      </trkpt>
      <trkpt lat="46.11076" lon="6.46816">
        <ele>1370.5</ele>
        <time>2017-05-09T15:05:15Z</time>
      </trkpt>
      <trkpt lat="46.11089" lon="6.46811">
        <ele>1373.38</ele>
        <time>2017-05-09T15:05:24Z</time>
      </trkpt>
      <trkpt lat="46.11104" lon="6.46805">
        <ele>1376.26</ele>
        <time>2017-05-09T15:05:36Z</time>
      </trkpt>
      <trkpt lat="46.11107" lon="6.46803">
        <ele>1377.23</ele>
        <time>2017-05-09T15:05:39Z</time>
      </trkpt>
      <trkpt lat="46.11109" lon="6.46803">
        <ele>1377.23</ele>
        <time>2017-05-09T15:05:40Z</time>
      </trkpt>
      <trkpt lat="46.11117" lon="6.46799">
        <ele>1378.67</ele>
        <time>2017-05-09T15:05:46Z</time>
      </trkpt>
      <trkpt lat="46.11119" lon="6.46798">
        <ele>1379.15</ele>
        <time>2017-05-09T15:05:47Z</time>
      </trkpt>
      <trkpt lat="46.11122" lon="6.46796">
        <ele>1379.15</ele>
        <time>2017-05-09T15:05:48Z</time>
      </trkpt>
      <trkpt lat="46.11125" lon="6.46794">
        <ele>1379.63</ele>
        <time>2017-05-09T15:05:49Z</time>
      </trkpt>
      <trkpt lat="46.11126" lon="6.46793">
        <ele>1379.63</ele>
        <time>2017-05-09T15:05:50Z</time>
      </trkpt>
      <trkpt lat="46.11128" lon="6.46792">
        <ele>1380.11</ele>
        <time>2017-05-09T15:05:51Z</time>
      </trkpt>
      <trkpt lat="46.11129" lon="6.46792">
        <ele>1380.11</ele>
        <time>2017-05-09T15:05:52Z</time>
      </trkpt>
      <trkpt lat="46.11132" lon="6.4679">
        <ele>1381.07</ele>
        <time>2017-05-09T15:05:55Z</time>
      </trkpt>
      <trkpt lat="46.11133" lon="6.46788">
        <ele>1381.07</ele>
        <time>2017-05-09T15:05:56Z</time>
      </trkpt>
      <trkpt lat="46.11135" lon="6.46788">
        <ele>1381.55</ele>
        <time>2017-05-09T15:05:57Z</time>
      </trkpt>
      <trkpt lat="46.11136" lon="6.46787">
        <ele>1381.55</ele>
        <time>2017-05-09T15:05:58Z</time>
      </trkpt>
      <trkpt lat="46.11141" lon="6.46785">
        <ele>1382.51</ele>
        <time>2017-05-09T15:06:02Z</time>
      </trkpt>
      <trkpt lat="46.11143" lon="6.46784">
        <ele>1382.99</ele>
        <time>2017-05-09T15:06:03Z</time>
      </trkpt>
      <trkpt lat="46.11145" lon="6.46782">
        <ele>1382.99</ele>
        <time>2017-05-09T15:06:04Z</time>
      </trkpt>
      <trkpt lat="46.11159" lon="6.46771">
        <ele>1385.88</ele>
        <time>2017-05-09T15:06:16Z</time>
      </trkpt>
      <trkpt lat="46.11162" lon="6.46768">
        <ele>1386.36</ele>
        <time>2017-05-09T15:06:18Z</time>
      </trkpt>
      <trkpt lat="46.11163" lon="6.46767">
        <ele>1386.84</ele>
        <time>2017-05-09T15:06:19Z</time>
      </trkpt>
      <trkpt lat="46.11165" lon="6.46766">
        <ele>1386.84</ele>
        <time>2017-05-09T15:06:20Z</time>
      </trkpt>
      <trkpt lat="46.11166" lon="6.46764">
        <ele>1387.32</ele>
        <time>2017-05-09T15:06:21Z</time>
      </trkpt>
      <trkpt lat="46.11168" lon="6.46763">
        <ele>1387.8</ele>
        <time>2017-05-09T15:06:22Z</time>
      </trkpt>
      <trkpt lat="46.11169" lon="6.46762">
        <ele>1387.8</ele>
        <time>2017-05-09T15:06:23Z</time>
      </trkpt>
      <trkpt lat="46.1117" lon="6.4676">
        <ele>1387.8</ele>
        <time>2017-05-09T15:06:24Z</time>
      </trkpt>
      <trkpt lat="46.11171" lon="6.46759">
        <ele>1387.8</ele>
        <time>2017-05-09T15:06:25Z</time>
      </trkpt>
      <trkpt lat="46.11189" lon="6.46743">
        <ele>1391.17</ele>
        <time>2017-05-09T15:06:38Z</time>
      </trkpt>
      <trkpt lat="46.11201" lon="6.46735">
        <ele>1394.05</ele>
        <time>2017-05-09T15:06:48Z</time>
      </trkpt>
      <trkpt lat="46.11203" lon="6.46734">
        <ele>1394.05</ele>
        <time>2017-05-09T15:06:49Z</time>
      </trkpt>
      <trkpt lat="46.11204" lon="6.46732">
        <ele>1394.53</ele>
        <time>2017-05-09T15:06:50Z</time>
      </trkpt>
      <trkpt lat="46.11205" lon="6.46731">
        <ele>1395.01</ele>
        <time>2017-05-09T15:06:51Z</time>
      </trkpt>
      <trkpt lat="46.11208" lon="6.46729">
        <ele>1395.49</ele>
        <time>2017-05-09T15:06:52Z</time>
      </trkpt>
      <trkpt lat="46.11212" lon="6.46727">
        <ele>1395.49</ele>
        <time>2017-05-09T15:06:53Z</time>
      </trkpt>
      <trkpt lat="46.11214" lon="6.46725">
        <ele>1395.97</ele>
        <time>2017-05-09T15:06:54Z</time>
      </trkpt>
      <trkpt lat="46.11216" lon="6.46724">
        <ele>1395.97</ele>
        <time>2017-05-09T15:06:55Z</time>
      </trkpt>
      <trkpt lat="46.11217" lon="6.46722">
        <ele>1396.45</ele>
        <time>2017-05-09T15:06:56Z</time>
      </trkpt>
      <trkpt lat="46.11219" lon="6.46721">
        <ele>1396.93</ele>
        <time>2017-05-09T15:06:57Z</time>
      </trkpt>
      <trkpt lat="46.1122" lon="6.46721">
        <ele>1397.41</ele>
        <time>2017-05-09T15:06:58Z</time>
      </trkpt>
      <trkpt lat="46.11229" lon="6.46716">
        <ele>1399.34</ele>
        <time>2017-05-09T15:07:05Z</time>
      </trkpt>
      <trkpt lat="46.1123" lon="6.46715">
        <ele>1399.82</ele>
        <time>2017-05-09T15:07:06Z</time>
      </trkpt>
      <trkpt lat="46.11233" lon="6.46714">
        <ele>1400.3</ele>
        <time>2017-05-09T15:07:08Z</time>
      </trkpt>
      <trkpt lat="46.11233" lon="6.46714">
        <ele>1400.78</ele>
        <time>2017-05-09T15:07:09Z</time>
      </trkpt>
      <trkpt lat="46.11237" lon="6.46709">
        <ele>1402.22</ele>
        <time>2017-05-09T15:07:14Z</time>
      </trkpt>
      <trkpt lat="46.11239" lon="6.46708">
        <ele>1402.7</ele>
        <time>2017-05-09T15:07:15Z</time>
      </trkpt>
      <trkpt lat="46.11246" lon="6.46708">
        <ele>1404.62</ele>
        <time>2017-05-09T15:07:22Z</time>
      </trkpt>
      <trkpt lat="46.11248" lon="6.46709">
        <ele>1405.1</ele>
        <time>2017-05-09T15:07:23Z</time>
      </trkpt>
      <trkpt lat="46.11251" lon="6.46709">
        <ele>1405.58</ele>
        <time>2017-05-09T15:07:25Z</time>
      </trkpt>
      <trkpt lat="46.11254" lon="6.46709">
        <ele>1406.07</ele>
        <time>2017-05-09T15:07:26Z</time>
      </trkpt>
      <trkpt lat="46.11256" lon="6.46709">
        <ele>1406.55</ele>
        <time>2017-05-09T15:07:27Z</time>
      </trkpt>
      <trkpt lat="46.1126" lon="6.46709">
        <ele>1406.55</ele>
        <time>2017-05-09T15:07:28Z</time>
      </trkpt>
      <trkpt lat="46.11263" lon="6.46709">
        <ele>1407.03</ele>
        <time>2017-05-09T15:07:29Z</time>
      </trkpt>
      <trkpt lat="46.11264" lon="6.46709">
        <ele>1407.51</ele>
        <time>2017-05-09T15:07:30Z</time>
      </trkpt>
      <trkpt lat="46.11265" lon="6.46708">
        <ele>1407.51</ele>
        <time>2017-05-09T15:07:31Z</time>
      </trkpt>
      <trkpt lat="46.11268" lon="6.46708">
        <ele>1407.99</ele>
        <time>2017-05-09T15:07:33Z</time>
      </trkpt>
      <trkpt lat="46.1127" lon="6.46712">
        <ele>1408.95</ele>
        <time>2017-05-09T15:07:35Z</time>
      </trkpt>
      <trkpt lat="46.11272" lon="6.46713">
        <ele>1409.43</ele>
        <time>2017-05-09T15:07:36Z</time>
      </trkpt>
      <trkpt lat="46.11273" lon="6.46714">
        <ele>1409.43</ele>
        <time>2017-05-09T15:07:37Z</time>
      </trkpt>
      <trkpt lat="46.11274" lon="6.46716">
        <ele>1409.91</ele>
        <time>2017-05-09T15:07:38Z</time>
      </trkpt>
      <trkpt lat="46.11276" lon="6.46717">
        <ele>1409.91</ele>
        <time>2017-05-09T15:07:39Z</time>
      </trkpt>
      <trkpt lat="46.11277" lon="6.46719">
        <ele>1410.39</ele>
        <time>2017-05-09T15:07:40Z</time>
      </trkpt>
      <trkpt lat="46.11278" lon="6.46721">
        <ele>1410.39</ele>
        <time>2017-05-09T15:07:41Z</time>
      </trkpt>
      <trkpt lat="46.11284" lon="6.46724">
        <ele>1411.35</ele>
        <time>2017-05-09T15:07:44Z</time>
      </trkpt>
      <trkpt lat="46.11295" lon="6.46731">
        <ele>1412.79</ele>
        <time>2017-05-09T15:07:51Z</time>
      </trkpt>
      <trkpt lat="46.11296" lon="6.46732">
        <ele>1413.28</ele>
        <time>2017-05-09T15:07:52Z</time>
      </trkpt>
      <trkpt lat="46.11297" lon="6.46733">
        <ele>1413.28</ele>
        <time>2017-05-09T15:07:53Z</time>
      </trkpt>
      <trkpt lat="46.11299" lon="6.46738">
        <ele>1415.2</ele>
        <time>2017-05-09T15:07:58Z</time>
      </trkpt>
      <trkpt lat="46.113" lon="6.46739">
        <ele>1415.2</ele>
        <time>2017-05-09T15:07:59Z</time>
      </trkpt>
      <trkpt lat="46.11301" lon="6.4674">
        <ele>1415.68</ele>
        <time>2017-05-09T15:08:00Z</time>
      </trkpt>
      <trkpt lat="46.11302" lon="6.46741">
        <ele>1415.68</ele>
        <time>2017-05-09T15:08:01Z</time>
      </trkpt>
      <trkpt lat="46.11306" lon="6.46745">
        <ele>1419.04</ele>
        <time>2017-05-09T15:08:10Z</time>
      </trkpt>
      <trkpt lat="46.1132" lon="6.46755">
        <ele>1420.97</ele>
        <time>2017-05-09T15:08:17Z</time>
      </trkpt>
      <trkpt lat="46.11321" lon="6.46757">
        <ele>1420.97</ele>
        <time>2017-05-09T15:08:18Z</time>
      </trkpt>
      <trkpt lat="46.11322" lon="6.46758">
        <ele>1420.97</ele>
        <time>2017-05-09T15:08:19Z</time>
      </trkpt>
      <trkpt lat="46.11325" lon="6.46762">
        <ele>1421.93</ele>
        <time>2017-05-09T15:08:22Z</time>
      </trkpt>
      <trkpt lat="46.11325" lon="6.46764">
        <ele>1421.93</ele>
        <time>2017-05-09T15:08:23Z</time>
      </trkpt>
      <trkpt lat="46.11325" lon="6.46765">
        <ele>1422.41</ele>
        <time>2017-05-09T15:08:24Z</time>
      </trkpt>
      <trkpt lat="46.11328" lon="6.46771">
        <ele>1422.41</ele>
        <time>2017-05-09T15:08:28Z</time>
      </trkpt>
      <trkpt lat="46.1133" lon="6.46771">
        <ele>1422.41</ele>
        <time>2017-05-09T15:08:29Z</time>
      </trkpt>
      <trkpt lat="46.11332" lon="6.46771">
        <ele>1422.89</ele>
        <time>2017-05-09T15:08:30Z</time>
      </trkpt>
      <trkpt lat="46.1135" lon="6.46769">
        <ele>1425.77</ele>
        <time>2017-05-09T15:08:43Z</time>
      </trkpt>
      <trkpt lat="46.11361" lon="6.46764">
        <ele>1429.14</ele>
        <time>2017-05-09T15:08:53Z</time>
      </trkpt>
      <trkpt lat="46.11361" lon="6.46761">
        <ele>1429.62</ele>
        <time>2017-05-09T15:08:55Z</time>
      </trkpt>
      <trkpt lat="46.11369" lon="6.46755">
        <ele>1431.06</ele>
        <time>2017-05-09T15:09:01Z</time>
      </trkpt>
      <trkpt lat="46.11371" lon="6.46752">
        <ele>1431.54</ele>
        <time>2017-05-09T15:09:02Z</time>
      </trkpt>
      <trkpt lat="46.11373" lon="6.46751">
        <ele>1432.02</ele>
        <time>2017-05-09T15:09:03Z</time>
      </trkpt>
      <trkpt lat="46.11375" lon="6.46749">
        <ele>1432.02</ele>
        <time>2017-05-09T15:09:04Z</time>
      </trkpt>
      <trkpt lat="46.11378" lon="6.46747">
        <ele>1432.5</ele>
        <time>2017-05-09T15:09:05Z</time>
      </trkpt>
      <trkpt lat="46.11381" lon="6.46741">
        <ele>1433.46</ele>
        <time>2017-05-09T15:09:08Z</time>
      </trkpt>
      <trkpt lat="46.11382" lon="6.46739">
        <ele>1433.94</ele>
        <time>2017-05-09T15:09:09Z</time>
      </trkpt>
      <trkpt lat="46.11383" lon="6.46737">
        <ele>1433.94</ele>
        <time>2017-05-09T15:09:10Z</time>
      </trkpt>
      <trkpt lat="46.11384" lon="6.46735">
        <ele>1434.42</ele>
        <time>2017-05-09T15:09:11Z</time>
      </trkpt>
      <trkpt lat="46.11385" lon="6.46733">
        <ele>1434.42</ele>
        <time>2017-05-09T15:09:12Z</time>
      </trkpt>
      <trkpt lat="46.11386" lon="6.46732">
        <ele>1434.42</ele>
        <time>2017-05-09T15:09:13Z</time>
      </trkpt>
      <trkpt lat="46.11386" lon="6.4673">
        <ele>1434.91</ele>
        <time>2017-05-09T15:09:14Z</time>
      </trkpt>
      <trkpt lat="46.11387" lon="6.46728">
        <ele>1434.91</ele>
        <time>2017-05-09T15:09:15Z</time>
      </trkpt>
      <trkpt lat="46.11388" lon="6.46727">
        <ele>1434.91</ele>
        <time>2017-05-09T15:09:16Z</time>
      </trkpt>
      <trkpt lat="46.1139" lon="6.46726">
        <ele>1435.39</ele>
        <time>2017-05-09T15:09:17Z</time>
      </trkpt>
      <trkpt lat="46.11389" lon="6.46724">
        <ele>1435.39</ele>
        <time>2017-05-09T15:09:18Z</time>
      </trkpt>
      <trkpt lat="46.1139" lon="6.46722">
        <ele>1435.39</ele>
        <time>2017-05-09T15:09:19Z</time>
      </trkpt>
      <trkpt lat="46.11391" lon="6.4672">
        <ele>1435.87</ele>
        <time>2017-05-09T15:09:21Z</time>
      </trkpt>
      <trkpt lat="46.11392" lon="6.46718">
        <ele>1435.87</ele>
        <time>2017-05-09T15:09:22Z</time>
      </trkpt>
      <trkpt lat="46.11393" lon="6.46717">
        <ele>1436.35</ele>
        <time>2017-05-09T15:09:23Z</time>
      </trkpt>
      <trkpt lat="46.11394" lon="6.46715">
        <ele>1436.83</ele>
        <time>2017-05-09T15:09:24Z</time>
      </trkpt>
      <trkpt lat="46.11395" lon="6.46713">
        <ele>1436.83</ele>
        <time>2017-05-09T15:09:25Z</time>
      </trkpt>
      <trkpt lat="46.11396" lon="6.4671">
        <ele>1437.31</ele>
        <time>2017-05-09T15:09:26Z</time>
      </trkpt>
      <trkpt lat="46.11397" lon="6.46709">
        <ele>1437.79</ele>
        <time>2017-05-09T15:09:27Z</time>
      </trkpt>
      <trkpt lat="46.11398" lon="6.46708">
        <ele>1437.79</ele>
        <time>2017-05-09T15:09:28Z</time>
      </trkpt>
      <trkpt lat="46.11408" lon="6.46695">
        <ele>1441.15</ele>
        <time>2017-05-09T15:09:40Z</time>
      </trkpt>
      <trkpt lat="46.11409" lon="6.46693">
        <ele>1441.63</ele>
        <time>2017-05-09T15:09:41Z</time>
      </trkpt>
      <trkpt lat="46.1141" lon="6.46691">
        <ele>1441.63</ele>
        <time>2017-05-09T15:09:42Z</time>
      </trkpt>
      <trkpt lat="46.1142" lon="6.46679">
        <ele>1444.04</ele>
        <time>2017-05-09T15:09:49Z</time>
      </trkpt>
      <trkpt lat="46.1142" lon="6.46677">
        <ele>1444.04</ele>
        <time>2017-05-09T15:09:50Z</time>
      </trkpt>
      <trkpt lat="46.11421" lon="6.46676">
        <ele>1444.52</ele>
        <time>2017-05-09T15:09:51Z</time>
      </trkpt>
      <trkpt lat="46.11422" lon="6.46674">
        <ele>1444.52</ele>
        <time>2017-05-09T15:09:52Z</time>
      </trkpt>
      <trkpt lat="46.11422" lon="6.46672">
        <ele>1445</ele>
        <time>2017-05-09T15:09:53Z</time>
      </trkpt>
      <trkpt lat="46.11423" lon="6.4667">
        <ele>1445</ele>
        <time>2017-05-09T15:09:54Z</time>
      </trkpt>
      <trkpt lat="46.11425" lon="6.46668">
        <ele>1445</ele>
        <time>2017-05-09T15:09:55Z</time>
      </trkpt>
      <trkpt lat="46.11425" lon="6.46666">
        <ele>1445.48</ele>
        <time>2017-05-09T15:09:56Z</time>
      </trkpt>
      <trkpt lat="46.11425" lon="6.46664">
        <ele>1445.48</ele>
        <time>2017-05-09T15:09:57Z</time>
      </trkpt>
      <trkpt lat="46.11425" lon="6.46661">
        <ele>1445.48</ele>
        <time>2017-05-09T15:09:58Z</time>
      </trkpt>
      <trkpt lat="46.11426" lon="6.46658">
        <ele>1445.96</ele>
        <time>2017-05-09T15:09:59Z</time>
      </trkpt>
      <trkpt lat="46.11426" lon="6.46655">
        <ele>1445.96</ele>
        <time>2017-05-09T15:10:00Z</time>
      </trkpt>
      <trkpt lat="46.11427" lon="6.46652">
        <ele>1445.96</ele>
        <time>2017-05-09T15:10:01Z</time>
      </trkpt>
      <trkpt lat="46.11428" lon="6.46649">
        <ele>1445.96</ele>
        <time>2017-05-09T15:10:02Z</time>
      </trkpt>
      <trkpt lat="46.1143" lon="6.46646">
        <ele>1445.96</ele>
        <time>2017-05-09T15:10:03Z</time>
      </trkpt>
      <trkpt lat="46.11431" lon="6.46643">
        <ele>1446.44</ele>
        <time>2017-05-09T15:10:04Z</time>
      </trkpt>
      <trkpt lat="46.11431" lon="6.46639">
        <ele>1446.44</ele>
        <time>2017-05-09T15:10:05Z</time>
      </trkpt>
      <trkpt lat="46.11431" lon="6.46636">
        <ele>1446.44</ele>
        <time>2017-05-09T15:10:06Z</time>
      </trkpt>
      <trkpt lat="46.11431" lon="6.46632">
        <ele>1446.44</ele>
        <time>2017-05-09T15:10:07Z</time>
      </trkpt>
      <trkpt lat="46.11431" lon="6.46629">
        <ele>1446.44</ele>
        <time>2017-05-09T15:10:08Z</time>
      </trkpt>
      <trkpt lat="46.11431" lon="6.46622">
        <ele>1446.92</ele>
        <time>2017-05-09T15:10:11Z</time>
      </trkpt>
      <trkpt lat="46.11431" lon="6.46621">
        <ele>1446.44</ele>
        <time>2017-05-09T15:10:12Z</time>
      </trkpt>
      <trkpt lat="46.11431" lon="6.46619">
        <ele>1446.44</ele>
        <time>2017-05-09T15:10:13Z</time>
      </trkpt>
      <trkpt lat="46.11429" lon="6.46611">
        <ele>1446.92</ele>
        <time>2017-05-09T15:10:18Z</time>
      </trkpt>
      <trkpt lat="46.11428" lon="6.4661">
        <ele>1446.92</ele>
        <time>2017-05-09T15:10:19Z</time>
      </trkpt>
      <trkpt lat="46.11428" lon="6.46608">
        <ele>1446.92</ele>
        <time>2017-05-09T15:10:20Z</time>
      </trkpt>
      <trkpt lat="46.11429" lon="6.46607">
        <ele>1446.92</ele>
        <time>2017-05-09T15:10:21Z</time>
      </trkpt>
      <trkpt lat="46.11429" lon="6.46602">
        <ele>1446.92</ele>
        <time>2017-05-09T15:10:24Z</time>
      </trkpt>
      <trkpt lat="46.1143" lon="6.46601">
        <ele>1446.92</ele>
        <time>2017-05-09T15:10:25Z</time>
      </trkpt>
      <trkpt lat="46.1143" lon="6.466">
        <ele>1446.92</ele>
        <time>2017-05-09T15:10:26Z</time>
      </trkpt>
      <trkpt lat="46.11431" lon="6.46599">
        <ele>1446.44</ele>
        <time>2017-05-09T15:10:27Z</time>
      </trkpt>
      <trkpt lat="46.11432" lon="6.46598">
        <ele>1446.44</ele>
        <time>2017-05-09T15:10:28Z</time>
      </trkpt>
      <trkpt lat="46.11434" lon="6.46596">
        <ele>1445.96</ele>
        <time>2017-05-09T15:10:32Z</time>
      </trkpt>
      <trkpt lat="46.11435" lon="6.46594">
        <ele>1446.44</ele>
        <time>2017-05-09T15:10:35Z</time>
      </trkpt>
      <trkpt lat="46.11436" lon="6.46595">
        <ele>1446.92</ele>
        <time>2017-05-09T15:10:38Z</time>
      </trkpt>
      <trkpt lat="46.11436" lon="6.46595">
        <ele>1446.92</ele>
        <time>2017-05-09T15:10:41Z</time>
      </trkpt>
      <trkpt lat="46.11436" lon="6.46595">
        <ele>1446.92</ele>
        <time>2017-05-09T15:10:43Z</time>
      </trkpt>
      <trkpt lat="46.11436" lon="6.46594">
        <ele>1446.92</ele>
        <time>2017-05-09T15:10:45Z</time>
      </trkpt>
      <trkpt lat="46.11437" lon="6.46595">
        <ele>1446.92</ele>
        <time>2017-05-09T15:10:46Z</time>
      </trkpt>
      <trkpt lat="46.11437" lon="6.46595">
        <ele>1446.92</ele>
        <time>2017-05-09T15:10:49Z</time>
      </trkpt>
      <trkpt lat="46.1144" lon="6.46595">
        <ele>1446.92</ele>
        <time>2017-05-09T15:10:52Z</time>
      </trkpt>
      <trkpt lat="46.11441" lon="6.46595">
        <ele>1446.44</ele>
        <time>2017-05-09T15:10:55Z</time>
      </trkpt>
      <trkpt lat="46.11442" lon="6.46594">
        <ele>1446.44</ele>
        <time>2017-05-09T15:10:57Z</time>
      </trkpt>
      <trkpt lat="46.11444" lon="6.46592">
        <ele>1446.44</ele>
        <time>2017-05-09T15:10:58Z</time>
      </trkpt>
      <trkpt lat="46.11445" lon="6.4659">
        <ele>1446.44</ele>
        <time>2017-05-09T15:10:59Z</time>
      </trkpt>
      <trkpt lat="46.1145" lon="6.46585">
        <ele>1445.48</ele>
        <time>2017-05-09T15:11:01Z</time>
      </trkpt>
      <trkpt lat="46.11453" lon="6.46583">
        <ele>1444.52</ele>
        <time>2017-05-09T15:11:02Z</time>
      </trkpt>
      <trkpt lat="46.11454" lon="6.46581">
        <ele>1444.04</ele>
        <time>2017-05-09T15:11:03Z</time>
      </trkpt>
      <trkpt lat="46.11457" lon="6.46579">
        <ele>1443.56</ele>
        <time>2017-05-09T15:11:04Z</time>
      </trkpt>
      <trkpt lat="46.11459" lon="6.46577">
        <ele>1443.08</ele>
        <time>2017-05-09T15:11:05Z</time>
      </trkpt>
      <trkpt lat="46.11461" lon="6.46575">
        <ele>1442.6</ele>
        <time>2017-05-09T15:11:06Z</time>
      </trkpt>
      <trkpt lat="46.11471" lon="6.46569">
        <ele>1439.23</ele>
        <time>2017-05-09T15:11:11Z</time>
      </trkpt>
      <trkpt lat="46.11482" lon="6.46558">
        <ele>1435.39</ele>
        <time>2017-05-09T15:11:17Z</time>
      </trkpt>
      <trkpt lat="46.11493" lon="6.46551">
        <ele>1432.02</ele>
        <time>2017-05-09T15:11:22Z</time>
      </trkpt>
      <trkpt lat="46.11502" lon="6.46541">
        <ele>1428.66</ele>
        <time>2017-05-09T15:11:27Z</time>
      </trkpt>
      <trkpt lat="46.11509" lon="6.46529">
        <ele>1425.77</ele>
        <time>2017-05-09T15:11:32Z</time>
      </trkpt>
      <trkpt lat="46.11516" lon="6.46519">
        <ele>1422.41</ele>
        <time>2017-05-09T15:11:36Z</time>
      </trkpt>
      <trkpt lat="46.11519" lon="6.4651">
        <ele>1418.56</ele>
        <time>2017-05-09T15:11:39Z</time>
      </trkpt>
      <trkpt lat="46.11521" lon="6.46504">
        <ele>1417.6</ele>
        <time>2017-05-09T15:11:41Z</time>
      </trkpt>
      <trkpt lat="46.11525" lon="6.46496">
        <ele>1415.68</ele>
        <time>2017-05-09T15:11:44Z</time>
      </trkpt>
      <trkpt lat="46.11528" lon="6.46494">
        <ele>1414.72</ele>
        <time>2017-05-09T15:11:45Z</time>
      </trkpt>
      <trkpt lat="46.11531" lon="6.46492">
        <ele>1414.24</ele>
        <time>2017-05-09T15:11:46Z</time>
      </trkpt>
      <trkpt lat="46.11535" lon="6.46484">
        <ele>1410.39</ele>
        <time>2017-05-09T15:11:49Z</time>
      </trkpt>
      <trkpt lat="46.1154" lon="6.46477">
        <ele>1406.55</ele>
        <time>2017-05-09T15:11:52Z</time>
      </trkpt>
      <trkpt lat="46.11548" lon="6.46469">
        <ele>1403.18</ele>
        <time>2017-05-09T15:11:56Z</time>
      </trkpt>
      <trkpt lat="46.11555" lon="6.46462">
        <ele>1399.82</ele>
        <time>2017-05-09T15:11:59Z</time>
      </trkpt>
      <trkpt lat="46.11561" lon="6.46456">
        <ele>1396.45</ele>
        <time>2017-05-09T15:12:02Z</time>
      </trkpt>
      <trkpt lat="46.11568" lon="6.46447">
        <ele>1392.61</ele>
        <time>2017-05-09T15:12:06Z</time>
      </trkpt>
      <trkpt lat="46.11569" lon="6.46443">
        <ele>1391.65</ele>
        <time>2017-05-09T15:12:07Z</time>
      </trkpt>
      <trkpt lat="46.11575" lon="6.46425">
        <ele>1387.8</ele>
        <time>2017-05-09T15:12:12Z</time>
      </trkpt>
      <trkpt lat="46.11579" lon="6.46407">
        <ele>1385.88</ele>
        <time>2017-05-09T15:12:16Z</time>
      </trkpt>
      <trkpt lat="46.11579" lon="6.46386">
        <ele>1384.44</ele>
        <time>2017-05-09T15:12:21Z</time>
      </trkpt>
      <trkpt lat="46.11578" lon="6.46382">
        <ele>1384.92</ele>
        <time>2017-05-09T15:12:22Z</time>
      </trkpt>
      <trkpt lat="46.11576" lon="6.46379">
        <ele>1384.92</ele>
        <time>2017-05-09T15:12:23Z</time>
      </trkpt>
      <trkpt lat="46.11572" lon="6.46363">
        <ele>1386.84</ele>
        <time>2017-05-09T15:12:29Z</time>
      </trkpt>
      <trkpt lat="46.11572" lon="6.46356">
        <ele>1386.84</ele>
        <time>2017-05-09T15:12:31Z</time>
      </trkpt>
      <trkpt lat="46.11573" lon="6.46352">
        <ele>1386.84</ele>
        <time>2017-05-09T15:12:32Z</time>
      </trkpt>
      <trkpt lat="46.11574" lon="6.46349">
        <ele>1386.84</ele>
        <time>2017-05-09T15:12:33Z</time>
      </trkpt>
      <trkpt lat="46.11575" lon="6.46345">
        <ele>1386.36</ele>
        <time>2017-05-09T15:12:34Z</time>
      </trkpt>
      <trkpt lat="46.11577" lon="6.46342">
        <ele>1386.36</ele>
        <time>2017-05-09T15:12:35Z</time>
      </trkpt>
      <trkpt lat="46.11578" lon="6.46339">
        <ele>1386.36</ele>
        <time>2017-05-09T15:12:36Z</time>
      </trkpt>
      <trkpt lat="46.11581" lon="6.46321">
        <ele>1385.4</ele>
        <time>2017-05-09T15:12:41Z</time>
      </trkpt>
      <trkpt lat="46.11585" lon="6.46299">
        <ele>1384.92</ele>
        <time>2017-05-09T15:12:48Z</time>
      </trkpt>
      <trkpt lat="46.11589" lon="6.46294">
        <ele>1384.92</ele>
        <time>2017-05-09T15:12:52Z</time>
      </trkpt>
      <trkpt lat="46.11591" lon="6.46293">
        <ele>1384.44</ele>
        <time>2017-05-09T15:12:53Z</time>
      </trkpt>
      <trkpt lat="46.11595" lon="6.4629">
        <ele>1383.96</ele>
        <time>2017-05-09T15:12:55Z</time>
      </trkpt>
      <trkpt lat="46.11597" lon="6.46289">
        <ele>1383.47</ele>
        <time>2017-05-09T15:12:56Z</time>
      </trkpt>
      <trkpt lat="46.11606" lon="6.46278">
        <ele>1380.59</ele>
        <time>2017-05-09T15:13:02Z</time>
      </trkpt>
      <trkpt lat="46.1161" lon="6.46274">
        <ele>1377.23</ele>
        <time>2017-05-09T15:13:06Z</time>
      </trkpt>
      <trkpt lat="46.11618" lon="6.46273">
        <ele>1373.38</ele>
        <time>2017-05-09T15:13:10Z</time>
      </trkpt>
      <trkpt lat="46.11622" lon="6.46273">
        <ele>1371.94</ele>
        <time>2017-05-09T15:13:12Z</time>
      </trkpt>
      <trkpt lat="46.11624" lon="6.46274">
        <ele>1370.98</ele>
        <time>2017-05-09T15:13:13Z</time>
      </trkpt>
      <trkpt lat="46.11627" lon="6.46274">
        <ele>1370.5</ele>
        <time>2017-05-09T15:13:14Z</time>
      </trkpt>
      <trkpt lat="46.11648" lon="6.46262">
        <ele>1368.09</ele>
        <time>2017-05-09T15:13:23Z</time>
      </trkpt>
      <trkpt lat="46.11655" lon="6.4625">
        <ele>1363.77</ele>
        <time>2017-05-09T15:13:28Z</time>
      </trkpt>
      <trkpt lat="46.11659" lon="6.46245">
        <ele>1362.81</ele>
        <time>2017-05-09T15:13:30Z</time>
      </trkpt>
      <trkpt lat="46.11667" lon="6.46228">
        <ele>1359.92</ele>
        <time>2017-05-09T15:13:38Z</time>
      </trkpt>
      <trkpt lat="46.11669" lon="6.46221">
        <ele>1357.04</ele>
        <time>2017-05-09T15:13:42Z</time>
      </trkpt>
      <trkpt lat="46.11671" lon="6.46215">
        <ele>1355.6</ele>
        <time>2017-05-09T15:13:44Z</time>
      </trkpt>
      <trkpt lat="46.11672" lon="6.46213">
        <ele>1354.63</ele>
        <time>2017-05-09T15:13:45Z</time>
      </trkpt>
      <trkpt lat="46.11673" lon="6.46211">
        <ele>1354.15</ele>
        <time>2017-05-09T15:13:46Z</time>
      </trkpt>
      <trkpt lat="46.11676" lon="6.46204">
        <ele>1350.79</ele>
        <time>2017-05-09T15:13:50Z</time>
      </trkpt>
      <trkpt lat="46.11682" lon="6.46198">
        <ele>1347.43</ele>
        <time>2017-05-09T15:13:55Z</time>
      </trkpt>
      <trkpt lat="46.11686" lon="6.46194">
        <ele>1345.5</ele>
        <time>2017-05-09T15:13:57Z</time>
      </trkpt>
      <trkpt lat="46.11688" lon="6.46194">
        <ele>1345.02</ele>
        <time>2017-05-09T15:13:58Z</time>
      </trkpt>
      <trkpt lat="46.11697" lon="6.46192">
        <ele>1341.18</ele>
        <time>2017-05-09T15:14:03Z</time>
      </trkpt>
      <trkpt lat="46.11704" lon="6.46187">
        <ele>1339.73</ele>
        <time>2017-05-09T15:14:06Z</time>
      </trkpt>
      <trkpt lat="46.11706" lon="6.46183">
        <ele>1338.77</ele>
        <time>2017-05-09T15:14:07Z</time>
      </trkpt>
      <trkpt lat="46.11708" lon="6.4618">
        <ele>1338.29</ele>
        <time>2017-05-09T15:14:08Z</time>
      </trkpt>
      <trkpt lat="46.11709" lon="6.46175">
        <ele>1337.81</ele>
        <time>2017-05-09T15:14:09Z</time>
      </trkpt>
      <trkpt lat="46.1171" lon="6.46169">
        <ele>1337.81</ele>
        <time>2017-05-09T15:14:10Z</time>
      </trkpt>
      <trkpt lat="46.1171" lon="6.46163">
        <ele>1337.81</ele>
        <time>2017-05-09T15:14:11Z</time>
      </trkpt>
      <trkpt lat="46.11711" lon="6.46158">
        <ele>1337.81</ele>
        <time>2017-05-09T15:14:12Z</time>
      </trkpt>
      <trkpt lat="46.11712" lon="6.46155">
        <ele>1337.81</ele>
        <time>2017-05-09T15:14:13Z</time>
      </trkpt>
      <trkpt lat="46.11714" lon="6.4615">
        <ele>1337.81</ele>
        <time>2017-05-09T15:14:14Z</time>
      </trkpt>
      <trkpt lat="46.11718" lon="6.46139">
        <ele>1337.81</ele>
        <time>2017-05-09T15:14:17Z</time>
      </trkpt>
      <trkpt lat="46.11719" lon="6.46131">
        <ele>1337.81</ele>
        <time>2017-05-09T15:14:19Z</time>
      </trkpt>
      <trkpt lat="46.11719" lon="6.46127">
        <ele>1337.81</ele>
        <time>2017-05-09T15:14:20Z</time>
      </trkpt>
      <trkpt lat="46.11719" lon="6.46123">
        <ele>1337.81</ele>
        <time>2017-05-09T15:14:21Z</time>
      </trkpt>
      <trkpt lat="46.11719" lon="6.46119">
        <ele>1337.81</ele>
        <time>2017-05-09T15:14:22Z</time>
      </trkpt>
      <trkpt lat="46.11717" lon="6.46115">
        <ele>1337.81</ele>
        <time>2017-05-09T15:14:23Z</time>
      </trkpt>
      <trkpt lat="46.11716" lon="6.46112">
        <ele>1337.81</ele>
        <time>2017-05-09T15:14:24Z</time>
      </trkpt>
      <trkpt lat="46.11715" lon="6.4611">
        <ele>1337.81</ele>
        <time>2017-05-09T15:14:25Z</time>
      </trkpt>
      <trkpt lat="46.11713" lon="6.46108">
        <ele>1337.81</ele>
        <time>2017-05-09T15:14:26Z</time>
      </trkpt>
      <trkpt lat="46.1171" lon="6.46078">
        <ele>1338.29</ele>
        <time>2017-05-09T15:14:33Z</time>
      </trkpt>
      <trkpt lat="46.11715" lon="6.46054">
        <ele>1338.29</ele>
        <time>2017-05-09T15:14:40Z</time>
      </trkpt>
      <trkpt lat="46.11715" lon="6.4605">
        <ele>1338.29</ele>
        <time>2017-05-09T15:14:41Z</time>
      </trkpt>
      <trkpt lat="46.11713" lon="6.46042">
        <ele>1338.29</ele>
        <time>2017-05-09T15:14:43Z</time>
      </trkpt>
      <trkpt lat="46.11713" lon="6.46039">
        <ele>1338.29</ele>
        <time>2017-05-09T15:14:44Z</time>
      </trkpt>
      <trkpt lat="46.11713" lon="6.46035">
        <ele>1338.29</ele>
        <time>2017-05-09T15:14:45Z</time>
      </trkpt>
      <trkpt lat="46.11712" lon="6.46032">
        <ele>1338.29</ele>
        <time>2017-05-09T15:14:46Z</time>
      </trkpt>
      <trkpt lat="46.1171" lon="6.46028">
        <ele>1338.29</ele>
        <time>2017-05-09T15:14:47Z</time>
      </trkpt>
      <trkpt lat="46.11709" lon="6.46024">
        <ele>1337.81</ele>
        <time>2017-05-09T15:14:48Z</time>
      </trkpt>
      <trkpt lat="46.11708" lon="6.46021">
        <ele>1337.81</ele>
        <time>2017-05-09T15:14:49Z</time>
      </trkpt>
      <trkpt lat="46.11701" lon="6.45995">
        <ele>1338.29</ele>
        <time>2017-05-09T15:14:56Z</time>
      </trkpt>
      <trkpt lat="46.11694" lon="6.4597">
        <ele>1338.29</ele>
        <time>2017-05-09T15:15:03Z</time>
      </trkpt>
      <trkpt lat="46.11694" lon="6.45963">
        <ele>1338.29</ele>
        <time>2017-05-09T15:15:05Z</time>
      </trkpt>
      <trkpt lat="46.11695" lon="6.4596">
        <ele>1338.29</ele>
        <time>2017-05-09T15:15:06Z</time>
      </trkpt>
      <trkpt lat="46.11697" lon="6.45957">
        <ele>1338.29</ele>
        <time>2017-05-09T15:15:07Z</time>
      </trkpt>
      <trkpt lat="46.11698" lon="6.45955">
        <ele>1338.77</ele>
        <time>2017-05-09T15:15:08Z</time>
      </trkpt>
      <trkpt lat="46.117" lon="6.45952">
        <ele>1338.77</ele>
        <time>2017-05-09T15:15:09Z</time>
      </trkpt>
      <trkpt lat="46.11702" lon="6.45949">
        <ele>1338.77</ele>
        <time>2017-05-09T15:15:10Z</time>
      </trkpt>
      <trkpt lat="46.11703" lon="6.45947">
        <ele>1339.25</ele>
        <time>2017-05-09T15:15:11Z</time>
      </trkpt>
      <trkpt lat="46.11719" lon="6.45926">
        <ele>1340.22</ele>
        <time>2017-05-09T15:15:19Z</time>
      </trkpt>
      <trkpt lat="46.11731" lon="6.45908">
        <ele>1340.7</ele>
        <time>2017-05-09T15:15:26Z</time>
      </trkpt>
      <trkpt lat="46.11739" lon="6.45878">
        <ele>1341.18</ele>
        <time>2017-05-09T15:15:35Z</time>
      </trkpt>
      <trkpt lat="46.11747" lon="6.45846">
        <ele>1341.18</ele>
        <time>2017-05-09T15:15:44Z</time>
      </trkpt>
      <trkpt lat="46.11753" lon="6.45816">
        <ele>1341.66</ele>
        <time>2017-05-09T15:15:52Z</time>
      </trkpt>
      <trkpt lat="46.11758" lon="6.45786">
        <ele>1342.14</ele>
        <time>2017-05-09T15:16:00Z</time>
      </trkpt>
      <trkpt lat="46.11765" lon="6.45755">
        <ele>1340.7</ele>
        <time>2017-05-09T15:16:08Z</time>
      </trkpt>
      <trkpt lat="46.1178" lon="6.45731">
        <ele>1338.77</ele>
        <time>2017-05-09T15:16:16Z</time>
      </trkpt>
      <trkpt lat="46.11794" lon="6.45709">
        <ele>1336.85</ele>
        <time>2017-05-09T15:16:24Z</time>
      </trkpt>
      <trkpt lat="46.11809" lon="6.45688">
        <ele>1334.93</ele>
        <time>2017-05-09T15:16:32Z</time>
      </trkpt>
      <trkpt lat="46.11818" lon="6.45674">
        <ele>1333.49</ele>
        <time>2017-05-09T15:16:37Z</time>
      </trkpt>
      <trkpt lat="46.11827" lon="6.45658">
        <ele>1332.04</ele>
        <time>2017-05-09T15:16:42Z</time>
      </trkpt>
      <trkpt lat="46.11829" lon="6.45627">
        <ele>1330.12</ele>
        <time>2017-05-09T15:16:49Z</time>
      </trkpt>
      <trkpt lat="46.11823" lon="6.45596">
        <ele>1327.24</ele>
        <time>2017-05-09T15:16:57Z</time>
      </trkpt>
      <trkpt lat="46.11819" lon="6.45564">
        <ele>1325.31</ele>
        <time>2017-05-09T15:17:05Z</time>
      </trkpt>
      <trkpt lat="46.1181" lon="6.45536">
        <ele>1322.91</ele>
        <time>2017-05-09T15:17:13Z</time>
      </trkpt>
      <trkpt lat="46.11808" lon="6.45533">
        <ele>1322.43</ele>
        <time>2017-05-09T15:17:14Z</time>
      </trkpt>
      <trkpt lat="46.118" lon="6.45522">
        <ele>1320.99</ele>
        <time>2017-05-09T15:17:18Z</time>
      </trkpt>
      <trkpt lat="46.11799" lon="6.45517">
        <ele>1320.51</ele>
        <time>2017-05-09T15:17:19Z</time>
      </trkpt>
      <trkpt lat="46.11798" lon="6.45513">
        <ele>1320.51</ele>
        <time>2017-05-09T15:17:20Z</time>
      </trkpt>
      <trkpt lat="46.11797" lon="6.45509">
        <ele>1320.03</ele>
        <time>2017-05-09T15:17:21Z</time>
      </trkpt>
      <trkpt lat="46.11797" lon="6.45506">
        <ele>1320.03</ele>
        <time>2017-05-09T15:17:22Z</time>
      </trkpt>
      <trkpt lat="46.11796" lon="6.45502">
        <ele>1320.03</ele>
        <time>2017-05-09T15:17:23Z</time>
      </trkpt>
      <trkpt lat="46.11793" lon="6.45473">
        <ele>1317.62</ele>
        <time>2017-05-09T15:17:30Z</time>
      </trkpt>
      <trkpt lat="46.11792" lon="6.45444">
        <ele>1315.22</ele>
        <time>2017-05-09T15:17:38Z</time>
      </trkpt>
      <trkpt lat="46.11792" lon="6.45443">
        <ele>1315.22</ele>
        <time>2017-05-09T15:17:39Z</time>
      </trkpt>
      <trkpt lat="46.11792" lon="6.4544">
        <ele>1314.74</ele>
        <time>2017-05-09T15:17:43Z</time>
      </trkpt>
      <trkpt lat="46.11792" lon="6.45438">
        <ele>1314.74</ele>
        <time>2017-05-09T15:17:47Z</time>
      </trkpt>
      <trkpt lat="46.11792" lon="6.45433">
        <ele>1314.26</ele>
        <time>2017-05-09T15:17:53Z</time>
      </trkpt>
      <trkpt lat="46.11791" lon="6.45427">
        <ele>1313.78</ele>
        <time>2017-05-09T15:17:59Z</time>
      </trkpt>
      <trkpt lat="46.1179" lon="6.45419">
        <ele>1313.3</ele>
        <time>2017-05-09T15:18:04Z</time>
      </trkpt>
      <trkpt lat="46.11788" lon="6.4541">
        <ele>1312.82</ele>
        <time>2017-05-09T15:18:09Z</time>
      </trkpt>
      <trkpt lat="46.11775" lon="6.45387">
        <ele>1311.38</ele>
        <time>2017-05-09T15:18:18Z</time>
      </trkpt>
      <trkpt lat="46.11759" lon="6.45369">
        <ele>1308.97</ele>
        <time>2017-05-09T15:18:28Z</time>
      </trkpt>
      <trkpt lat="46.11743" lon="6.45357">
        <ele>1307.05</ele>
        <time>2017-05-09T15:18:35Z</time>
      </trkpt>
      <trkpt lat="46.11729" lon="6.45345">
        <ele>1306.09</ele>
        <time>2017-05-09T15:18:41Z</time>
      </trkpt>
      <trkpt lat="46.11721" lon="6.45339">
        <ele>1305.13</ele>
        <time>2017-05-09T15:18:44Z</time>
      </trkpt>
      <trkpt lat="46.11714" lon="6.4533">
        <ele>1304.17</ele>
        <time>2017-05-09T15:18:47Z</time>
      </trkpt>
      <trkpt lat="46.117" lon="6.45311">
        <ele>1301.76</ele>
        <time>2017-05-09T15:18:54Z</time>
      </trkpt>
      <trkpt lat="46.11678" lon="6.4529">
        <ele>1299.36</ele>
        <time>2017-05-09T15:19:03Z</time>
      </trkpt>
      <trkpt lat="46.11654" lon="6.4527">
        <ele>1297.44</ele>
        <time>2017-05-09T15:19:11Z</time>
      </trkpt>
      <trkpt lat="46.11639" lon="6.45243">
        <ele>1295.51</ele>
        <time>2017-05-09T15:19:20Z</time>
      </trkpt>
      <trkpt lat="46.11619" lon="6.45228">
        <ele>1293.59</ele>
        <time>2017-05-09T15:19:28Z</time>
      </trkpt>
      <trkpt lat="46.11612" lon="6.45226">
        <ele>1293.59</ele>
        <time>2017-05-09T15:19:30Z</time>
      </trkpt>
      <trkpt lat="46.11598" lon="6.45218">
        <ele>1292.63</ele>
        <time>2017-05-09T15:19:35Z</time>
      </trkpt>
      <trkpt lat="46.11597" lon="6.45215">
        <ele>1292.15</ele>
        <time>2017-05-09T15:19:36Z</time>
      </trkpt>
      <trkpt lat="46.11599" lon="6.45212">
        <ele>1291.67</ele>
        <time>2017-05-09T15:19:37Z</time>
      </trkpt>
      <trkpt lat="46.11602" lon="6.4521">
        <ele>1291.67</ele>
        <time>2017-05-09T15:19:38Z</time>
      </trkpt>
      <trkpt lat="46.11606" lon="6.45211">
        <ele>1290.71</ele>
        <time>2017-05-09T15:19:39Z</time>
      </trkpt>
      <trkpt lat="46.11609" lon="6.45212">
        <ele>1290.23</ele>
        <time>2017-05-09T15:19:40Z</time>
      </trkpt>
      <trkpt lat="46.11612" lon="6.45213">
        <ele>1290.23</ele>
        <time>2017-05-09T15:19:41Z</time>
      </trkpt>
      <trkpt lat="46.11632" lon="6.45225">
        <ele>1288.3</ele>
        <time>2017-05-09T15:19:48Z</time>
      </trkpt>
      <trkpt lat="46.11653" lon="6.45232">
        <ele>1285.9</ele>
        <time>2017-05-09T15:19:56Z</time>
      </trkpt>
      <trkpt lat="46.11672" lon="6.45244">
        <ele>1283.5</ele>
        <time>2017-05-09T15:20:03Z</time>
      </trkpt>
      <trkpt lat="46.11691" lon="6.45255">
        <ele>1281.09</ele>
        <time>2017-05-09T15:20:10Z</time>
      </trkpt>
      <trkpt lat="46.11712" lon="6.45264">
        <ele>1278.69</ele>
        <time>2017-05-09T15:20:18Z</time>
      </trkpt>
      <trkpt lat="46.11735" lon="6.45269">
        <ele>1275.81</ele>
        <time>2017-05-09T15:20:26Z</time>
      </trkpt>
      <trkpt lat="46.11757" lon="6.45281">
        <ele>1273.88</ele>
        <time>2017-05-09T15:20:33Z</time>
      </trkpt>
      <trkpt lat="46.11777" lon="6.45291">
        <ele>1271.48</ele>
        <time>2017-05-09T15:20:41Z</time>
      </trkpt>
      <trkpt lat="46.11801" lon="6.45296">
        <ele>1269.56</ele>
        <time>2017-05-09T15:20:48Z</time>
      </trkpt>
      <trkpt lat="46.11826" lon="6.45306">
        <ele>1266.67</ele>
        <time>2017-05-09T15:20:56Z</time>
      </trkpt>
      <trkpt lat="46.11836" lon="6.45309">
        <ele>1265.23</ele>
        <time>2017-05-09T15:21:00Z</time>
      </trkpt>
      <trkpt lat="46.1186" lon="6.45319">
        <ele>1261.87</ele>
        <time>2017-05-09T15:21:08Z</time>
      </trkpt>
      <trkpt lat="46.11882" lon="6.45334">
        <ele>1258.98</ele>
        <time>2017-05-09T15:21:17Z</time>
      </trkpt>
      <trkpt lat="46.11892" lon="6.45347">
        <ele>1258.02</ele>
        <time>2017-05-09T15:21:22Z</time>
      </trkpt>
      <trkpt lat="46.11894" lon="6.4535">
        <ele>1257.54</ele>
        <time>2017-05-09T15:21:23Z</time>
      </trkpt>
      <trkpt lat="46.1191" lon="6.45374">
        <ele>1256.1</ele>
        <time>2017-05-09T15:21:30Z</time>
      </trkpt>
      <trkpt lat="46.11911" lon="6.45391">
        <ele>1255.14</ele>
        <time>2017-05-09T15:21:34Z</time>
      </trkpt>
      <trkpt lat="46.11912" lon="6.45395">
        <ele>1254.66</ele>
        <time>2017-05-09T15:21:35Z</time>
      </trkpt>
      <trkpt lat="46.11914" lon="6.45399">
        <ele>1254.18</ele>
        <time>2017-05-09T15:21:36Z</time>
      </trkpt>
      <trkpt lat="46.11916" lon="6.45402">
        <ele>1254.18</ele>
        <time>2017-05-09T15:21:37Z</time>
      </trkpt>
      <trkpt lat="46.11918" lon="6.45403">
        <ele>1253.7</ele>
        <time>2017-05-09T15:21:38Z</time>
      </trkpt>
      <trkpt lat="46.1192" lon="6.45403">
        <ele>1253.22</ele>
        <time>2017-05-09T15:21:39Z</time>
      </trkpt>
      <trkpt lat="46.11922" lon="6.45401">
        <ele>1252.74</ele>
        <time>2017-05-09T15:21:40Z</time>
      </trkpt>
      <trkpt lat="46.11922" lon="6.45397">
        <ele>1252.25</ele>
        <time>2017-05-09T15:21:41Z</time>
      </trkpt>
      <trkpt lat="46.11923" lon="6.45393">
        <ele>1252.25</ele>
        <time>2017-05-09T15:21:42Z</time>
      </trkpt>
      <trkpt lat="46.11923" lon="6.45389">
        <ele>1251.77</ele>
        <time>2017-05-09T15:21:43Z</time>
      </trkpt>
      <trkpt lat="46.11923" lon="6.45385">
        <ele>1251.77</ele>
        <time>2017-05-09T15:21:44Z</time>
      </trkpt>
      <trkpt lat="46.11923" lon="6.45381">
        <ele>1251.77</ele>
        <time>2017-05-09T15:21:45Z</time>
      </trkpt>
      <trkpt lat="46.11918" lon="6.45353">
        <ele>1249.85</ele>
        <time>2017-05-09T15:21:52Z</time>
      </trkpt>
      <trkpt lat="46.1191" lon="6.45327">
        <ele>1248.41</ele>
        <time>2017-05-09T15:21:59Z</time>
      </trkpt>
      <trkpt lat="46.11899" lon="6.45303">
        <ele>1245.53</ele>
        <time>2017-05-09T15:22:07Z</time>
      </trkpt>
      <trkpt lat="46.11894" lon="6.45296">
        <ele>1244.56</ele>
        <time>2017-05-09T15:22:09Z</time>
      </trkpt>
      <trkpt lat="46.11876" lon="6.4528">
        <ele>1242.16</ele>
        <time>2017-05-09T15:22:17Z</time>
      </trkpt>
      <trkpt lat="46.11859" lon="6.45269">
        <ele>1238.8</ele>
        <time>2017-05-09T15:22:24Z</time>
      </trkpt>
      <trkpt lat="46.11854" lon="6.45266">
        <ele>1238.32</ele>
        <time>2017-05-09T15:22:28Z</time>
      </trkpt>
      <trkpt lat="46.11852" lon="6.45267">
        <ele>1237.83</ele>
        <time>2017-05-09T15:22:34Z</time>
      </trkpt>
      <trkpt lat="46.11852" lon="6.45269">
        <ele>1237.83</ele>
        <time>2017-05-09T15:22:40Z</time>
      </trkpt>
      <trkpt lat="46.11851" lon="6.4527">
        <ele>1237.83</ele>
        <time>2017-05-09T15:22:41Z</time>
      </trkpt>
      <trkpt lat="46.11845" lon="6.4527">
        <ele>1237.83</ele>
        <time>2017-05-09T15:22:52Z</time>
      </trkpt>
      <trkpt lat="46.11839" lon="6.45258">
        <ele>1236.39</ele>
        <time>2017-05-09T15:23:00Z</time>
      </trkpt>
      <trkpt lat="46.11833" lon="6.45253">
        <ele>1235.43</ele>
        <time>2017-05-09T15:23:03Z</time>
      </trkpt>
      <trkpt lat="46.11813" lon="6.45237">
        <ele>1232.55</ele>
        <time>2017-05-09T15:23:11Z</time>
      </trkpt>
      <trkpt lat="46.11809" lon="6.4523">
        <ele>1232.07</ele>
        <time>2017-05-09T15:23:13Z</time>
      </trkpt>
      <trkpt lat="46.11807" lon="6.45226">
        <ele>1231.59</ele>
        <time>2017-05-09T15:23:14Z</time>
      </trkpt>
      <trkpt lat="46.11793" lon="6.45201">
        <ele>1228.22</ele>
        <time>2017-05-09T15:23:22Z</time>
      </trkpt>
      <trkpt lat="46.11774" lon="6.45183">
        <ele>1224.86</ele>
        <time>2017-05-09T15:23:30Z</time>
      </trkpt>
      <trkpt lat="46.1176" lon="6.45163">
        <ele>1221.97</ele>
        <time>2017-05-09T15:23:38Z</time>
      </trkpt>
      <trkpt lat="46.11749" lon="6.45147">
        <ele>1220.05</ele>
        <time>2017-05-09T15:23:44Z</time>
      </trkpt>
      <trkpt lat="46.11735" lon="6.45136">
        <ele>1218.61</ele>
        <time>2017-05-09T15:23:49Z</time>
      </trkpt>
      <trkpt lat="46.11716" lon="6.45119">
        <ele>1215.24</ele>
        <time>2017-05-09T15:23:56Z</time>
      </trkpt>
      <trkpt lat="46.11699" lon="6.45096">
        <ele>1211.88</ele>
        <time>2017-05-09T15:24:05Z</time>
      </trkpt>
      <trkpt lat="46.11686" lon="6.45068">
        <ele>1209</ele>
        <time>2017-05-09T15:24:14Z</time>
      </trkpt>
      <trkpt lat="46.11678" lon="6.45057">
        <ele>1207.07</ele>
        <time>2017-05-09T15:24:19Z</time>
      </trkpt>
      <trkpt lat="46.11677" lon="6.45056">
        <ele>1207.07</ele>
        <time>2017-05-09T15:24:20Z</time>
      </trkpt>
      <trkpt lat="46.11675" lon="6.45056">
        <ele>1206.59</ele>
        <time>2017-05-09T15:24:21Z</time>
      </trkpt>
      <trkpt lat="46.11673" lon="6.45056">
        <ele>1206.59</ele>
        <time>2017-05-09T15:24:22Z</time>
      </trkpt>
      <trkpt lat="46.1167" lon="6.45056">
        <ele>1206.59</ele>
        <time>2017-05-09T15:24:23Z</time>
      </trkpt>
      <trkpt lat="46.11669" lon="6.45056">
        <ele>1206.59</ele>
        <time>2017-05-09T15:24:24Z</time>
      </trkpt>
      <trkpt lat="46.11666" lon="6.45055">
        <ele>1207.07</ele>
        <time>2017-05-09T15:24:28Z</time>
      </trkpt>
      <trkpt lat="46.11664" lon="6.45054">
        <ele>1207.07</ele>
        <time>2017-05-09T15:24:29Z</time>
      </trkpt>
      <trkpt lat="46.11662" lon="6.45054">
        <ele>1207.55</ele>
        <time>2017-05-09T15:24:30Z</time>
      </trkpt>
      <trkpt lat="46.1166" lon="6.45053">
        <ele>1208.03</ele>
        <time>2017-05-09T15:24:31Z</time>
      </trkpt>
      <trkpt lat="46.11659" lon="6.45052">
        <ele>1208.03</ele>
        <time>2017-05-09T15:24:32Z</time>
      </trkpt>
      <trkpt lat="46.11657" lon="6.45051">
        <ele>1208.51</ele>
        <time>2017-05-09T15:24:33Z</time>
      </trkpt>
      <trkpt lat="46.1165" lon="6.45049">
        <ele>1209.48</ele>
        <time>2017-05-09T15:24:37Z</time>
      </trkpt>
      <trkpt lat="46.11648" lon="6.45048">
        <ele>1210.44</ele>
        <time>2017-05-09T15:24:40Z</time>
      </trkpt>
      <trkpt lat="46.11646" lon="6.45048">
        <ele>1211.4</ele>
        <time>2017-05-09T15:24:43Z</time>
      </trkpt>
      <trkpt lat="46.11645" lon="6.45048">
        <ele>1211.88</ele>
        <time>2017-05-09T15:24:45Z</time>
      </trkpt>
      <trkpt lat="46.11642" lon="6.45049">
        <ele>1212.84</ele>
        <time>2017-05-09T15:24:48Z</time>
      </trkpt>
      <trkpt lat="46.1164" lon="6.4505">
        <ele>1213.32</ele>
        <time>2017-05-09T15:24:49Z</time>
      </trkpt>
      <trkpt lat="46.11639" lon="6.4505">
        <ele>1213.8</ele>
        <time>2017-05-09T15:24:50Z</time>
      </trkpt>
      <trkpt lat="46.11638" lon="6.4505">
        <ele>1213.8</ele>
        <time>2017-05-09T15:24:51Z</time>
      </trkpt>
      <trkpt lat="46.11636" lon="6.45049">
        <ele>1214.28</ele>
        <time>2017-05-09T15:24:52Z</time>
      </trkpt>
      <trkpt lat="46.11634" lon="6.45048">
        <ele>1214.28</ele>
        <time>2017-05-09T15:24:53Z</time>
      </trkpt>
      <trkpt lat="46.11632" lon="6.45049">
        <ele>1214.76</ele>
        <time>2017-05-09T15:24:54Z</time>
      </trkpt>
      <trkpt lat="46.11631" lon="6.45049">
        <ele>1214.76</ele>
        <time>2017-05-09T15:24:55Z</time>
      </trkpt>
      <trkpt lat="46.11629" lon="6.45049">
        <ele>1215.24</ele>
        <time>2017-05-09T15:24:56Z</time>
      </trkpt>
      <trkpt lat="46.11628" lon="6.45049">
        <ele>1215.72</ele>
        <time>2017-05-09T15:24:57Z</time>
      </trkpt>
      <trkpt lat="46.11613" lon="6.45045">
        <ele>1218.61</ele>
        <time>2017-05-09T15:25:07Z</time>
      </trkpt>
      <trkpt lat="46.1161" lon="6.45045">
        <ele>1219.57</ele>
        <time>2017-05-09T15:25:09Z</time>
      </trkpt>
      <trkpt lat="46.11609" lon="6.45045">
        <ele>1220.05</ele>
        <time>2017-05-09T15:25:10Z</time>
      </trkpt>
      <trkpt lat="46.11608" lon="6.45045">
        <ele>1220.53</ele>
        <time>2017-05-09T15:25:11Z</time>
      </trkpt>
      <trkpt lat="46.11606" lon="6.45044">
        <ele>1221.01</ele>
        <time>2017-05-09T15:25:12Z</time>
      </trkpt>
      <trkpt lat="46.11605" lon="6.45043">
        <ele>1221.01</ele>
        <time>2017-05-09T15:25:13Z</time>
      </trkpt>
      <trkpt lat="46.11603" lon="6.45043">
        <ele>1221.49</ele>
        <time>2017-05-09T15:25:14Z</time>
      </trkpt>
      <trkpt lat="46.11601" lon="6.45044">
        <ele>1221.97</ele>
        <time>2017-05-09T15:25:15Z</time>
      </trkpt>
      <trkpt lat="46.11599" lon="6.45044">
        <ele>1222.45</ele>
        <time>2017-05-09T15:25:16Z</time>
      </trkpt>
      <trkpt lat="46.11597" lon="6.45044">
        <ele>1222.93</ele>
        <time>2017-05-09T15:25:17Z</time>
      </trkpt>
      <trkpt lat="46.11596" lon="6.45044">
        <ele>1222.93</ele>
        <time>2017-05-09T15:25:18Z</time>
      </trkpt>
      <trkpt lat="46.11594" lon="6.45044">
        <ele>1223.42</ele>
        <time>2017-05-09T15:25:19Z</time>
      </trkpt>
      <trkpt lat="46.11593" lon="6.45045">
        <ele>1223.9</ele>
        <time>2017-05-09T15:25:20Z</time>
      </trkpt>
      <trkpt lat="46.11591" lon="6.45045">
        <ele>1224.38</ele>
        <time>2017-05-09T15:25:21Z</time>
      </trkpt>
      <trkpt lat="46.1159" lon="6.45046">
        <ele>1224.38</ele>
        <time>2017-05-09T15:25:22Z</time>
      </trkpt>
      <trkpt lat="46.11588" lon="6.45046">
        <ele>1224.86</ele>
        <time>2017-05-09T15:25:23Z</time>
      </trkpt>
      <trkpt lat="46.11587" lon="6.45047">
        <ele>1225.34</ele>
        <time>2017-05-09T15:25:24Z</time>
      </trkpt>
      <trkpt lat="46.11581" lon="6.45051">
        <ele>1227.26</ele>
        <time>2017-05-09T15:25:31Z</time>
      </trkpt>
      <trkpt lat="46.11575" lon="6.4505">
        <ele>1228.7</ele>
        <time>2017-05-09T15:25:35Z</time>
      </trkpt>
      <trkpt lat="46.11573" lon="6.4505">
        <ele>1229.18</ele>
        <time>2017-05-09T15:25:36Z</time>
      </trkpt>
      <trkpt lat="46.11572" lon="6.45052">
        <ele>1229.66</ele>
        <time>2017-05-09T15:25:37Z</time>
      </trkpt>
      <trkpt lat="46.11571" lon="6.45052">
        <ele>1230.62</ele>
        <time>2017-05-09T15:25:38Z</time>
      </trkpt>
      <trkpt lat="46.11569" lon="6.45052">
        <ele>1230.62</ele>
        <time>2017-05-09T15:25:39Z</time>
      </trkpt>
      <trkpt lat="46.11569" lon="6.45049">
        <ele>1231.59</ele>
        <time>2017-05-09T15:25:40Z</time>
      </trkpt>
      <trkpt lat="46.11567" lon="6.45048">
        <ele>1232.07</ele>
        <time>2017-05-09T15:25:42Z</time>
      </trkpt>
      <trkpt lat="46.11565" lon="6.45048">
        <ele>1232.07</ele>
        <time>2017-05-09T15:25:43Z</time>
      </trkpt>
      <trkpt lat="46.11563" lon="6.45048">
        <ele>1232.55</ele>
        <time>2017-05-09T15:25:44Z</time>
      </trkpt>
      <trkpt lat="46.11562" lon="6.45048">
        <ele>1233.03</ele>
        <time>2017-05-09T15:25:45Z</time>
      </trkpt>
      <trkpt lat="46.1156" lon="6.45047">
        <ele>1233.51</ele>
        <time>2017-05-09T15:25:46Z</time>
      </trkpt>
      <trkpt lat="46.11556" lon="6.45047">
        <ele>1233.99</ele>
        <time>2017-05-09T15:25:48Z</time>
      </trkpt>
      <trkpt lat="46.11554" lon="6.45046">
        <ele>1234.47</ele>
        <time>2017-05-09T15:25:49Z</time>
      </trkpt>
      <trkpt lat="46.11553" lon="6.45046">
        <ele>1234.95</ele>
        <time>2017-05-09T15:25:50Z</time>
      </trkpt>
      <trkpt lat="46.11551" lon="6.45046">
        <ele>1235.43</ele>
        <time>2017-05-09T15:25:51Z</time>
      </trkpt>
      <trkpt lat="46.1155" lon="6.45045">
        <ele>1235.43</ele>
        <time>2017-05-09T15:25:52Z</time>
      </trkpt>
      <trkpt lat="46.11549" lon="6.45045">
        <ele>1235.91</ele>
        <time>2017-05-09T15:25:53Z</time>
      </trkpt>
      <trkpt lat="46.11547" lon="6.45044">
        <ele>1236.87</ele>
        <time>2017-05-09T15:25:55Z</time>
      </trkpt>
      <trkpt lat="46.1154" lon="6.45037">
        <ele>1238.32</ele>
        <time>2017-05-09T15:26:02Z</time>
      </trkpt>
      <trkpt lat="46.11534" lon="6.45024">
        <ele>1241.2</ele>
        <time>2017-05-09T15:26:13Z</time>
      </trkpt>
      <trkpt lat="46.1153" lon="6.45011">
        <ele>1244.56</ele>
        <time>2017-05-09T15:26:24Z</time>
      </trkpt>
      <trkpt lat="46.11526" lon="6.44999">
        <ele>1247.45</ele>
        <time>2017-05-09T15:26:34Z</time>
      </trkpt>
      <trkpt lat="46.11518" lon="6.44991">
        <ele>1250.81</ele>
        <time>2017-05-09T15:26:44Z</time>
      </trkpt>
      <trkpt lat="46.11514" lon="6.44982">
        <ele>1253.7</ele>
        <time>2017-05-09T15:26:54Z</time>
      </trkpt>
      <trkpt lat="46.11511" lon="6.44976">
        <ele>1255.14</ele>
        <time>2017-05-09T15:26:58Z</time>
      </trkpt>
      <trkpt lat="46.11512" lon="6.44974">
        <ele>1255.62</ele>
        <time>2017-05-09T15:26:59Z</time>
      </trkpt>
      <trkpt lat="46.11503" lon="6.44958">
        <ele>1258.5</ele>
        <time>2017-05-09T15:27:10Z</time>
      </trkpt>
      <trkpt lat="46.11498" lon="6.44944">
        <ele>1260.91</ele>
        <time>2017-05-09T15:27:19Z</time>
      </trkpt>
      <trkpt lat="46.11498" lon="6.44942">
        <ele>1260.91</ele>
        <time>2017-05-09T15:27:20Z</time>
      </trkpt>
      <trkpt lat="46.11499" lon="6.4494">
        <ele>1261.39</ele>
        <time>2017-05-09T15:27:21Z</time>
      </trkpt>
      <trkpt lat="46.11499" lon="6.44937">
        <ele>1261.39</ele>
        <time>2017-05-09T15:27:22Z</time>
      </trkpt>
      <trkpt lat="46.11499" lon="6.44935">
        <ele>1261.87</ele>
        <time>2017-05-09T15:27:23Z</time>
      </trkpt>
      <trkpt lat="46.11499" lon="6.44933">
        <ele>1261.87</ele>
        <time>2017-05-09T15:27:24Z</time>
      </trkpt>
      <trkpt lat="46.115" lon="6.44931">
        <ele>1262.35</ele>
        <time>2017-05-09T15:27:25Z</time>
      </trkpt>
      <trkpt lat="46.11501" lon="6.44929">
        <ele>1262.83</ele>
        <time>2017-05-09T15:27:26Z</time>
      </trkpt>
      <trkpt lat="46.11508" lon="6.44916">
        <ele>1264.75</ele>
        <time>2017-05-09T15:27:33Z</time>
      </trkpt>
      <trkpt lat="46.11514" lon="6.44901">
        <ele>1267.64</ele>
        <time>2017-05-09T15:27:42Z</time>
      </trkpt>
      <trkpt lat="46.11514" lon="6.44899">
        <ele>1268.12</ele>
        <time>2017-05-09T15:27:43Z</time>
      </trkpt>
      <trkpt lat="46.11513" lon="6.44897">
        <ele>1268.12</ele>
        <time>2017-05-09T15:27:44Z</time>
      </trkpt>
      <trkpt lat="46.11514" lon="6.44895">
        <ele>1268.6</ele>
        <time>2017-05-09T15:27:45Z</time>
      </trkpt>
      <trkpt lat="46.11514" lon="6.44893">
        <ele>1268.6</ele>
        <time>2017-05-09T15:27:46Z</time>
      </trkpt>
      <trkpt lat="46.11515" lon="6.44882">
        <ele>1270.52</ele>
        <time>2017-05-09T15:27:53Z</time>
      </trkpt>
      <trkpt lat="46.11516" lon="6.44881">
        <ele>1271</ele>
        <time>2017-05-09T15:27:54Z</time>
      </trkpt>
      <trkpt lat="46.11517" lon="6.4488">
        <ele>1271</ele>
        <time>2017-05-09T15:27:55Z</time>
      </trkpt>
      <trkpt lat="46.11518" lon="6.44879">
        <ele>1271.48</ele>
        <time>2017-05-09T15:27:56Z</time>
      </trkpt>
      <trkpt lat="46.11519" lon="6.44877">
        <ele>1271.96</ele>
        <time>2017-05-09T15:27:57Z</time>
      </trkpt>
      <trkpt lat="46.1152" lon="6.44876">
        <ele>1271.96</ele>
        <time>2017-05-09T15:27:58Z</time>
      </trkpt>
      <trkpt lat="46.11521" lon="6.44875">
        <ele>1272.44</ele>
        <time>2017-05-09T15:27:59Z</time>
      </trkpt>
      <trkpt lat="46.11521" lon="6.44873">
        <ele>1272.92</ele>
        <time>2017-05-09T15:28:00Z</time>
      </trkpt>
      <trkpt lat="46.11522" lon="6.44872">
        <ele>1273.4</ele>
        <time>2017-05-09T15:28:01Z</time>
      </trkpt>
      <trkpt lat="46.11522" lon="6.4487">
        <ele>1273.4</ele>
        <time>2017-05-09T15:28:02Z</time>
      </trkpt>
      <trkpt lat="46.11523" lon="6.44868">
        <ele>1273.88</ele>
        <time>2017-05-09T15:28:03Z</time>
      </trkpt>
      <trkpt lat="46.11524" lon="6.44866">
        <ele>1273.88</ele>
        <time>2017-05-09T15:28:04Z</time>
      </trkpt>
      <trkpt lat="46.11525" lon="6.44865">
        <ele>1274.36</ele>
        <time>2017-05-09T15:28:05Z</time>
      </trkpt>
      <trkpt lat="46.11525" lon="6.44864">
        <ele>1274.36</ele>
        <time>2017-05-09T15:28:06Z</time>
      </trkpt>
      <trkpt lat="46.11527" lon="6.44853">
        <ele>1276.29</ele>
        <time>2017-05-09T15:28:12Z</time>
      </trkpt>
      <trkpt lat="46.11527" lon="6.44851">
        <ele>1276.77</ele>
        <time>2017-05-09T15:28:13Z</time>
      </trkpt>
      <trkpt lat="46.11526" lon="6.44849">
        <ele>1277.25</ele>
        <time>2017-05-09T15:28:14Z</time>
      </trkpt>
      <trkpt lat="46.11525" lon="6.44847">
        <ele>1277.25</ele>
        <time>2017-05-09T15:28:15Z</time>
      </trkpt>
      <trkpt lat="46.11525" lon="6.44845">
        <ele>1277.73</ele>
        <time>2017-05-09T15:28:16Z</time>
      </trkpt>
      <trkpt lat="46.11524" lon="6.44843">
        <ele>1278.21</ele>
        <time>2017-05-09T15:28:17Z</time>
      </trkpt>
      <trkpt lat="46.11524" lon="6.44841">
        <ele>1278.21</ele>
        <time>2017-05-09T15:28:18Z</time>
      </trkpt>
      <trkpt lat="46.11524" lon="6.4484">
        <ele>1278.69</ele>
        <time>2017-05-09T15:28:19Z</time>
      </trkpt>
      <trkpt lat="46.11524" lon="6.44835">
        <ele>1279.65</ele>
        <time>2017-05-09T15:28:22Z</time>
      </trkpt>
      <trkpt lat="46.11525" lon="6.44832">
        <ele>1280.13</ele>
        <time>2017-05-09T15:28:25Z</time>
      </trkpt>
      <trkpt lat="46.11525" lon="6.4483">
        <ele>1280.61</ele>
        <time>2017-05-09T15:28:26Z</time>
      </trkpt>
      <trkpt lat="46.11526" lon="6.44829">
        <ele>1281.09</ele>
        <time>2017-05-09T15:28:27Z</time>
      </trkpt>
      <trkpt lat="46.11536" lon="6.44813">
        <ele>1283.98</ele>
        <time>2017-05-09T15:28:37Z</time>
      </trkpt>
      <trkpt lat="46.11536" lon="6.44811">
        <ele>1283.98</ele>
        <time>2017-05-09T15:28:38Z</time>
      </trkpt>
      <trkpt lat="46.11536" lon="6.4481">
        <ele>1284.46</ele>
        <time>2017-05-09T15:28:39Z</time>
      </trkpt>
      <trkpt lat="46.11536" lon="6.44808">
        <ele>1284.94</ele>
        <time>2017-05-09T15:28:40Z</time>
      </trkpt>
      <trkpt lat="46.11537" lon="6.44806">
        <ele>1284.94</ele>
        <time>2017-05-09T15:28:41Z</time>
      </trkpt>
      <trkpt lat="46.11538" lon="6.44805">
        <ele>1285.42</ele>
        <time>2017-05-09T15:28:42Z</time>
      </trkpt>
      <trkpt lat="46.1154" lon="6.44804">
        <ele>1285.42</ele>
        <time>2017-05-09T15:28:43Z</time>
      </trkpt>
      <trkpt lat="46.11541" lon="6.44802">
        <ele>1285.9</ele>
        <time>2017-05-09T15:28:44Z</time>
      </trkpt>
      <trkpt lat="46.11541" lon="6.44801">
        <ele>1286.38</ele>
        <time>2017-05-09T15:28:45Z</time>
      </trkpt>
      <trkpt lat="46.11541" lon="6.44799">
        <ele>1286.38</ele>
        <time>2017-05-09T15:28:46Z</time>
      </trkpt>
      <trkpt lat="46.11541" lon="6.44791">
        <ele>1287.82</ele>
        <time>2017-05-09T15:28:50Z</time>
      </trkpt>
      <trkpt lat="46.11542" lon="6.44789">
        <ele>1288.3</ele>
        <time>2017-05-09T15:28:51Z</time>
      </trkpt>
      <trkpt lat="46.11543" lon="6.44788">
        <ele>1288.78</ele>
        <time>2017-05-09T15:28:52Z</time>
      </trkpt>
      <trkpt lat="46.11542" lon="6.44786">
        <ele>1288.78</ele>
        <time>2017-05-09T15:28:53Z</time>
      </trkpt>
      <trkpt lat="46.11542" lon="6.44784">
        <ele>1289.27</ele>
        <time>2017-05-09T15:28:54Z</time>
      </trkpt>
      <trkpt lat="46.11542" lon="6.44782">
        <ele>1289.27</ele>
        <time>2017-05-09T15:28:55Z</time>
      </trkpt>
      <trkpt lat="46.1154" lon="6.44761">
        <ele>1292.63</ele>
        <time>2017-05-09T15:29:05Z</time>
      </trkpt>
      <trkpt lat="46.1154" lon="6.44759">
        <ele>1292.63</ele>
        <time>2017-05-09T15:29:06Z</time>
      </trkpt>
      <trkpt lat="46.1154" lon="6.44758">
        <ele>1293.11</ele>
        <time>2017-05-09T15:29:07Z</time>
      </trkpt>
      <trkpt lat="46.11541" lon="6.44757">
        <ele>1293.59</ele>
        <time>2017-05-09T15:29:08Z</time>
      </trkpt>
      <trkpt lat="46.11541" lon="6.44756">
        <ele>1293.59</ele>
        <time>2017-05-09T15:29:09Z</time>
      </trkpt>
      <trkpt lat="46.11542" lon="6.44754">
        <ele>1294.07</ele>
        <time>2017-05-09T15:29:10Z</time>
      </trkpt>
      <trkpt lat="46.11542" lon="6.44753">
        <ele>1294.55</ele>
        <time>2017-05-09T15:29:11Z</time>
      </trkpt>
      <trkpt lat="46.11543" lon="6.44752">
        <ele>1295.03</ele>
        <time>2017-05-09T15:29:12Z</time>
      </trkpt>
      <trkpt lat="46.11544" lon="6.44751">
        <ele>1295.03</ele>
        <time>2017-05-09T15:29:13Z</time>
      </trkpt>
      <trkpt lat="46.11545" lon="6.44749">
        <ele>1295.51</ele>
        <time>2017-05-09T15:29:14Z</time>
      </trkpt>
      <trkpt lat="46.11547" lon="6.44736">
        <ele>1297.44</ele>
        <time>2017-05-09T15:29:21Z</time>
      </trkpt>
      <trkpt lat="46.11547" lon="6.44734">
        <ele>1297.92</ele>
        <time>2017-05-09T15:29:22Z</time>
      </trkpt>
      <trkpt lat="46.11546" lon="6.44729">
        <ele>1298.4</ele>
        <time>2017-05-09T15:29:24Z</time>
      </trkpt>
      <trkpt lat="46.11545" lon="6.44727">
        <ele>1298.4</ele>
        <time>2017-05-09T15:29:25Z</time>
      </trkpt>
      <trkpt lat="46.11545" lon="6.44723">
        <ele>1298.4</ele>
        <time>2017-05-09T15:29:27Z</time>
      </trkpt>
      <trkpt lat="46.11546" lon="6.4472">
        <ele>1298.88</ele>
        <time>2017-05-09T15:29:28Z</time>
      </trkpt>
      <trkpt lat="46.11546" lon="6.44719">
        <ele>1298.88</ele>
        <time>2017-05-09T15:29:29Z</time>
      </trkpt>
      <trkpt lat="46.11558" lon="6.44698">
        <ele>1302.24</ele>
        <time>2017-05-09T15:29:42Z</time>
      </trkpt>
      <trkpt lat="46.11573" lon="6.44678">
        <ele>1305.61</ele>
        <time>2017-05-09T15:29:56Z</time>
      </trkpt>
      <trkpt lat="46.11583" lon="6.44655">
        <ele>1308.49</ele>
        <time>2017-05-09T15:30:08Z</time>
      </trkpt>
      <trkpt lat="46.11583" lon="6.44645">
        <ele>1309.93</ele>
        <time>2017-05-09T15:30:13Z</time>
      </trkpt>
      <trkpt lat="46.11584" lon="6.44643">
        <ele>1309.93</ele>
        <time>2017-05-09T15:30:14Z</time>
      </trkpt>
      <trkpt lat="46.11585" lon="6.44642">
        <ele>1310.41</ele>
        <time>2017-05-09T15:30:15Z</time>
      </trkpt>
      <trkpt lat="46.11586" lon="6.4464">
        <ele>1310.41</ele>
        <time>2017-05-09T15:30:16Z</time>
      </trkpt>
      <trkpt lat="46.11586" lon="6.44639">
        <ele>1310.9</ele>
        <time>2017-05-09T15:30:17Z</time>
      </trkpt>
      <trkpt lat="46.11586" lon="6.44637">
        <ele>1310.9</ele>
        <time>2017-05-09T15:30:18Z</time>
      </trkpt>
      <trkpt lat="46.11587" lon="6.44635">
        <ele>1311.38</ele>
        <time>2017-05-09T15:30:19Z</time>
      </trkpt>
      <trkpt lat="46.11586" lon="6.44633">
        <ele>1311.38</ele>
        <time>2017-05-09T15:30:20Z</time>
      </trkpt>
      <trkpt lat="46.11586" lon="6.44631">
        <ele>1311.86</ele>
        <time>2017-05-09T15:30:21Z</time>
      </trkpt>
      <trkpt lat="46.11588" lon="6.44629">
        <ele>1312.34</ele>
        <time>2017-05-09T15:30:22Z</time>
      </trkpt>
      <trkpt lat="46.11589" lon="6.44628">
        <ele>1312.82</ele>
        <time>2017-05-09T15:30:23Z</time>
      </trkpt>
      <trkpt lat="46.1159" lon="6.44627">
        <ele>1312.82</ele>
        <time>2017-05-09T15:30:24Z</time>
      </trkpt>
      <trkpt lat="46.1159" lon="6.44626">
        <ele>1312.82</ele>
        <time>2017-05-09T15:30:25Z</time>
      </trkpt>
      <trkpt lat="46.11591" lon="6.44624">
        <ele>1313.3</ele>
        <time>2017-05-09T15:30:26Z</time>
      </trkpt>
      <trkpt lat="46.11592" lon="6.44622">
        <ele>1313.3</ele>
        <time>2017-05-09T15:30:27Z</time>
      </trkpt>
      <trkpt lat="46.11592" lon="6.4462">
        <ele>1313.78</ele>
        <time>2017-05-09T15:30:28Z</time>
      </trkpt>
      <trkpt lat="46.11592" lon="6.44618">
        <ele>1314.26</ele>
        <time>2017-05-09T15:30:29Z</time>
      </trkpt>
      <trkpt lat="46.11593" lon="6.44616">
        <ele>1314.26</ele>
        <time>2017-05-09T15:30:30Z</time>
      </trkpt>
      <trkpt lat="46.11593" lon="6.44614">
        <ele>1314.74</ele>
        <time>2017-05-09T15:30:31Z</time>
      </trkpt>
      <trkpt lat="46.11594" lon="6.44613">
        <ele>1315.22</ele>
        <time>2017-05-09T15:30:32Z</time>
      </trkpt>
      <trkpt lat="46.11594" lon="6.44612">
        <ele>1315.22</ele>
        <time>2017-05-09T15:30:33Z</time>
      </trkpt>
      <trkpt lat="46.11595" lon="6.4461">
        <ele>1315.7</ele>
        <time>2017-05-09T15:30:34Z</time>
      </trkpt>
      <trkpt lat="46.11607" lon="6.44594">
        <ele>1318.59</ele>
        <time>2017-05-09T15:30:46Z</time>
      </trkpt>
      <trkpt lat="46.11617" lon="6.4458">
        <ele>1320.99</ele>
        <time>2017-05-09T15:30:56Z</time>
      </trkpt>
      <trkpt lat="46.11618" lon="6.44578">
        <ele>1321.47</ele>
        <time>2017-05-09T15:30:57Z</time>
      </trkpt>
      <trkpt lat="46.1162" lon="6.44576">
        <ele>1321.95</ele>
        <time>2017-05-09T15:30:58Z</time>
      </trkpt>
      <trkpt lat="46.1162" lon="6.44575">
        <ele>1321.95</ele>
        <time>2017-05-09T15:30:59Z</time>
      </trkpt>
      <trkpt lat="46.11622" lon="6.44573">
        <ele>1322.43</ele>
        <time>2017-05-09T15:31:00Z</time>
      </trkpt>
      <trkpt lat="46.11623" lon="6.44571">
        <ele>1322.43</ele>
        <time>2017-05-09T15:31:01Z</time>
      </trkpt>
      <trkpt lat="46.11624" lon="6.4457">
        <ele>1322.91</ele>
        <time>2017-05-09T15:31:02Z</time>
      </trkpt>
      <trkpt lat="46.11626" lon="6.44565">
        <ele>1323.39</ele>
        <time>2017-05-09T15:31:05Z</time>
      </trkpt>
      <trkpt lat="46.11627" lon="6.44562">
        <ele>1323.87</ele>
        <time>2017-05-09T15:31:06Z</time>
      </trkpt>
      <trkpt lat="46.11627" lon="6.4456">
        <ele>1323.87</ele>
        <time>2017-05-09T15:31:07Z</time>
      </trkpt>
      <trkpt lat="46.11627" lon="6.44558">
        <ele>1324.35</ele>
        <time>2017-05-09T15:31:08Z</time>
      </trkpt>
      <trkpt lat="46.11628" lon="6.44556">
        <ele>1324.83</ele>
        <time>2017-05-09T15:31:09Z</time>
      </trkpt>
      <trkpt lat="46.11629" lon="6.44554">
        <ele>1324.83</ele>
        <time>2017-05-09T15:31:10Z</time>
      </trkpt>
      <trkpt lat="46.11629" lon="6.44553">
        <ele>1325.31</ele>
        <time>2017-05-09T15:31:11Z</time>
      </trkpt>
      <trkpt lat="46.1163" lon="6.44551">
        <ele>1325.8</ele>
        <time>2017-05-09T15:31:12Z</time>
      </trkpt>
      <trkpt lat="46.1164" lon="6.4454">
        <ele>1328.68</ele>
        <time>2017-05-09T15:31:22Z</time>
      </trkpt>
      <trkpt lat="46.11648" lon="6.44524">
        <ele>1331.56</ele>
        <time>2017-05-09T15:31:32Z</time>
      </trkpt>
      <trkpt lat="46.1165" lon="6.44519">
        <ele>1332.52</ele>
        <time>2017-05-09T15:31:35Z</time>
      </trkpt>
      <trkpt lat="46.11651" lon="6.44516">
        <ele>1333.49</ele>
        <time>2017-05-09T15:31:38Z</time>
      </trkpt>
      <trkpt lat="46.11652" lon="6.44514">
        <ele>1333.97</ele>
        <time>2017-05-09T15:31:39Z</time>
      </trkpt>
      <trkpt lat="46.11652" lon="6.44512">
        <ele>1334.45</ele>
        <time>2017-05-09T15:31:40Z</time>
      </trkpt>
      <trkpt lat="46.11655" lon="6.44496">
        <ele>1337.33</ele>
        <time>2017-05-09T15:31:50Z</time>
      </trkpt>
      <trkpt lat="46.11659" lon="6.44483">
        <ele>1340.7</ele>
        <time>2017-05-09T15:32:00Z</time>
      </trkpt>
      <trkpt lat="46.11665" lon="6.44471">
        <ele>1343.58</ele>
        <time>2017-05-09T15:32:10Z</time>
      </trkpt>
      <trkpt lat="46.11667" lon="6.44468">
        <ele>1345.02</ele>
        <time>2017-05-09T15:32:20Z</time>
      </trkpt>
      <trkpt lat="46.11668" lon="6.44469">
        <ele>1345.02</ele>
        <time>2017-05-09T15:32:25Z</time>
      </trkpt>
      <trkpt lat="46.11668" lon="6.44471">
        <ele>1345.02</ele>
        <time>2017-05-09T15:32:30Z</time>
      </trkpt>
      <trkpt lat="46.11668" lon="6.44472">
        <ele>1345.02</ele>
        <time>2017-05-09T15:32:33Z</time>
      </trkpt>
      <trkpt lat="46.11669" lon="6.44472">
        <ele>1345.02</ele>
        <time>2017-05-09T15:32:37Z</time>
      </trkpt>
      <trkpt lat="46.11668" lon="6.44473">
        <ele>1345.02</ele>
        <time>2017-05-09T15:32:41Z</time>
      </trkpt>
      <trkpt lat="46.11665" lon="6.44473">
        <ele>1345.02</ele>
        <time>2017-05-09T15:32:44Z</time>
      </trkpt>
      <trkpt lat="46.11663" lon="6.44473">
        <ele>1345.02</ele>
        <time>2017-05-09T15:32:46Z</time>
      </trkpt>
      <trkpt lat="46.11664" lon="6.44469">
        <ele>1345.02</ele>
        <time>2017-05-09T15:32:50Z</time>
      </trkpt>
      <trkpt lat="46.11668" lon="6.4446">
        <ele>1346.94</ele>
        <time>2017-05-09T15:32:56Z</time>
      </trkpt>
      <trkpt lat="46.11675" lon="6.4445">
        <ele>1349.83</ele>
        <time>2017-05-09T15:33:05Z</time>
      </trkpt>
      <trkpt lat="46.11677" lon="6.44445">
        <ele>1350.79</ele>
        <time>2017-05-09T15:33:09Z</time>
      </trkpt>
      <trkpt lat="46.11679" lon="6.44439">
        <ele>1353.19</ele>
        <time>2017-05-09T15:33:14Z</time>
      </trkpt>
      <trkpt lat="46.11681" lon="6.44433">
        <ele>1354.63</ele>
        <time>2017-05-09T15:33:18Z</time>
      </trkpt>
      <trkpt lat="46.11683" lon="6.44426">
        <ele>1356.56</ele>
        <time>2017-05-09T15:33:23Z</time>
      </trkpt>
      <trkpt lat="46.11684" lon="6.44418">
        <ele>1357.52</ele>
        <time>2017-05-09T15:33:27Z</time>
      </trkpt>
      <trkpt lat="46.11689" lon="6.44404">
        <ele>1360.4</ele>
        <time>2017-05-09T15:33:34Z</time>
      </trkpt>
      <trkpt lat="46.11691" lon="6.44397">
        <ele>1361.84</ele>
        <time>2017-05-09T15:33:38Z</time>
      </trkpt>
      <trkpt lat="46.11691" lon="6.44396">
        <ele>1362.33</ele>
        <time>2017-05-09T15:33:39Z</time>
      </trkpt>
      <trkpt lat="46.11692" lon="6.44394">
        <ele>1362.81</ele>
        <time>2017-05-09T15:33:40Z</time>
      </trkpt>
      <trkpt lat="46.11692" lon="6.44388">
        <ele>1363.77</ele>
        <time>2017-05-09T15:33:43Z</time>
      </trkpt>
      <trkpt lat="46.11692" lon="6.44386">
        <ele>1364.25</ele>
        <time>2017-05-09T15:33:44Z</time>
      </trkpt>
      <trkpt lat="46.11692" lon="6.44384">
        <ele>1364.73</ele>
        <time>2017-05-09T15:33:45Z</time>
      </trkpt>
      <trkpt lat="46.11691" lon="6.44383">
        <ele>1365.21</ele>
        <time>2017-05-09T15:33:46Z</time>
      </trkpt>
      <trkpt lat="46.11691" lon="6.44381">
        <ele>1365.69</ele>
        <time>2017-05-09T15:33:47Z</time>
      </trkpt>
      <trkpt lat="46.11691" lon="6.44379">
        <ele>1365.69</ele>
        <time>2017-05-09T15:33:48Z</time>
      </trkpt>
      <trkpt lat="46.11691" lon="6.44376">
        <ele>1366.17</ele>
        <time>2017-05-09T15:33:49Z</time>
      </trkpt>
      <trkpt lat="46.11692" lon="6.44374">
        <ele>1366.65</ele>
        <time>2017-05-09T15:33:50Z</time>
      </trkpt>
      <trkpt lat="46.11692" lon="6.44373">
        <ele>1367.13</ele>
        <time>2017-05-09T15:33:51Z</time>
      </trkpt>
      <trkpt lat="46.11693" lon="6.44372">
        <ele>1367.61</ele>
        <time>2017-05-09T15:33:52Z</time>
      </trkpt>
      <trkpt lat="46.11693" lon="6.44371">
        <ele>1367.61</ele>
        <time>2017-05-09T15:33:53Z</time>
      </trkpt>
      <trkpt lat="46.11694" lon="6.4437">
        <ele>1368.09</ele>
        <time>2017-05-09T15:33:54Z</time>
      </trkpt>
      <trkpt lat="46.11694" lon="6.44368">
        <ele>1368.57</ele>
        <time>2017-05-09T15:33:55Z</time>
      </trkpt>
      <trkpt lat="46.11694" lon="6.44367">
        <ele>1368.57</ele>
        <time>2017-05-09T15:33:56Z</time>
      </trkpt>
      <trkpt lat="46.11695" lon="6.44366">
        <ele>1368.57</ele>
        <time>2017-05-09T15:33:57Z</time>
      </trkpt>
      <trkpt lat="46.11695" lon="6.44364">
        <ele>1369.05</ele>
        <time>2017-05-09T15:33:58Z</time>
      </trkpt>
      <trkpt lat="46.11696" lon="6.44363">
        <ele>1370.02</ele>
        <time>2017-05-09T15:33:59Z</time>
      </trkpt>
      <trkpt lat="46.11696" lon="6.44362">
        <ele>1370.02</ele>
        <time>2017-05-09T15:34:00Z</time>
      </trkpt>
      <trkpt lat="46.11697" lon="6.44361">
        <ele>1370.5</ele>
        <time>2017-05-09T15:34:01Z</time>
      </trkpt>
      <trkpt lat="46.11698" lon="6.4436">
        <ele>1370.5</ele>
        <time>2017-05-09T15:34:02Z</time>
      </trkpt>
      <trkpt lat="46.11699" lon="6.44358">
        <ele>1370.98</ele>
        <time>2017-05-09T15:34:03Z</time>
      </trkpt>
      <trkpt lat="46.11699" lon="6.44358">
        <ele>1371.46</ele>
        <time>2017-05-09T15:34:04Z</time>
      </trkpt>
      <trkpt lat="46.11699" lon="6.44356">
        <ele>1371.46</ele>
        <time>2017-05-09T15:34:05Z</time>
      </trkpt>
      <trkpt lat="46.117" lon="6.44355">
        <ele>1371.94</ele>
        <time>2017-05-09T15:34:06Z</time>
      </trkpt>
      <trkpt lat="46.11701" lon="6.44354">
        <ele>1372.42</ele>
        <time>2017-05-09T15:34:07Z</time>
      </trkpt>
      <trkpt lat="46.11701" lon="6.44352">
        <ele>1372.42</ele>
        <time>2017-05-09T15:34:08Z</time>
      </trkpt>
      <trkpt lat="46.11702" lon="6.44351">
        <ele>1372.9</ele>
        <time>2017-05-09T15:34:09Z</time>
      </trkpt>
      <trkpt lat="46.11703" lon="6.4435">
        <ele>1373.86</ele>
        <time>2017-05-09T15:34:18Z</time>
      </trkpt>
      <trkpt lat="46.11704" lon="6.44348">
        <ele>1373.86</ele>
        <time>2017-05-09T15:34:26Z</time>
      </trkpt>
      <trkpt lat="46.11704" lon="6.44346">
        <ele>1374.34</ele>
        <time>2017-05-09T15:34:32Z</time>
      </trkpt>
      <trkpt lat="46.11704" lon="6.44345">
        <ele>1374.34</ele>
        <time>2017-05-09T15:34:36Z</time>
      </trkpt>
      <trkpt lat="46.11706" lon="6.44344">
        <ele>1374.34</ele>
        <time>2017-05-09T15:34:39Z</time>
      </trkpt>
      <trkpt lat="46.11707" lon="6.44342">
        <ele>1375.3</ele>
        <time>2017-05-09T15:34:44Z</time>
      </trkpt>
      <trkpt lat="46.11707" lon="6.44342">
        <ele>1375.3</ele>
        <time>2017-05-09T15:34:45Z</time>
      </trkpt>
      <trkpt lat="46.11707" lon="6.44338">
        <ele>1375.78</ele>
        <time>2017-05-09T15:34:49Z</time>
      </trkpt>
      <trkpt lat="46.11708" lon="6.44335">
        <ele>1375.78</ele>
        <time>2017-05-09T15:34:51Z</time>
      </trkpt>
      <trkpt lat="46.1171" lon="6.44326">
        <ele>1376.75</ele>
        <time>2017-05-09T15:34:56Z</time>
      </trkpt>
      <trkpt lat="46.1171" lon="6.44325">
        <ele>1376.75</ele>
        <time>2017-05-09T15:34:57Z</time>
      </trkpt>
      <trkpt lat="46.11711" lon="6.44319">
        <ele>1377.23</ele>
        <time>2017-05-09T15:35:04Z</time>
      </trkpt>
      <trkpt lat="46.11712" lon="6.44314">
        <ele>1378.19</ele>
        <time>2017-05-09T15:35:08Z</time>
      </trkpt>
      <trkpt lat="46.11713" lon="6.44312">
        <ele>1378.19</ele>
        <time>2017-05-09T15:35:09Z</time>
      </trkpt>
      <trkpt lat="46.11714" lon="6.4431">
        <ele>1378.19</ele>
        <time>2017-05-09T15:35:10Z</time>
      </trkpt>
      <trkpt lat="46.11716" lon="6.44308">
        <ele>1378.19</ele>
        <time>2017-05-09T15:35:11Z</time>
      </trkpt>
      <trkpt lat="46.11718" lon="6.44306">
        <ele>1378.19</ele>
        <time>2017-05-09T15:35:12Z</time>
      </trkpt>
      <trkpt lat="46.1172" lon="6.44305">
        <ele>1378.19</ele>
        <time>2017-05-09T15:35:13Z</time>
      </trkpt>
      <trkpt lat="46.1173" lon="6.44299">
        <ele>1379.15</ele>
        <time>2017-05-09T15:35:16Z</time>
      </trkpt>
      <trkpt lat="46.11739" lon="6.44293">
        <ele>1379.63</ele>
        <time>2017-05-09T15:35:20Z</time>
      </trkpt>
      <trkpt lat="46.11754" lon="6.44269">
        <ele>1380.11</ele>
        <time>2017-05-09T15:35:30Z</time>
      </trkpt>
      <trkpt lat="46.11757" lon="6.44259">
        <ele>1381.07</ele>
        <time>2017-05-09T15:35:35Z</time>
      </trkpt>
      <trkpt lat="46.11755" lon="6.44253">
        <ele>1381.55</ele>
        <time>2017-05-09T15:35:40Z</time>
      </trkpt>
      <trkpt lat="46.11755" lon="6.44252">
        <ele>1381.55</ele>
        <time>2017-05-09T15:35:43Z</time>
      </trkpt>
      <trkpt lat="46.11755" lon="6.44251">
        <ele>1382.03</ele>
        <time>2017-05-09T15:35:47Z</time>
      </trkpt>
      <trkpt lat="46.11755" lon="6.44251">
        <ele>1382.03</ele>
        <time>2017-05-09T15:35:50Z</time>
      </trkpt>
      <trkpt lat="46.11755" lon="6.44251">
        <ele>1382.03</ele>
        <time>2017-05-09T15:35:53Z</time>
      </trkpt>
      <trkpt lat="46.11755" lon="6.44252">
        <ele>1382.03</ele>
        <time>2017-05-09T15:35:59Z</time>
      </trkpt>
      <trkpt lat="46.11756" lon="6.44252">
        <ele>1382.03</ele>
        <time>2017-05-09T15:36:13Z</time>
      </trkpt>
      <trkpt lat="46.11755" lon="6.44252">
        <ele>1382.03</ele>
        <time>2017-05-09T15:36:19Z</time>
      </trkpt>
      <trkpt lat="46.11755" lon="6.44252">
        <ele>1381.07</ele>
        <time>2017-05-09T15:36:24Z</time>
      </trkpt>
      <trkpt lat="46.11755" lon="6.44251">
        <ele>1382.03</ele>
        <time>2017-05-09T15:36:26Z</time>
      </trkpt>
      <trkpt lat="46.11755" lon="6.44251">
        <ele>1382.03</ele>
        <time>2017-05-09T15:36:31Z</time>
      </trkpt>
      <trkpt lat="46.11756" lon="6.4425">
        <ele>1382.51</ele>
        <time>2017-05-09T15:36:39Z</time>
      </trkpt>
      <trkpt lat="46.11756" lon="6.44251">
        <ele>1382.03</ele>
        <time>2017-05-09T15:36:41Z</time>
      </trkpt>
      <trkpt lat="46.1175" lon="6.44253">
        <ele>1382.99</ele>
        <time>2017-05-09T15:37:04Z</time>
      </trkpt>
      <trkpt lat="46.11749" lon="6.44253">
        <ele>1382.99</ele>
        <time>2017-05-09T15:37:05Z</time>
      </trkpt>
      <trkpt lat="46.11745" lon="6.4426">
        <ele>1383.96</ele>
        <time>2017-05-09T15:37:10Z</time>
      </trkpt>
      <trkpt lat="46.11739" lon="6.44266">
        <ele>1385.4</ele>
        <time>2017-05-09T15:37:14Z</time>
      </trkpt>
      <trkpt lat="46.11736" lon="6.44268">
        <ele>1385.4</ele>
        <time>2017-05-09T15:37:16Z</time>
      </trkpt>
      <trkpt lat="46.11732" lon="6.44268">
        <ele>1385.88</ele>
        <time>2017-05-09T15:37:18Z</time>
      </trkpt>
      <trkpt lat="46.11729" lon="6.44267">
        <ele>1386.84</ele>
        <time>2017-05-09T15:37:20Z</time>
      </trkpt>
      <trkpt lat="46.11728" lon="6.44266">
        <ele>1386.84</ele>
        <time>2017-05-09T15:37:21Z</time>
      </trkpt>
      <trkpt lat="46.11726" lon="6.44265">
        <ele>1387.32</ele>
        <time>2017-05-09T15:37:22Z</time>
      </trkpt>
      <trkpt lat="46.11724" lon="6.44263">
        <ele>1387.8</ele>
        <time>2017-05-09T15:37:23Z</time>
      </trkpt>
      <trkpt lat="46.11723" lon="6.44261">
        <ele>1387.8</ele>
        <time>2017-05-09T15:37:24Z</time>
      </trkpt>
      <trkpt lat="46.1172" lon="6.44257">
        <ele>1388.76</ele>
        <time>2017-05-09T15:37:26Z</time>
      </trkpt>
      <trkpt lat="46.1172" lon="6.44254">
        <ele>1388.76</ele>
        <time>2017-05-09T15:37:27Z</time>
      </trkpt>
      <trkpt lat="46.11719" lon="6.44246">
        <ele>1389.72</ele>
        <time>2017-05-09T15:37:30Z</time>
      </trkpt>
      <trkpt lat="46.11719" lon="6.44239">
        <ele>1389.72</ele>
        <time>2017-05-09T15:37:33Z</time>
      </trkpt>
      <trkpt lat="46.11719" lon="6.44237">
        <ele>1389.72</ele>
        <time>2017-05-09T15:37:34Z</time>
      </trkpt>
      <trkpt lat="46.11719" lon="6.44234">
        <ele>1390.2</ele>
        <time>2017-05-09T15:37:35Z</time>
      </trkpt>
      <trkpt lat="46.11719" lon="6.44231">
        <ele>1390.2</ele>
        <time>2017-05-09T15:37:36Z</time>
      </trkpt>
      <trkpt lat="46.11719" lon="6.44228">
        <ele>1391.17</ele>
        <time>2017-05-09T15:37:37Z</time>
      </trkpt>
      <trkpt lat="46.11719" lon="6.44223">
        <ele>1391.65</ele>
        <time>2017-05-09T15:37:39Z</time>
      </trkpt>
      <trkpt lat="46.11719" lon="6.4422">
        <ele>1392.13</ele>
        <time>2017-05-09T15:37:40Z</time>
      </trkpt>
      <trkpt lat="46.11719" lon="6.44217">
        <ele>1392.13</ele>
        <time>2017-05-09T15:37:41Z</time>
      </trkpt>
      <trkpt lat="46.11719" lon="6.44215">
        <ele>1392.61</ele>
        <time>2017-05-09T15:37:42Z</time>
      </trkpt>
      <trkpt lat="46.11719" lon="6.44212">
        <ele>1393.09</ele>
        <time>2017-05-09T15:37:43Z</time>
      </trkpt>
      <trkpt lat="46.11718" lon="6.4421">
        <ele>1393.57</ele>
        <time>2017-05-09T15:37:44Z</time>
      </trkpt>
      <trkpt lat="46.11718" lon="6.44208">
        <ele>1394.05</ele>
        <time>2017-05-09T15:37:45Z</time>
      </trkpt>
      <trkpt lat="46.11718" lon="6.44205">
        <ele>1394.53</ele>
        <time>2017-05-09T15:37:46Z</time>
      </trkpt>
      <trkpt lat="46.11718" lon="6.44194">
        <ele>1395.97</ele>
        <time>2017-05-09T15:37:51Z</time>
      </trkpt>
      <trkpt lat="46.11716" lon="6.44185">
        <ele>1396.93</ele>
        <time>2017-05-09T15:37:55Z</time>
      </trkpt>
      <trkpt lat="46.11714" lon="6.44175">
        <ele>1397.89</ele>
        <time>2017-05-09T15:38:08Z</time>
      </trkpt>
      <trkpt lat="46.11714" lon="6.44175">
        <ele>1397.89</ele>
        <time>2017-05-09T15:38:13Z</time>
      </trkpt>
      <trkpt lat="46.11715" lon="6.44175">
        <ele>1397.89</ele>
        <time>2017-05-09T15:38:18Z</time>
      </trkpt>
      <trkpt lat="46.11709" lon="6.44167">
        <ele>1399.82</ele>
        <time>2017-05-09T15:38:31Z</time>
      </trkpt>
      <trkpt lat="46.11704" lon="6.44161">
        <ele>1401.26</ele>
        <time>2017-05-09T15:38:39Z</time>
      </trkpt>
      <trkpt lat="46.11703" lon="6.44161">
        <ele>1401.26</ele>
        <time>2017-05-09T15:38:40Z</time>
      </trkpt>
      <trkpt lat="46.11693" lon="6.44154">
        <ele>1404.62</ele>
        <time>2017-05-09T15:38:51Z</time>
      </trkpt>
      <trkpt lat="46.11689" lon="6.44156">
        <ele>1405.58</ele>
        <time>2017-05-09T15:38:54Z</time>
      </trkpt>
      <trkpt lat="46.11685" lon="6.44158">
        <ele>1407.03</ele>
        <time>2017-05-09T15:38:58Z</time>
      </trkpt>
      <trkpt lat="46.11677" lon="6.44162">
        <ele>1408.47</ele>
        <time>2017-05-09T15:39:03Z</time>
      </trkpt>
      <trkpt lat="46.1167" lon="6.44165">
        <ele>1410.39</ele>
        <time>2017-05-09T15:39:09Z</time>
      </trkpt>
      <trkpt lat="46.11668" lon="6.44167">
        <ele>1411.35</ele>
        <time>2017-05-09T15:39:11Z</time>
      </trkpt>
      <trkpt lat="46.11667" lon="6.44167">
        <ele>1411.83</ele>
        <time>2017-05-09T15:39:12Z</time>
      </trkpt>
      <trkpt lat="46.11665" lon="6.44167">
        <ele>1412.31</ele>
        <time>2017-05-09T15:39:13Z</time>
      </trkpt>
      <trkpt lat="46.11664" lon="6.44165">
        <ele>1412.79</ele>
        <time>2017-05-09T15:39:14Z</time>
      </trkpt>
      <trkpt lat="46.11663" lon="6.44164">
        <ele>1412.79</ele>
        <time>2017-05-09T15:39:15Z</time>
      </trkpt>
      <trkpt lat="46.11663" lon="6.44162">
        <ele>1412.79</ele>
        <time>2017-05-09T15:39:16Z</time>
      </trkpt>
      <trkpt lat="46.11662" lon="6.4416">
        <ele>1413.28</ele>
        <time>2017-05-09T15:39:17Z</time>
      </trkpt>
      <trkpt lat="46.11661" lon="6.44157">
        <ele>1413.28</ele>
        <time>2017-05-09T15:39:18Z</time>
      </trkpt>
      <trkpt lat="46.1166" lon="6.44155">
        <ele>1413.76</ele>
        <time>2017-05-09T15:39:19Z</time>
      </trkpt>
      <trkpt lat="46.11659" lon="6.44153">
        <ele>1414.24</ele>
        <time>2017-05-09T15:39:20Z</time>
      </trkpt>
      <trkpt lat="46.11658" lon="6.44151">
        <ele>1414.24</ele>
        <time>2017-05-09T15:39:21Z</time>
      </trkpt>
      <trkpt lat="46.11658" lon="6.44149">
        <ele>1414.24</ele>
        <time>2017-05-09T15:39:22Z</time>
      </trkpt>
      <trkpt lat="46.11657" lon="6.44146">
        <ele>1414.72</ele>
        <time>2017-05-09T15:39:23Z</time>
      </trkpt>
      <trkpt lat="46.11655" lon="6.44131">
        <ele>1417.6</ele>
        <time>2017-05-09T15:39:31Z</time>
      </trkpt>
      <trkpt lat="46.11654" lon="6.44129">
        <ele>1417.6</ele>
        <time>2017-05-09T15:39:32Z</time>
      </trkpt>
      <trkpt lat="46.11648" lon="6.44114">
        <ele>1420.97</ele>
        <time>2017-05-09T15:39:42Z</time>
      </trkpt>
      <trkpt lat="46.11643" lon="6.44102">
        <ele>1423.85</ele>
        <time>2017-05-09T15:39:51Z</time>
      </trkpt>
      <trkpt lat="46.11636" lon="6.44082">
        <ele>1427.21</ele>
        <time>2017-05-09T15:40:02Z</time>
      </trkpt>
      <trkpt lat="46.11628" lon="6.44066">
        <ele>1428.66</ele>
        <time>2017-05-09T15:40:10Z</time>
      </trkpt>
      <trkpt lat="46.11628" lon="6.44064">
        <ele>1428.66</ele>
        <time>2017-05-09T15:40:11Z</time>
      </trkpt>
      <trkpt lat="46.11627" lon="6.44062">
        <ele>1428.66</ele>
        <time>2017-05-09T15:40:12Z</time>
      </trkpt>
      <trkpt lat="46.11626" lon="6.4406">
        <ele>1429.14</ele>
        <time>2017-05-09T15:40:13Z</time>
      </trkpt>
      <trkpt lat="46.11625" lon="6.44058">
        <ele>1429.62</ele>
        <time>2017-05-09T15:40:14Z</time>
      </trkpt>
      <trkpt lat="46.11624" lon="6.44056">
        <ele>1429.62</ele>
        <time>2017-05-09T15:40:15Z</time>
      </trkpt>
      <trkpt lat="46.11623" lon="6.44055">
        <ele>1430.1</ele>
        <time>2017-05-09T15:40:16Z</time>
      </trkpt>
      <trkpt lat="46.11622" lon="6.44053">
        <ele>1430.58</ele>
        <time>2017-05-09T15:40:17Z</time>
      </trkpt>
      <trkpt lat="46.11621" lon="6.44052">
        <ele>1430.58</ele>
        <time>2017-05-09T15:40:18Z</time>
      </trkpt>
      <trkpt lat="46.1162" lon="6.4405">
        <ele>1431.06</ele>
        <time>2017-05-09T15:40:19Z</time>
      </trkpt>
      <trkpt lat="46.11619" lon="6.44049">
        <ele>1431.54</ele>
        <time>2017-05-09T15:40:20Z</time>
      </trkpt>
      <trkpt lat="46.11619" lon="6.44048">
        <ele>1432.02</ele>
        <time>2017-05-09T15:40:21Z</time>
      </trkpt>
      <trkpt lat="46.11611" lon="6.4403">
        <ele>1435.39</ele>
        <time>2017-05-09T15:40:32Z</time>
      </trkpt>
      <trkpt lat="46.11604" lon="6.44014">
        <ele>1438.27</ele>
        <time>2017-05-09T15:40:42Z</time>
      </trkpt>
      <trkpt lat="46.11596" lon="6.44">
        <ele>1441.63</ele>
        <time>2017-05-09T15:40:52Z</time>
      </trkpt>
      <trkpt lat="46.11588" lon="6.43993">
        <ele>1444.04</ele>
        <time>2017-05-09T15:41:01Z</time>
      </trkpt>
      <trkpt lat="46.11587" lon="6.43994">
        <ele>1444.52</ele>
        <time>2017-05-09T15:41:02Z</time>
      </trkpt>
      <trkpt lat="46.11586" lon="6.43995">
        <ele>1445</ele>
        <time>2017-05-09T15:41:03Z</time>
      </trkpt>
      <trkpt lat="46.11586" lon="6.43996">
        <ele>1445</ele>
        <time>2017-05-09T15:41:04Z</time>
      </trkpt>
      <trkpt lat="46.11585" lon="6.43997">
        <ele>1445.48</ele>
        <time>2017-05-09T15:41:05Z</time>
      </trkpt>
      <trkpt lat="46.11585" lon="6.43999">
        <ele>1445.96</ele>
        <time>2017-05-09T15:41:06Z</time>
      </trkpt>
      <trkpt lat="46.11585" lon="6.44001">
        <ele>1446.44</ele>
        <time>2017-05-09T15:41:07Z</time>
      </trkpt>
      <trkpt lat="46.11584" lon="6.44003">
        <ele>1446.92</ele>
        <time>2017-05-09T15:41:08Z</time>
      </trkpt>
      <trkpt lat="46.11583" lon="6.44005">
        <ele>1447.4</ele>
        <time>2017-05-09T15:41:09Z</time>
      </trkpt>
      <trkpt lat="46.11583" lon="6.44008">
        <ele>1447.4</ele>
        <time>2017-05-09T15:41:10Z</time>
      </trkpt>
      <trkpt lat="46.11583" lon="6.4401">
        <ele>1447.88</ele>
        <time>2017-05-09T15:41:11Z</time>
      </trkpt>
      <trkpt lat="46.11583" lon="6.44012">
        <ele>1447.88</ele>
        <time>2017-05-09T15:41:12Z</time>
      </trkpt>
      <trkpt lat="46.11578" lon="6.44037">
        <ele>1450.77</ele>
        <time>2017-05-09T15:41:23Z</time>
      </trkpt>
      <trkpt lat="46.11571" lon="6.44051">
        <ele>1453.65</ele>
        <time>2017-05-09T15:41:33Z</time>
      </trkpt>
      <trkpt lat="46.1157" lon="6.44052">
        <ele>1454.13</ele>
        <time>2017-05-09T15:41:34Z</time>
      </trkpt>
      <trkpt lat="46.11569" lon="6.44052">
        <ele>1454.61</ele>
        <time>2017-05-09T15:41:36Z</time>
      </trkpt>
      <trkpt lat="46.11568" lon="6.44053">
        <ele>1455.09</ele>
        <time>2017-05-09T15:41:37Z</time>
      </trkpt>
      <trkpt lat="46.11567" lon="6.44055">
        <ele>1455.57</ele>
        <time>2017-05-09T15:41:39Z</time>
      </trkpt>
      <trkpt lat="46.11566" lon="6.44055">
        <ele>1456.05</ele>
        <time>2017-05-09T15:41:40Z</time>
      </trkpt>
      <trkpt lat="46.11562" lon="6.44057">
        <ele>1457.02</ele>
        <time>2017-05-09T15:41:44Z</time>
      </trkpt>
      <trkpt lat="46.11558" lon="6.44057">
        <ele>1457.5</ele>
        <time>2017-05-09T15:41:48Z</time>
      </trkpt>
      <trkpt lat="46.11557" lon="6.44056">
        <ele>1457.5</ele>
        <time>2017-05-09T15:41:49Z</time>
      </trkpt>
      <trkpt lat="46.11556" lon="6.44055">
        <ele>1457.98</ele>
        <time>2017-05-09T15:41:50Z</time>
      </trkpt>
      <trkpt lat="46.11555" lon="6.44054">
        <ele>1458.94</ele>
        <time>2017-05-09T15:41:51Z</time>
      </trkpt>
      <trkpt lat="46.11554" lon="6.44054">
        <ele>1459.42</ele>
        <time>2017-05-09T15:41:52Z</time>
      </trkpt>
      <trkpt lat="46.11548" lon="6.44046">
        <ele>1462.78</ele>
        <time>2017-05-09T15:41:59Z</time>
      </trkpt>
      <trkpt lat="46.11543" lon="6.44041">
        <ele>1464.23</ele>
        <time>2017-05-09T15:42:04Z</time>
      </trkpt>
      <trkpt lat="46.11539" lon="6.44037">
        <ele>1465.67</ele>
        <time>2017-05-09T15:42:10Z</time>
      </trkpt>
      <trkpt lat="46.11537" lon="6.44036">
        <ele>1466.15</ele>
        <time>2017-05-09T15:42:11Z</time>
      </trkpt>
      <trkpt lat="46.11536" lon="6.44035">
        <ele>1466.63</ele>
        <time>2017-05-09T15:42:12Z</time>
      </trkpt>
      <trkpt lat="46.11535" lon="6.44034">
        <ele>1467.11</ele>
        <time>2017-05-09T15:42:13Z</time>
      </trkpt>
      <trkpt lat="46.11534" lon="6.44033">
        <ele>1467.11</ele>
        <time>2017-05-09T15:42:14Z</time>
      </trkpt>
      <trkpt lat="46.11533" lon="6.44032">
        <ele>1467.11</ele>
        <time>2017-05-09T15:42:15Z</time>
      </trkpt>
      <trkpt lat="46.11532" lon="6.4403">
        <ele>1467.59</ele>
        <time>2017-05-09T15:42:16Z</time>
      </trkpt>
      <trkpt lat="46.11531" lon="6.44029">
        <ele>1468.07</ele>
        <time>2017-05-09T15:42:17Z</time>
      </trkpt>
      <trkpt lat="46.1153" lon="6.44028">
        <ele>1468.07</ele>
        <time>2017-05-09T15:42:18Z</time>
      </trkpt>
      <trkpt lat="46.11529" lon="6.44028">
        <ele>1469.03</ele>
        <time>2017-05-09T15:42:19Z</time>
      </trkpt>
      <trkpt lat="46.11528" lon="6.44027">
        <ele>1469.03</ele>
        <time>2017-05-09T15:42:20Z</time>
      </trkpt>
      <trkpt lat="46.11527" lon="6.44026">
        <ele>1469.51</ele>
        <time>2017-05-09T15:42:21Z</time>
      </trkpt>
      <trkpt lat="46.11526" lon="6.44025">
        <ele>1469.51</ele>
        <time>2017-05-09T15:42:22Z</time>
      </trkpt>
      <trkpt lat="46.11525" lon="6.44024">
        <ele>1469.99</ele>
        <time>2017-05-09T15:42:23Z</time>
      </trkpt>
      <trkpt lat="46.11519" lon="6.44019">
        <ele>1472.4</ele>
        <time>2017-05-09T15:42:30Z</time>
      </trkpt>
      <trkpt lat="46.11518" lon="6.44018">
        <ele>1472.4</ele>
        <time>2017-05-09T15:42:31Z</time>
      </trkpt>
      <trkpt lat="46.11517" lon="6.44017">
        <ele>1472.4</ele>
        <time>2017-05-09T15:42:32Z</time>
      </trkpt>
      <trkpt lat="46.11516" lon="6.44016">
        <ele>1472.88</ele>
        <time>2017-05-09T15:42:33Z</time>
      </trkpt>
      <trkpt lat="46.11516" lon="6.44015">
        <ele>1473.36</ele>
        <time>2017-05-09T15:42:34Z</time>
      </trkpt>
      <trkpt lat="46.11515" lon="6.44014">
        <ele>1473.84</ele>
        <time>2017-05-09T15:42:35Z</time>
      </trkpt>
      <trkpt lat="46.11514" lon="6.44013">
        <ele>1474.32</ele>
        <time>2017-05-09T15:42:36Z</time>
      </trkpt>
      <trkpt lat="46.11513" lon="6.44012">
        <ele>1474.32</ele>
        <time>2017-05-09T15:42:37Z</time>
      </trkpt>
      <trkpt lat="46.11513" lon="6.44011">
        <ele>1474.8</ele>
        <time>2017-05-09T15:42:38Z</time>
      </trkpt>
      <trkpt lat="46.11512" lon="6.4401">
        <ele>1474.8</ele>
        <time>2017-05-09T15:42:39Z</time>
      </trkpt>
      <trkpt lat="46.11508" lon="6.44006">
        <ele>1476.72</ele>
        <time>2017-05-09T15:42:44Z</time>
      </trkpt>
      <trkpt lat="46.11499" lon="6.43994">
        <ele>1478.65</ele>
        <time>2017-05-09T15:43:01Z</time>
      </trkpt>
      <trkpt lat="46.11497" lon="6.43993">
        <ele>1479.61</ele>
        <time>2017-05-09T15:43:03Z</time>
      </trkpt>
      <trkpt lat="46.11494" lon="6.4399">
        <ele>1480.57</ele>
        <time>2017-05-09T15:43:08Z</time>
      </trkpt>
      <trkpt lat="46.11493" lon="6.4399">
        <ele>1480.57</ele>
        <time>2017-05-09T15:43:09Z</time>
      </trkpt>
      <trkpt lat="46.1149" lon="6.43988">
        <ele>1482.01</ele>
        <time>2017-05-09T15:43:18Z</time>
      </trkpt>
      <trkpt lat="46.11488" lon="6.43987">
        <ele>1482.97</ele>
        <time>2017-05-09T15:43:22Z</time>
      </trkpt>
      <trkpt lat="46.11488" lon="6.43987">
        <ele>1482.97</ele>
        <time>2017-05-09T15:43:28Z</time>
      </trkpt>
      <trkpt lat="46.11488" lon="6.43988">
        <ele>1482.97</ele>
        <time>2017-05-09T15:43:32Z</time>
      </trkpt>
      <trkpt lat="46.11488" lon="6.43988">
        <ele>1482.97</ele>
        <time>2017-05-09T15:43:35Z</time>
      </trkpt>
      <trkpt lat="46.11488" lon="6.43987">
        <ele>1482.97</ele>
        <time>2017-05-09T15:43:39Z</time>
      </trkpt>
      <trkpt lat="46.11488" lon="6.43988">
        <ele>1483.45</ele>
        <time>2017-05-09T15:43:43Z</time>
      </trkpt>
      <trkpt lat="46.11486" lon="6.43988">
        <ele>1483.45</ele>
        <time>2017-05-09T15:43:47Z</time>
      </trkpt>
      <trkpt lat="46.11484" lon="6.43987">
        <ele>1483.45</ele>
        <time>2017-05-09T15:43:52Z</time>
      </trkpt>
      <trkpt lat="46.11484" lon="6.43986">
        <ele>1482.97</ele>
        <time>2017-05-09T15:43:55Z</time>
      </trkpt>
      <trkpt lat="46.11484" lon="6.43987">
        <ele>1482.97</ele>
        <time>2017-05-09T15:44:00Z</time>
      </trkpt>
      <trkpt lat="46.11482" lon="6.43983">
        <ele>1483.45</ele>
        <time>2017-05-09T15:44:06Z</time>
      </trkpt>
      <trkpt lat="46.11481" lon="6.43981">
        <ele>1483.93</ele>
        <time>2017-05-09T15:44:07Z</time>
      </trkpt>
      <trkpt lat="46.11481" lon="6.43979">
        <ele>1484.41</ele>
        <time>2017-05-09T15:44:08Z</time>
      </trkpt>
      <trkpt lat="46.11481" lon="6.43976">
        <ele>1484.41</ele>
        <time>2017-05-09T15:44:09Z</time>
      </trkpt>
      <trkpt lat="46.11481" lon="6.43973">
        <ele>1484.89</ele>
        <time>2017-05-09T15:44:10Z</time>
      </trkpt>
      <trkpt lat="46.11481" lon="6.4397">
        <ele>1484.89</ele>
        <time>2017-05-09T15:44:11Z</time>
      </trkpt>
      <trkpt lat="46.11481" lon="6.43968">
        <ele>1484.89</ele>
        <time>2017-05-09T15:44:12Z</time>
      </trkpt>
      <trkpt lat="46.11482" lon="6.43965">
        <ele>1485.37</ele>
        <time>2017-05-09T15:44:13Z</time>
      </trkpt>
      <trkpt lat="46.11482" lon="6.43963">
        <ele>1485.37</ele>
        <time>2017-05-09T15:44:14Z</time>
      </trkpt>
      <trkpt lat="46.11483" lon="6.4396">
        <ele>1485.37</ele>
        <time>2017-05-09T15:44:15Z</time>
      </trkpt>
      <trkpt lat="46.11484" lon="6.43958">
        <ele>1485.85</ele>
        <time>2017-05-09T15:44:16Z</time>
      </trkpt>
      <trkpt lat="46.11484" lon="6.43951">
        <ele>1487.3</ele>
        <time>2017-05-09T15:44:19Z</time>
      </trkpt>
      <trkpt lat="46.11484" lon="6.43943">
        <ele>1488.26</ele>
        <time>2017-05-09T15:44:22Z</time>
      </trkpt>
      <trkpt lat="46.11484" lon="6.43938">
        <ele>1489.22</ele>
        <time>2017-05-09T15:44:24Z</time>
      </trkpt>
      <trkpt lat="46.11483" lon="6.43936">
        <ele>1489.22</ele>
        <time>2017-05-09T15:44:25Z</time>
      </trkpt>
      <trkpt lat="46.11482" lon="6.43935">
        <ele>1489.22</ele>
        <time>2017-05-09T15:44:26Z</time>
      </trkpt>
      <trkpt lat="46.11482" lon="6.43933">
        <ele>1489.22</ele>
        <time>2017-05-09T15:44:27Z</time>
      </trkpt>
      <trkpt lat="46.11481" lon="6.43932">
        <ele>1489.7</ele>
        <time>2017-05-09T15:44:28Z</time>
      </trkpt>
      <trkpt lat="46.11481" lon="6.4393">
        <ele>1490.18</ele>
        <time>2017-05-09T15:44:29Z</time>
      </trkpt>
      <trkpt lat="46.1148" lon="6.43928">
        <ele>1490.66</ele>
        <time>2017-05-09T15:44:30Z</time>
      </trkpt>
      <trkpt lat="46.1148" lon="6.43926">
        <ele>1491.14</ele>
        <time>2017-05-09T15:44:31Z</time>
      </trkpt>
      <trkpt lat="46.11479" lon="6.43924">
        <ele>1491.62</ele>
        <time>2017-05-09T15:44:32Z</time>
      </trkpt>
      <trkpt lat="46.11479" lon="6.43922">
        <ele>1492.1</ele>
        <time>2017-05-09T15:44:33Z</time>
      </trkpt>
      <trkpt lat="46.11477" lon="6.43916">
        <ele>1493.55</ele>
        <time>2017-05-09T15:44:36Z</time>
      </trkpt>
      <trkpt lat="46.11477" lon="6.43914">
        <ele>1493.55</ele>
        <time>2017-05-09T15:44:37Z</time>
      </trkpt>
      <trkpt lat="46.11477" lon="6.4391">
        <ele>1494.03</ele>
        <time>2017-05-09T15:44:39Z</time>
      </trkpt>
      <trkpt lat="46.11476" lon="6.43908">
        <ele>1494.99</ele>
        <time>2017-05-09T15:44:40Z</time>
      </trkpt>
      <trkpt lat="46.11475" lon="6.43907">
        <ele>1494.99</ele>
        <time>2017-05-09T15:44:41Z</time>
      </trkpt>
      <trkpt lat="46.11473" lon="6.439">
        <ele>1496.91</ele>
        <time>2017-05-09T15:44:45Z</time>
      </trkpt>
      <trkpt lat="46.11473" lon="6.43897">
        <ele>1497.39</ele>
        <time>2017-05-09T15:44:47Z</time>
      </trkpt>
      <trkpt lat="46.11473" lon="6.43895">
        <ele>1498.35</ele>
        <time>2017-05-09T15:44:49Z</time>
      </trkpt>
      <trkpt lat="46.11473" lon="6.43894">
        <ele>1498.83</ele>
        <time>2017-05-09T15:44:50Z</time>
      </trkpt>
      <trkpt lat="46.11473" lon="6.43892">
        <ele>1499.31</ele>
        <time>2017-05-09T15:44:51Z</time>
      </trkpt>
      <trkpt lat="46.1147" lon="6.43891">
        <ele>1501.72</ele>
        <time>2017-05-09T15:44:59Z</time>
      </trkpt>
      <trkpt lat="46.11459" lon="6.4389">
        <ele>1505.08</ele>
        <time>2017-05-09T15:45:11Z</time>
      </trkpt>
      <trkpt lat="46.11449" lon="6.43887">
        <ele>1507.97</ele>
        <time>2017-05-09T15:45:22Z</time>
      </trkpt>
      <trkpt lat="46.11442" lon="6.43885">
        <ele>1511.33</ele>
        <time>2017-05-09T15:45:33Z</time>
      </trkpt>
      <trkpt lat="46.11439" lon="6.43886">
        <ele>1512.77</ele>
        <time>2017-05-09T15:45:37Z</time>
      </trkpt>
      <trkpt lat="46.11429" lon="6.43894">
        <ele>1515.66</ele>
        <time>2017-05-09T15:45:52Z</time>
      </trkpt>
      <trkpt lat="46.11426" lon="6.43894">
        <ele>1516.62</ele>
        <time>2017-05-09T15:45:55Z</time>
      </trkpt>
      <trkpt lat="46.11422" lon="6.43898">
        <ele>1518.06</ele>
        <time>2017-05-09T15:46:01Z</time>
      </trkpt>
      <trkpt lat="46.11421" lon="6.43899">
        <ele>1518.54</ele>
        <time>2017-05-09T15:46:02Z</time>
      </trkpt>
      <trkpt lat="46.11421" lon="6.43899">
        <ele>1518.54</ele>
        <time>2017-05-09T15:46:03Z</time>
      </trkpt>
      <trkpt lat="46.11412" lon="6.43903">
        <ele>1521.42</ele>
        <time>2017-05-09T15:46:15Z</time>
      </trkpt>
      <trkpt lat="46.11405" lon="6.43907">
        <ele>1523.35</ele>
        <time>2017-05-09T15:46:23Z</time>
      </trkpt>
      <trkpt lat="46.11405" lon="6.43907">
        <ele>1523.83</ele>
        <time>2017-05-09T15:46:24Z</time>
      </trkpt>
      <trkpt lat="46.11393" lon="6.43912">
        <ele>1526.71</ele>
        <time>2017-05-09T15:46:38Z</time>
      </trkpt>
      <trkpt lat="46.11372" lon="6.43911">
        <ele>1529.11</ele>
        <time>2017-05-09T15:46:52Z</time>
      </trkpt>
      <trkpt lat="46.11364" lon="6.43915">
        <ele>1531.04</ele>
        <time>2017-05-09T15:46:59Z</time>
      </trkpt>
      <trkpt lat="46.11364" lon="6.43918">
        <ele>1531.52</ele>
        <time>2017-05-09T15:47:00Z</time>
      </trkpt>
      <trkpt lat="46.11364" lon="6.4392">
        <ele>1531.52</ele>
        <time>2017-05-09T15:47:01Z</time>
      </trkpt>
      <trkpt lat="46.11364" lon="6.43922">
        <ele>1532</ele>
        <time>2017-05-09T15:47:02Z</time>
      </trkpt>
      <trkpt lat="46.11363" lon="6.43924">
        <ele>1532</ele>
        <time>2017-05-09T15:47:03Z</time>
      </trkpt>
      <trkpt lat="46.11362" lon="6.43925">
        <ele>1532.48</ele>
        <time>2017-05-09T15:47:04Z</time>
      </trkpt>
      <trkpt lat="46.11362" lon="6.43927">
        <ele>1532.48</ele>
        <time>2017-05-09T15:47:05Z</time>
      </trkpt>
      <trkpt lat="46.11362" lon="6.43928">
        <ele>1532.96</ele>
        <time>2017-05-09T15:47:06Z</time>
      </trkpt>
      <trkpt lat="46.11361" lon="6.4393">
        <ele>1533.44</ele>
        <time>2017-05-09T15:47:07Z</time>
      </trkpt>
      <trkpt lat="46.11361" lon="6.43932">
        <ele>1533.92</ele>
        <time>2017-05-09T15:47:08Z</time>
      </trkpt>
      <trkpt lat="46.1136" lon="6.43933">
        <ele>1534.4</ele>
        <time>2017-05-09T15:47:09Z</time>
      </trkpt>
      <trkpt lat="46.1136" lon="6.43935">
        <ele>1534.4</ele>
        <time>2017-05-09T15:47:10Z</time>
      </trkpt>
      <trkpt lat="46.1136" lon="6.43943">
        <ele>1536.8</ele>
        <time>2017-05-09T15:47:15Z</time>
      </trkpt>
      <trkpt lat="46.11357" lon="6.43966">
        <ele>1538.73</ele>
        <time>2017-05-09T15:47:24Z</time>
      </trkpt>
      <trkpt lat="46.11351" lon="6.4399">
        <ele>1541.61</ele>
        <time>2017-05-09T15:47:36Z</time>
      </trkpt>
      <trkpt lat="46.11347" lon="6.44006">
        <ele>1544.98</ele>
        <time>2017-05-09T15:47:45Z</time>
      </trkpt>
      <trkpt lat="46.11346" lon="6.44009">
        <ele>1546.42</ele>
        <time>2017-05-09T15:47:49Z</time>
      </trkpt>
      <trkpt lat="46.11346" lon="6.4401">
        <ele>1546.42</ele>
        <time>2017-05-09T15:47:50Z</time>
      </trkpt>
      <trkpt lat="46.11345" lon="6.44011">
        <ele>1546.9</ele>
        <time>2017-05-09T15:47:51Z</time>
      </trkpt>
      <trkpt lat="46.11345" lon="6.44012">
        <ele>1546.9</ele>
        <time>2017-05-09T15:47:52Z</time>
      </trkpt>
      <trkpt lat="46.11345" lon="6.44013">
        <ele>1547.38</ele>
        <time>2017-05-09T15:47:53Z</time>
      </trkpt>
      <trkpt lat="46.11344" lon="6.44016">
        <ele>1547.86</ele>
        <time>2017-05-09T15:47:55Z</time>
      </trkpt>
      <trkpt lat="46.11344" lon="6.44017">
        <ele>1548.34</ele>
        <time>2017-05-09T15:47:56Z</time>
      </trkpt>
      <trkpt lat="46.11339" lon="6.44026">
        <ele>1551.22</ele>
        <time>2017-05-09T15:48:08Z</time>
      </trkpt>
      <trkpt lat="46.11337" lon="6.44037">
        <ele>1554.59</ele>
        <time>2017-05-09T15:48:20Z</time>
      </trkpt>
      <trkpt lat="46.11335" lon="6.44045">
        <ele>1557.95</ele>
        <time>2017-05-09T15:48:29Z</time>
      </trkpt>
      <trkpt lat="46.11333" lon="6.44051">
        <ele>1559.4</ele>
        <time>2017-05-09T15:48:35Z</time>
      </trkpt>
      <trkpt lat="46.11333" lon="6.44052">
        <ele>1559.4</ele>
        <time>2017-05-09T15:48:36Z</time>
      </trkpt>
      <trkpt lat="46.11332" lon="6.44053">
        <ele>1559.4</ele>
        <time>2017-05-09T15:48:37Z</time>
      </trkpt>
      <trkpt lat="46.1133" lon="6.44059">
        <ele>1561.32</ele>
        <time>2017-05-09T15:48:44Z</time>
      </trkpt>
      <trkpt lat="46.1133" lon="6.4406">
        <ele>1561.8</ele>
        <time>2017-05-09T15:48:45Z</time>
      </trkpt>
      <trkpt lat="46.1133" lon="6.44062">
        <ele>1561.8</ele>
        <time>2017-05-09T15:48:46Z</time>
      </trkpt>
      <trkpt lat="46.11326" lon="6.4408">
        <ele>1565.16</ele>
        <time>2017-05-09T15:48:58Z</time>
      </trkpt>
      <trkpt lat="46.11323" lon="6.44086">
        <ele>1566.61</ele>
        <time>2017-05-09T15:49:02Z</time>
      </trkpt>
      <trkpt lat="46.11323" lon="6.44088">
        <ele>1567.09</ele>
        <time>2017-05-09T15:49:03Z</time>
      </trkpt>
      <trkpt lat="46.11323" lon="6.44089">
        <ele>1567.57</ele>
        <time>2017-05-09T15:49:04Z</time>
      </trkpt>
      <trkpt lat="46.11323" lon="6.44091">
        <ele>1568.05</ele>
        <time>2017-05-09T15:49:05Z</time>
      </trkpt>
      <trkpt lat="46.11323" lon="6.44092">
        <ele>1568.05</ele>
        <time>2017-05-09T15:49:06Z</time>
      </trkpt>
      <trkpt lat="46.1132" lon="6.44098">
        <ele>1569.49</ele>
        <time>2017-05-09T15:49:10Z</time>
      </trkpt>
      <trkpt lat="46.11314" lon="6.44109">
        <ele>1572.37</ele>
        <time>2017-05-09T15:49:19Z</time>
      </trkpt>
      <trkpt lat="46.1131" lon="6.44116">
        <ele>1575.26</ele>
        <time>2017-05-09T15:49:27Z</time>
      </trkpt>
      <trkpt lat="46.11309" lon="6.44118">
        <ele>1575.74</ele>
        <time>2017-05-09T15:49:29Z</time>
      </trkpt>
      <trkpt lat="46.11307" lon="6.44121">
        <ele>1577.18</ele>
        <time>2017-05-09T15:49:34Z</time>
      </trkpt>
      <trkpt lat="46.11304" lon="6.44131">
        <ele>1580.54</ele>
        <time>2017-05-09T15:49:47Z</time>
      </trkpt>
      <trkpt lat="46.113" lon="6.4414">
        <ele>1583.43</ele>
        <time>2017-05-09T15:49:59Z</time>
      </trkpt>
      <trkpt lat="46.11295" lon="6.44151">
        <ele>1586.79</ele>
        <time>2017-05-09T15:50:11Z</time>
      </trkpt>
      <trkpt lat="46.1129" lon="6.44163">
        <ele>1589.68</ele>
        <time>2017-05-09T15:50:23Z</time>
      </trkpt>
      <trkpt lat="46.11284" lon="6.4417">
        <ele>1592.56</ele>
        <time>2017-05-09T15:50:33Z</time>
      </trkpt>
      <trkpt lat="46.11278" lon="6.44178">
        <ele>1595.93</ele>
        <time>2017-05-09T15:50:45Z</time>
      </trkpt>
      <trkpt lat="46.11272" lon="6.44186">
        <ele>1598.81</ele>
        <time>2017-05-09T15:50:57Z</time>
      </trkpt>
      <trkpt lat="46.1127" lon="6.44194">
        <ele>1602.17</ele>
        <time>2017-05-09T15:51:07Z</time>
      </trkpt>
      <trkpt lat="46.11266" lon="6.44203">
        <ele>1605.06</ele>
        <time>2017-05-09T15:51:16Z</time>
      </trkpt>
      <trkpt lat="46.11264" lon="6.44205">
        <ele>1606.02</ele>
        <time>2017-05-09T15:51:19Z</time>
      </trkpt>
      <trkpt lat="46.11261" lon="6.44208">
        <ele>1607.46</ele>
        <time>2017-05-09T15:51:23Z</time>
      </trkpt>
      <trkpt lat="46.11257" lon="6.44212">
        <ele>1609.38</ele>
        <time>2017-05-09T15:51:30Z</time>
      </trkpt>
      <trkpt lat="46.11251" lon="6.44222">
        <ele>1612.27</ele>
        <time>2017-05-09T15:51:42Z</time>
      </trkpt>
      <trkpt lat="46.11247" lon="6.44231">
        <ele>1615.15</ele>
        <time>2017-05-09T15:51:52Z</time>
      </trkpt>
      <trkpt lat="46.11247" lon="6.44232">
        <ele>1615.15</ele>
        <time>2017-05-09T15:51:53Z</time>
      </trkpt>
      <trkpt lat="46.11243" lon="6.44238">
        <ele>1617.07</ele>
        <time>2017-05-09T15:52:00Z</time>
      </trkpt>
      <trkpt lat="46.11237" lon="6.44247">
        <ele>1620.44</ele>
        <time>2017-05-09T15:52:12Z</time>
      </trkpt>
      <trkpt lat="46.11231" lon="6.44258">
        <ele>1623.8</ele>
        <time>2017-05-09T15:52:25Z</time>
      </trkpt>
      <trkpt lat="46.11219" lon="6.44273">
        <ele>1626.69</ele>
        <time>2017-05-09T15:52:43Z</time>
      </trkpt>
      <trkpt lat="46.11215" lon="6.44277">
        <ele>1627.17</ele>
        <time>2017-05-09T15:52:50Z</time>
      </trkpt>
      <trkpt lat="46.1121" lon="6.4428">
        <ele>1627.65</ele>
        <time>2017-05-09T15:52:55Z</time>
      </trkpt>
      <trkpt lat="46.11203" lon="6.44284">
        <ele>1628.61</ele>
        <time>2017-05-09T15:53:04Z</time>
      </trkpt>
      <trkpt lat="46.11202" lon="6.44284">
        <ele>1628.61</ele>
        <time>2017-05-09T15:53:10Z</time>
      </trkpt>
      <trkpt lat="46.11202" lon="6.44283">
        <ele>1628.61</ele>
        <time>2017-05-09T15:53:15Z</time>
      </trkpt>
      <trkpt lat="46.112" lon="6.44286">
        <ele>1628.61</ele>
        <time>2017-05-09T15:53:23Z</time>
      </trkpt>
      <trkpt lat="46.11198" lon="6.44289">
        <ele>1629.09</ele>
        <time>2017-05-09T15:53:29Z</time>
      </trkpt>
      <trkpt lat="46.11196" lon="6.44291">
        <ele>1629.57</ele>
        <time>2017-05-09T15:53:32Z</time>
      </trkpt>
      <trkpt lat="46.1119" lon="6.44299">
        <ele>1629.57</ele>
        <time>2017-05-09T15:53:39Z</time>
      </trkpt>
      <trkpt lat="46.11189" lon="6.443">
        <ele>1629.57</ele>
        <time>2017-05-09T15:53:40Z</time>
      </trkpt>
      <trkpt lat="46.11189" lon="6.44302">
        <ele>1629.57</ele>
        <time>2017-05-09T15:53:41Z</time>
      </trkpt>
      <trkpt lat="46.11186" lon="6.44307">
        <ele>1629.09</ele>
        <time>2017-05-09T15:53:51Z</time>
      </trkpt>
      <trkpt lat="46.11184" lon="6.44312">
        <ele>1628.61</ele>
        <time>2017-05-09T15:54:12Z</time>
      </trkpt>
      <trkpt lat="46.11184" lon="6.44312">
        <ele>1628.61</ele>
        <time>2017-05-09T15:54:19Z</time>
      </trkpt>
      <trkpt lat="46.11184" lon="6.44313">
        <ele>1628.61</ele>
        <time>2017-05-09T15:54:28Z</time>
      </trkpt>
      <trkpt lat="46.11183" lon="6.44314">
        <ele>1628.13</ele>
        <time>2017-05-09T15:54:50Z</time>
      </trkpt>
      <trkpt lat="46.11174" lon="6.44324">
        <ele>1627.17</ele>
        <time>2017-05-09T15:55:05Z</time>
      </trkpt>
      <trkpt lat="46.11162" lon="6.44339">
        <ele>1623.8</ele>
        <time>2017-05-09T15:55:13Z</time>
      </trkpt>
      <trkpt lat="46.11154" lon="6.4435">
        <ele>1620.92</ele>
        <time>2017-05-09T15:55:18Z</time>
      </trkpt>
      <trkpt lat="46.11145" lon="6.4436">
        <ele>1617.56</ele>
        <time>2017-05-09T15:55:23Z</time>
      </trkpt>
      <trkpt lat="46.11137" lon="6.44369">
        <ele>1614.19</ele>
        <time>2017-05-09T15:55:28Z</time>
      </trkpt>
      <trkpt lat="46.11129" lon="6.44378">
        <ele>1610.83</ele>
        <time>2017-05-09T15:55:32Z</time>
      </trkpt>
      <trkpt lat="46.1112" lon="6.44386">
        <ele>1606.98</ele>
        <time>2017-05-09T15:55:36Z</time>
      </trkpt>
      <trkpt lat="46.11113" lon="6.44392">
        <ele>1604.1</ele>
        <time>2017-05-09T15:55:39Z</time>
      </trkpt>
      <trkpt lat="46.11106" lon="6.44397">
        <ele>1600.73</ele>
        <time>2017-05-09T15:55:42Z</time>
      </trkpt>
      <trkpt lat="46.11103" lon="6.44401">
        <ele>1598.81</ele>
        <time>2017-05-09T15:55:44Z</time>
      </trkpt>
      <trkpt lat="46.11096" lon="6.44405">
        <ele>1595.45</ele>
        <time>2017-05-09T15:55:47Z</time>
      </trkpt>
      <trkpt lat="46.1109" lon="6.4441">
        <ele>1593.04</ele>
        <time>2017-05-09T15:55:50Z</time>
      </trkpt>
      <trkpt lat="46.11084" lon="6.44418">
        <ele>1589.2</ele>
        <time>2017-05-09T15:55:54Z</time>
      </trkpt>
      <trkpt lat="46.11079" lon="6.4443">
        <ele>1585.83</ele>
        <time>2017-05-09T15:55:58Z</time>
      </trkpt>
      <trkpt lat="46.11071" lon="6.44443">
        <ele>1581.99</ele>
        <time>2017-05-09T15:56:02Z</time>
      </trkpt>
      <trkpt lat="46.11065" lon="6.44453">
        <ele>1578.62</ele>
        <time>2017-05-09T15:56:05Z</time>
      </trkpt>
      <trkpt lat="46.11061" lon="6.44465">
        <ele>1575.74</ele>
        <time>2017-05-09T15:56:08Z</time>
      </trkpt>
      <trkpt lat="46.11054" lon="6.44481">
        <ele>1572.37</ele>
        <time>2017-05-09T15:56:13Z</time>
      </trkpt>
      <trkpt lat="46.11051" lon="6.44499">
        <ele>1569.01</ele>
        <time>2017-05-09T15:56:19Z</time>
      </trkpt>
      <trkpt lat="46.11048" lon="6.44506">
        <ele>1567.57</ele>
        <time>2017-05-09T15:56:21Z</time>
      </trkpt>
      <trkpt lat="46.11047" lon="6.44509">
        <ele>1567.09</ele>
        <time>2017-05-09T15:56:22Z</time>
      </trkpt>
      <trkpt lat="46.11044" lon="6.44511">
        <ele>1566.61</ele>
        <time>2017-05-09T15:56:23Z</time>
      </trkpt>
      <trkpt lat="46.11033" lon="6.44521">
        <ele>1564.68</ele>
        <time>2017-05-09T15:56:27Z</time>
      </trkpt>
      <trkpt lat="46.11016" lon="6.44535">
        <ele>1564.2</ele>
        <time>2017-05-09T15:56:35Z</time>
      </trkpt>
      <trkpt lat="46.10996" lon="6.4454">
        <ele>1565.16</ele>
        <time>2017-05-09T15:56:44Z</time>
      </trkpt>
      <trkpt lat="46.10978" lon="6.44549">
        <ele>1566.12</ele>
        <time>2017-05-09T15:56:53Z</time>
      </trkpt>
      <trkpt lat="46.10973" lon="6.44553">
        <ele>1567.57</ele>
        <time>2017-05-09T15:56:58Z</time>
      </trkpt>
      <trkpt lat="46.10972" lon="6.44553">
        <ele>1567.57</ele>
        <time>2017-05-09T15:56:59Z</time>
      </trkpt>
      <trkpt lat="46.10971" lon="6.44554">
        <ele>1568.53</ele>
        <time>2017-05-09T15:57:00Z</time>
      </trkpt>
      <trkpt lat="46.1097" lon="6.44555">
        <ele>1569.01</ele>
        <time>2017-05-09T15:57:01Z</time>
      </trkpt>
      <trkpt lat="46.10969" lon="6.44556">
        <ele>1569.01</ele>
        <time>2017-05-09T15:57:02Z</time>
      </trkpt>
      <trkpt lat="46.10969" lon="6.44558">
        <ele>1569.49</ele>
        <time>2017-05-09T15:57:03Z</time>
      </trkpt>
      <trkpt lat="46.10968" lon="6.44559">
        <ele>1569.97</ele>
        <time>2017-05-09T15:57:04Z</time>
      </trkpt>
      <trkpt lat="46.10967" lon="6.4456">
        <ele>1570.45</ele>
        <time>2017-05-09T15:57:05Z</time>
      </trkpt>
      <trkpt lat="46.10966" lon="6.44561">
        <ele>1570.93</ele>
        <time>2017-05-09T15:57:06Z</time>
      </trkpt>
      <trkpt lat="46.10966" lon="6.44562">
        <ele>1571.41</ele>
        <time>2017-05-09T15:57:07Z</time>
      </trkpt>
      <trkpt lat="46.10965" lon="6.44564">
        <ele>1571.89</ele>
        <time>2017-05-09T15:57:08Z</time>
      </trkpt>
      <trkpt lat="46.10964" lon="6.44565">
        <ele>1572.37</ele>
        <time>2017-05-09T15:57:09Z</time>
      </trkpt>
      <trkpt lat="46.10963" lon="6.44567">
        <ele>1572.37</ele>
        <time>2017-05-09T15:57:10Z</time>
      </trkpt>
      <trkpt lat="46.10962" lon="6.44568">
        <ele>1572.85</ele>
        <time>2017-05-09T15:57:11Z</time>
      </trkpt>
      <trkpt lat="46.10962" lon="6.4457">
        <ele>1573.33</ele>
        <time>2017-05-09T15:57:12Z</time>
      </trkpt>
      <trkpt lat="46.10961" lon="6.44571">
        <ele>1573.82</ele>
        <time>2017-05-09T15:57:13Z</time>
      </trkpt>
      <trkpt lat="46.10957" lon="6.44579">
        <ele>1575.26</ele>
        <time>2017-05-09T15:57:18Z</time>
      </trkpt>
      <trkpt lat="46.10956" lon="6.4458">
        <ele>1575.74</ele>
        <time>2017-05-09T15:57:19Z</time>
      </trkpt>
      <trkpt lat="46.10955" lon="6.44582">
        <ele>1576.22</ele>
        <time>2017-05-09T15:57:20Z</time>
      </trkpt>
      <trkpt lat="46.10954" lon="6.44583">
        <ele>1576.22</ele>
        <time>2017-05-09T15:57:21Z</time>
      </trkpt>
      <trkpt lat="46.10954" lon="6.44585">
        <ele>1576.7</ele>
        <time>2017-05-09T15:57:22Z</time>
      </trkpt>
      <trkpt lat="46.10948" lon="6.44595">
        <ele>1579.58</ele>
        <time>2017-05-09T15:57:30Z</time>
      </trkpt>
      <trkpt lat="46.10938" lon="6.44613">
        <ele>1582.95</ele>
        <time>2017-05-09T15:57:42Z</time>
      </trkpt>
      <trkpt lat="46.10936" lon="6.44617">
        <ele>1583.91</ele>
        <time>2017-05-09T15:57:45Z</time>
      </trkpt>
      <trkpt lat="46.10935" lon="6.44618">
        <ele>1584.39</ele>
        <time>2017-05-09T15:57:46Z</time>
      </trkpt>
      <trkpt lat="46.10935" lon="6.4462">
        <ele>1584.39</ele>
        <time>2017-05-09T15:57:47Z</time>
      </trkpt>
      <trkpt lat="46.10935" lon="6.44621">
        <ele>1584.87</ele>
        <time>2017-05-09T15:57:48Z</time>
      </trkpt>
      <trkpt lat="46.10934" lon="6.44623">
        <ele>1585.35</ele>
        <time>2017-05-09T15:57:49Z</time>
      </trkpt>
      <trkpt lat="46.10928" lon="6.44628">
        <ele>1588.24</ele>
        <time>2017-05-09T15:57:58Z</time>
      </trkpt>
      <trkpt lat="46.10922" lon="6.44633">
        <ele>1591.6</ele>
        <time>2017-05-09T15:58:07Z</time>
      </trkpt>
      <trkpt lat="46.10916" lon="6.44638">
        <ele>1594.48</ele>
        <time>2017-05-09T15:58:17Z</time>
      </trkpt>
      <trkpt lat="46.10914" lon="6.44641">
        <ele>1595.93</ele>
        <time>2017-05-09T15:58:21Z</time>
      </trkpt>
      <trkpt lat="46.10913" lon="6.44642">
        <ele>1595.93</ele>
        <time>2017-05-09T15:58:22Z</time>
      </trkpt>
      <trkpt lat="46.10911" lon="6.44643">
        <ele>1595.93</ele>
        <time>2017-05-09T15:58:23Z</time>
      </trkpt>
      <trkpt lat="46.10898" lon="6.44666">
        <ele>1596.41</ele>
        <time>2017-05-09T15:58:34Z</time>
      </trkpt>
      <trkpt lat="46.10885" lon="6.44687">
        <ele>1598.33</ele>
        <time>2017-05-09T15:58:44Z</time>
      </trkpt>
      <trkpt lat="46.10869" lon="6.44705">
        <ele>1601.69</ele>
        <time>2017-05-09T15:58:56Z</time>
      </trkpt>
      <trkpt lat="46.10856" lon="6.44715">
        <ele>1604.58</ele>
        <time>2017-05-09T15:59:06Z</time>
      </trkpt>
      <trkpt lat="46.10845" lon="6.44726">
        <ele>1608.42</ele>
        <time>2017-05-09T15:59:16Z</time>
      </trkpt>
      <trkpt lat="46.10834" lon="6.44737">
        <ele>1611.31</ele>
        <time>2017-05-09T15:59:26Z</time>
      </trkpt>
      <trkpt lat="46.1083" lon="6.44742">
        <ele>1612.27</ele>
        <time>2017-05-09T15:59:29Z</time>
      </trkpt>
      <trkpt lat="46.10829" lon="6.44743">
        <ele>1612.27</ele>
        <time>2017-05-09T15:59:30Z</time>
      </trkpt>
      <trkpt lat="46.10828" lon="6.44745">
        <ele>1612.75</ele>
        <time>2017-05-09T15:59:31Z</time>
      </trkpt>
      <trkpt lat="46.1082" lon="6.44762">
        <ele>1615.15</ele>
        <time>2017-05-09T15:59:40Z</time>
      </trkpt>
      <trkpt lat="46.10811" lon="6.44781">
        <ele>1618.04</ele>
        <time>2017-05-09T15:59:50Z</time>
      </trkpt>
      <trkpt lat="46.10803" lon="6.44799">
        <ele>1620.92</ele>
        <time>2017-05-09T16:00:00Z</time>
      </trkpt>
      <trkpt lat="46.10798" lon="6.44809">
        <ele>1622.84</ele>
        <time>2017-05-09T16:00:06Z</time>
      </trkpt>
      <trkpt lat="46.10797" lon="6.44811">
        <ele>1622.84</ele>
        <time>2017-05-09T16:00:07Z</time>
      </trkpt>
      <trkpt lat="46.10796" lon="6.44813">
        <ele>1623.32</ele>
        <time>2017-05-09T16:00:08Z</time>
      </trkpt>
      <trkpt lat="46.10796" lon="6.44814">
        <ele>1623.8</ele>
        <time>2017-05-09T16:00:09Z</time>
      </trkpt>
      <trkpt lat="46.10795" lon="6.44816">
        <ele>1624.28</ele>
        <time>2017-05-09T16:00:10Z</time>
      </trkpt>
      <trkpt lat="46.10795" lon="6.44818">
        <ele>1624.77</ele>
        <time>2017-05-09T16:00:11Z</time>
      </trkpt>
      <trkpt lat="46.10795" lon="6.4482">
        <ele>1624.77</ele>
        <time>2017-05-09T16:00:12Z</time>
      </trkpt>
      <trkpt lat="46.10795" lon="6.44822">
        <ele>1625.25</ele>
        <time>2017-05-09T16:00:13Z</time>
      </trkpt>
      <trkpt lat="46.10795" lon="6.44824">
        <ele>1625.73</ele>
        <time>2017-05-09T16:00:14Z</time>
      </trkpt>
      <trkpt lat="46.10794" lon="6.44825">
        <ele>1625.73</ele>
        <time>2017-05-09T16:00:15Z</time>
      </trkpt>
      <trkpt lat="46.10794" lon="6.44827">
        <ele>1626.21</ele>
        <time>2017-05-09T16:00:16Z</time>
      </trkpt>
      <trkpt lat="46.10793" lon="6.44829">
        <ele>1626.69</ele>
        <time>2017-05-09T16:00:17Z</time>
      </trkpt>
      <trkpt lat="46.10787" lon="6.4484">
        <ele>1629.57</ele>
        <time>2017-05-09T16:00:26Z</time>
      </trkpt>
      <trkpt lat="46.10786" lon="6.44841">
        <ele>1630.05</ele>
        <time>2017-05-09T16:00:27Z</time>
      </trkpt>
      <trkpt lat="46.10786" lon="6.44842">
        <ele>1630.53</ele>
        <time>2017-05-09T16:00:28Z</time>
      </trkpt>
      <trkpt lat="46.10785" lon="6.44844">
        <ele>1631.01</ele>
        <time>2017-05-09T16:00:29Z</time>
      </trkpt>
      <trkpt lat="46.10782" lon="6.44852">
        <ele>1634.38</ele>
        <time>2017-05-09T16:00:38Z</time>
      </trkpt>
      <trkpt lat="46.10779" lon="6.4486">
        <ele>1637.26</ele>
        <time>2017-05-09T16:00:47Z</time>
      </trkpt>
      <trkpt lat="46.10776" lon="6.44871">
        <ele>1640.63</ele>
        <time>2017-05-09T16:00:57Z</time>
      </trkpt>
      <trkpt lat="46.10774" lon="6.44879">
        <ele>1643.51</ele>
        <time>2017-05-09T16:01:06Z</time>
      </trkpt>
      <trkpt lat="46.1077" lon="6.44883">
        <ele>1646.88</ele>
        <time>2017-05-09T16:01:16Z</time>
      </trkpt>
      <trkpt lat="46.10771" lon="6.44891">
        <ele>1650.24</ele>
        <time>2017-05-09T16:01:26Z</time>
      </trkpt>
      <trkpt lat="46.10768" lon="6.44891">
        <ele>1650.24</ele>
        <time>2017-05-09T16:01:28Z</time>
      </trkpt>
      <trkpt lat="46.10758" lon="6.44898">
        <ele>1653.6</ele>
        <time>2017-05-09T16:01:38Z</time>
      </trkpt>
      <trkpt lat="46.10758" lon="6.44902">
        <ele>1655.05</ele>
        <time>2017-05-09T16:01:41Z</time>
      </trkpt>
      <trkpt lat="46.10758" lon="6.44903">
        <ele>1655.05</ele>
        <time>2017-05-09T16:01:42Z</time>
      </trkpt>
      <trkpt lat="46.10759" lon="6.44907">
        <ele>1656.49</ele>
        <time>2017-05-09T16:01:46Z</time>
      </trkpt>
      <trkpt lat="46.10759" lon="6.44915">
        <ele>1659.85</ele>
        <time>2017-05-09T16:01:56Z</time>
      </trkpt>
      <trkpt lat="46.10759" lon="6.44923">
        <ele>1663.22</ele>
        <time>2017-05-09T16:02:07Z</time>
      </trkpt>
      <trkpt lat="46.10754" lon="6.4493">
        <ele>1666.1</ele>
        <time>2017-05-09T16:02:17Z</time>
      </trkpt>
      <trkpt lat="46.10755" lon="6.44931">
        <ele>1667.54</ele>
        <time>2017-05-09T16:02:22Z</time>
      </trkpt>
      <trkpt lat="46.10752" lon="6.44937">
        <ele>1670.91</ele>
        <time>2017-05-09T16:02:33Z</time>
      </trkpt>
      <trkpt lat="46.10751" lon="6.44946">
        <ele>1673.79</ele>
        <time>2017-05-09T16:02:44Z</time>
      </trkpt>
      <trkpt lat="46.10751" lon="6.44952">
        <ele>1677.16</ele>
        <time>2017-05-09T16:02:54Z</time>
      </trkpt>
      <trkpt lat="46.10752" lon="6.44959">
        <ele>1680.52</ele>
        <time>2017-05-09T16:03:05Z</time>
      </trkpt>
      <trkpt lat="46.10752" lon="6.44962">
        <ele>1680.52</ele>
        <time>2017-05-09T16:03:06Z</time>
      </trkpt>
      <trkpt lat="46.10748" lon="6.44967">
        <ele>1683.89</ele>
        <time>2017-05-09T16:03:16Z</time>
      </trkpt>
      <trkpt lat="46.10747" lon="6.44972">
        <ele>1686.77</ele>
        <time>2017-05-09T16:03:28Z</time>
      </trkpt>
      <trkpt lat="46.10743" lon="6.4498">
        <ele>1690.14</ele>
        <time>2017-05-09T16:03:42Z</time>
      </trkpt>
      <trkpt lat="46.10742" lon="6.44986">
        <ele>1693.02</ele>
        <time>2017-05-09T16:03:49Z</time>
      </trkpt>
      <trkpt lat="46.10739" lon="6.44992">
        <ele>1696.38</ele>
        <time>2017-05-09T16:04:00Z</time>
      </trkpt>
      <trkpt lat="46.10737" lon="6.44994">
        <ele>1697.34</ele>
        <time>2017-05-09T16:04:03Z</time>
      </trkpt>
      <trkpt lat="46.10736" lon="6.45">
        <ele>1700.23</ele>
        <time>2017-05-09T16:04:14Z</time>
      </trkpt>
      <trkpt lat="46.10732" lon="6.45003">
        <ele>1702.63</ele>
        <time>2017-05-09T16:04:21Z</time>
      </trkpt>
      <trkpt lat="46.10732" lon="6.45008">
        <ele>1706</ele>
        <time>2017-05-09T16:04:32Z</time>
      </trkpt>
      <trkpt lat="46.10727" lon="6.45012">
        <ele>1708.4</ele>
        <time>2017-05-09T16:04:39Z</time>
      </trkpt>
      <trkpt lat="46.10727" lon="6.45014">
        <ele>1708.4</ele>
        <time>2017-05-09T16:04:40Z</time>
      </trkpt>
      <trkpt lat="46.10724" lon="6.4502">
        <ele>1711.76</ele>
        <time>2017-05-09T16:04:49Z</time>
      </trkpt>
      <trkpt lat="46.10724" lon="6.45029">
        <ele>1715.13</ele>
        <time>2017-05-09T16:05:00Z</time>
      </trkpt>
      <trkpt lat="46.1072" lon="6.45032">
        <ele>1718.01</ele>
        <time>2017-05-09T16:05:09Z</time>
      </trkpt>
      <trkpt lat="46.10719" lon="6.45037">
        <ele>1721.38</ele>
        <time>2017-05-09T16:05:19Z</time>
      </trkpt>
      <trkpt lat="46.10715" lon="6.45043">
        <ele>1724.74</ele>
        <time>2017-05-09T16:05:30Z</time>
      </trkpt>
      <trkpt lat="46.10711" lon="6.45049">
        <ele>1727.63</ele>
        <time>2017-05-09T16:05:41Z</time>
      </trkpt>
      <trkpt lat="46.10709" lon="6.45057">
        <ele>1730.99</ele>
        <time>2017-05-09T16:05:53Z</time>
      </trkpt>
      <trkpt lat="46.10705" lon="6.45061">
        <ele>1733.39</ele>
        <time>2017-05-09T16:06:00Z</time>
      </trkpt>
      <trkpt lat="46.10706" lon="6.45063">
        <ele>1734.36</ele>
        <time>2017-05-09T16:06:03Z</time>
      </trkpt>
      <trkpt lat="46.10705" lon="6.4507">
        <ele>1737.24</ele>
        <time>2017-05-09T16:06:14Z</time>
      </trkpt>
      <trkpt lat="46.10703" lon="6.45078">
        <ele>1740.6</ele>
        <time>2017-05-09T16:06:26Z</time>
      </trkpt>
      <trkpt lat="46.10703" lon="6.45087">
        <ele>1743.49</ele>
        <time>2017-05-09T16:06:38Z</time>
      </trkpt>
      <trkpt lat="46.10698" lon="6.45091">
        <ele>1746.37</ele>
        <time>2017-05-09T16:06:49Z</time>
      </trkpt>
      <trkpt lat="46.10698" lon="6.45096">
        <ele>1749.74</ele>
        <time>2017-05-09T16:06:59Z</time>
      </trkpt>
      <trkpt lat="46.10696" lon="6.45102">
        <ele>1752.62</ele>
        <time>2017-05-09T16:07:08Z</time>
      </trkpt>
      <trkpt lat="46.10691" lon="6.45107">
        <ele>1755.02</ele>
        <time>2017-05-09T16:07:16Z</time>
      </trkpt>
      <trkpt lat="46.10689" lon="6.45112">
        <ele>1758.39</ele>
        <time>2017-05-09T16:07:26Z</time>
      </trkpt>
      <trkpt lat="46.10689" lon="6.4512">
        <ele>1761.27</ele>
        <time>2017-05-09T16:07:35Z</time>
      </trkpt>
      <trkpt lat="46.10684" lon="6.45125">
        <ele>1764.64</ele>
        <time>2017-05-09T16:07:45Z</time>
      </trkpt>
      <trkpt lat="46.1068" lon="6.4513">
        <ele>1768</ele>
        <time>2017-05-09T16:07:55Z</time>
      </trkpt>
      <trkpt lat="46.10678" lon="6.45133">
        <ele>1768.96</ele>
        <time>2017-05-09T16:07:59Z</time>
      </trkpt>
      <trkpt lat="46.10678" lon="6.45134">
        <ele>1768.96</ele>
        <time>2017-05-09T16:08:00Z</time>
      </trkpt>
      <trkpt lat="46.1066" lon="6.45144">
        <ele>1772.81</ele>
        <time>2017-05-09T16:08:13Z</time>
      </trkpt>
      <trkpt lat="46.10644" lon="6.45153">
        <ele>1775.69</ele>
        <time>2017-05-09T16:08:25Z</time>
      </trkpt>
      <trkpt lat="46.10643" lon="6.45153">
        <ele>1776.17</ele>
        <time>2017-05-09T16:08:26Z</time>
      </trkpt>
      <trkpt lat="46.10628" lon="6.45162">
        <ele>1778.58</ele>
        <time>2017-05-09T16:08:37Z</time>
      </trkpt>
      <trkpt lat="46.10628" lon="6.45164">
        <ele>1779.06</ele>
        <time>2017-05-09T16:08:38Z</time>
      </trkpt>
      <trkpt lat="46.10627" lon="6.45164">
        <ele>1779.54</ele>
        <time>2017-05-09T16:08:39Z</time>
      </trkpt>
      <trkpt lat="46.10624" lon="6.45167">
        <ele>1780.98</ele>
        <time>2017-05-09T16:08:43Z</time>
      </trkpt>
      <trkpt lat="46.10623" lon="6.45168">
        <ele>1780.98</ele>
        <time>2017-05-09T16:08:44Z</time>
      </trkpt>
      <trkpt lat="46.10622" lon="6.45169">
        <ele>1781.46</ele>
        <time>2017-05-09T16:08:45Z</time>
      </trkpt>
      <trkpt lat="46.10621" lon="6.45169">
        <ele>1781.94</ele>
        <time>2017-05-09T16:08:46Z</time>
      </trkpt>
      <trkpt lat="46.1062" lon="6.4517">
        <ele>1782.42</ele>
        <time>2017-05-09T16:08:47Z</time>
      </trkpt>
      <trkpt lat="46.1062" lon="6.45171">
        <ele>1782.42</ele>
        <time>2017-05-09T16:08:48Z</time>
      </trkpt>
      <trkpt lat="46.10619" lon="6.45172">
        <ele>1782.42</ele>
        <time>2017-05-09T16:08:49Z</time>
      </trkpt>
      <trkpt lat="46.10617" lon="6.45185">
        <ele>1784.82</ele>
        <time>2017-05-09T16:09:04Z</time>
      </trkpt>
      <trkpt lat="46.10623" lon="6.45189">
        <ele>1787.71</ele>
        <time>2017-05-09T16:09:13Z</time>
      </trkpt>
      <trkpt lat="46.10624" lon="6.4519">
        <ele>1788.19</ele>
        <time>2017-05-09T16:09:14Z</time>
      </trkpt>
      <trkpt lat="46.10625" lon="6.45191">
        <ele>1788.19</ele>
        <time>2017-05-09T16:09:15Z</time>
      </trkpt>
      <trkpt lat="46.10626" lon="6.45192">
        <ele>1788.67</ele>
        <time>2017-05-09T16:09:16Z</time>
      </trkpt>
      <trkpt lat="46.10626" lon="6.45192">
        <ele>1789.15</ele>
        <time>2017-05-09T16:09:17Z</time>
      </trkpt>
      <trkpt lat="46.10631" lon="6.45201">
        <ele>1792.03</ele>
        <time>2017-05-09T16:09:26Z</time>
      </trkpt>
      <trkpt lat="46.10636" lon="6.45209">
        <ele>1795.4</ele>
        <time>2017-05-09T16:09:36Z</time>
      </trkpt>
      <trkpt lat="46.10639" lon="6.45218">
        <ele>1798.28</ele>
        <time>2017-05-09T16:09:46Z</time>
      </trkpt>
      <trkpt lat="46.10641" lon="6.45229">
        <ele>1801.17</ele>
        <time>2017-05-09T16:09:56Z</time>
      </trkpt>
      <trkpt lat="46.10642" lon="6.45233">
        <ele>1802.61</ele>
        <time>2017-05-09T16:10:00Z</time>
      </trkpt>
      <trkpt lat="46.10642" lon="6.45234">
        <ele>1803.09</ele>
        <time>2017-05-09T16:10:01Z</time>
      </trkpt>
      <trkpt lat="46.10643" lon="6.45235">
        <ele>1803.57</ele>
        <time>2017-05-09T16:10:02Z</time>
      </trkpt>
      <trkpt lat="46.10644" lon="6.45236">
        <ele>1803.57</ele>
        <time>2017-05-09T16:10:03Z</time>
      </trkpt>
      <trkpt lat="46.10644" lon="6.45237">
        <ele>1804.05</ele>
        <time>2017-05-09T16:10:04Z</time>
      </trkpt>
      <trkpt lat="46.10645" lon="6.45238">
        <ele>1804.53</ele>
        <time>2017-05-09T16:10:05Z</time>
      </trkpt>
      <trkpt lat="46.10645" lon="6.45239">
        <ele>1805.01</ele>
        <time>2017-05-09T16:10:06Z</time>
      </trkpt>
      <trkpt lat="46.10645" lon="6.4524">
        <ele>1805.01</ele>
        <time>2017-05-09T16:10:07Z</time>
      </trkpt>
      <trkpt lat="46.10648" lon="6.45251">
        <ele>1808.38</ele>
        <time>2017-05-09T16:10:17Z</time>
      </trkpt>
      <trkpt lat="46.10652" lon="6.45265">
        <ele>1811.26</ele>
        <time>2017-05-09T16:10:28Z</time>
      </trkpt>
      <trkpt lat="46.10653" lon="6.45278">
        <ele>1813.18</ele>
        <time>2017-05-09T16:10:35Z</time>
      </trkpt>
      <trkpt lat="46.10653" lon="6.45281">
        <ele>1813.18</ele>
        <time>2017-05-09T16:10:36Z</time>
      </trkpt>
      <trkpt lat="46.10654" lon="6.45283">
        <ele>1813.66</ele>
        <time>2017-05-09T16:10:37Z</time>
      </trkpt>
      <trkpt lat="46.10654" lon="6.45285">
        <ele>1814.15</ele>
        <time>2017-05-09T16:10:38Z</time>
      </trkpt>
      <trkpt lat="46.10654" lon="6.45287">
        <ele>1814.63</ele>
        <time>2017-05-09T16:10:39Z</time>
      </trkpt>
      <trkpt lat="46.10655" lon="6.45289">
        <ele>1814.63</ele>
        <time>2017-05-09T16:10:40Z</time>
      </trkpt>
      <trkpt lat="46.10655" lon="6.4529">
        <ele>1815.11</ele>
        <time>2017-05-09T16:10:41Z</time>
      </trkpt>
      <trkpt lat="46.10655" lon="6.45292">
        <ele>1815.59</ele>
        <time>2017-05-09T16:10:42Z</time>
      </trkpt>
      <trkpt lat="46.10655" lon="6.45294">
        <ele>1815.59</ele>
        <time>2017-05-09T16:10:43Z</time>
      </trkpt>
      <trkpt lat="46.10655" lon="6.45296">
        <ele>1816.07</ele>
        <time>2017-05-09T16:10:44Z</time>
      </trkpt>
      <trkpt lat="46.10655" lon="6.45298">
        <ele>1816.55</ele>
        <time>2017-05-09T16:10:45Z</time>
      </trkpt>
      <trkpt lat="46.10656" lon="6.453">
        <ele>1817.03</ele>
        <time>2017-05-09T16:10:46Z</time>
      </trkpt>
      <trkpt lat="46.10657" lon="6.45303">
        <ele>1817.03</ele>
        <time>2017-05-09T16:10:47Z</time>
      </trkpt>
      <trkpt lat="46.10657" lon="6.45305">
        <ele>1817.03</ele>
        <time>2017-05-09T16:10:48Z</time>
      </trkpt>
      <trkpt lat="46.10657" lon="6.45307">
        <ele>1817.51</ele>
        <time>2017-05-09T16:10:49Z</time>
      </trkpt>
      <trkpt lat="46.10658" lon="6.45309">
        <ele>1817.51</ele>
        <time>2017-05-09T16:10:50Z</time>
      </trkpt>
      <trkpt lat="46.1066" lon="6.45313">
        <ele>1817.99</ele>
        <time>2017-05-09T16:10:52Z</time>
      </trkpt>
      <trkpt lat="46.1066" lon="6.45315">
        <ele>1817.99</ele>
        <time>2017-05-09T16:10:53Z</time>
      </trkpt>
      <trkpt lat="46.10661" lon="6.45321">
        <ele>1818.95</ele>
        <time>2017-05-09T16:10:56Z</time>
      </trkpt>
      <trkpt lat="46.10665" lon="6.45328">
        <ele>1820.39</ele>
        <time>2017-05-09T16:11:00Z</time>
      </trkpt>
      <trkpt lat="46.10665" lon="6.4533">
        <ele>1820.39</ele>
        <time>2017-05-09T16:11:01Z</time>
      </trkpt>
      <trkpt lat="46.10666" lon="6.4535">
        <ele>1823.76</ele>
        <time>2017-05-09T16:11:11Z</time>
      </trkpt>
      <trkpt lat="46.10668" lon="6.45355">
        <ele>1824.72</ele>
        <time>2017-05-09T16:11:14Z</time>
      </trkpt>
      <trkpt lat="46.10668" lon="6.45357">
        <ele>1824.72</ele>
        <time>2017-05-09T16:11:15Z</time>
      </trkpt>
      <trkpt lat="46.10667" lon="6.45359">
        <ele>1825.2</ele>
        <time>2017-05-09T16:11:16Z</time>
      </trkpt>
      <trkpt lat="46.10668" lon="6.45361">
        <ele>1825.2</ele>
        <time>2017-05-09T16:11:17Z</time>
      </trkpt>
      <trkpt lat="46.10668" lon="6.45362">
        <ele>1825.68</ele>
        <time>2017-05-09T16:11:18Z</time>
      </trkpt>
      <trkpt lat="46.10668" lon="6.45364">
        <ele>1826.16</ele>
        <time>2017-05-09T16:11:19Z</time>
      </trkpt>
      <trkpt lat="46.10667" lon="6.45365">
        <ele>1826.64</ele>
        <time>2017-05-09T16:11:20Z</time>
      </trkpt>
      <trkpt lat="46.10667" lon="6.45369">
        <ele>1827.6</ele>
        <time>2017-05-09T16:11:23Z</time>
      </trkpt>
      <trkpt lat="46.10667" lon="6.45373">
        <ele>1828.56</ele>
        <time>2017-05-09T16:11:26Z</time>
      </trkpt>
      <trkpt lat="46.10667" lon="6.45374">
        <ele>1829.05</ele>
        <time>2017-05-09T16:11:27Z</time>
      </trkpt>
      <trkpt lat="46.10667" lon="6.45376">
        <ele>1829.53</ele>
        <time>2017-05-09T16:11:28Z</time>
      </trkpt>
      <trkpt lat="46.10668" lon="6.45385">
        <ele>1832.41</ele>
        <time>2017-05-09T16:11:38Z</time>
      </trkpt>
      <trkpt lat="46.10672" lon="6.45394">
        <ele>1835.77</ele>
        <time>2017-05-09T16:11:48Z</time>
      </trkpt>
      <trkpt lat="46.10676" lon="6.45403">
        <ele>1839.14</ele>
        <time>2017-05-09T16:11:59Z</time>
      </trkpt>
      <trkpt lat="46.10676" lon="6.45411">
        <ele>1842.02</ele>
        <time>2017-05-09T16:12:09Z</time>
      </trkpt>
      <trkpt lat="46.10676" lon="6.45421">
        <ele>1845.39</ele>
        <time>2017-05-09T16:12:21Z</time>
      </trkpt>
      <trkpt lat="46.10675" lon="6.45429">
        <ele>1848.27</ele>
        <time>2017-05-09T16:12:32Z</time>
      </trkpt>
      <trkpt lat="46.10673" lon="6.45437">
        <ele>1851.64</ele>
        <time>2017-05-09T16:12:40Z</time>
      </trkpt>
      <trkpt lat="46.10671" lon="6.45444">
        <ele>1854.52</ele>
        <time>2017-05-09T16:12:49Z</time>
      </trkpt>
      <trkpt lat="46.10673" lon="6.45452">
        <ele>1857.4</ele>
        <time>2017-05-09T16:12:59Z</time>
      </trkpt>
      <trkpt lat="46.10671" lon="6.45458">
        <ele>1860.77</ele>
        <time>2017-05-09T16:13:10Z</time>
      </trkpt>
      <trkpt lat="46.10672" lon="6.45463">
        <ele>1864.13</ele>
        <time>2017-05-09T16:13:20Z</time>
      </trkpt>
      <trkpt lat="46.10669" lon="6.45465">
        <ele>1864.61</ele>
        <time>2017-05-09T16:13:28Z</time>
      </trkpt>
      <trkpt lat="46.10668" lon="6.45466">
        <ele>1864.61</ele>
        <time>2017-05-09T16:13:29Z</time>
      </trkpt>
      <trkpt lat="46.10657" lon="6.45479">
        <ele>1867.02</ele>
        <time>2017-05-09T16:13:43Z</time>
      </trkpt>
      <trkpt lat="46.10653" lon="6.45488">
        <ele>1867.5</ele>
        <time>2017-05-09T16:13:51Z</time>
      </trkpt>
      <trkpt lat="46.10653" lon="6.45489">
        <ele>1867.5</ele>
        <time>2017-05-09T16:13:52Z</time>
      </trkpt>
      <trkpt lat="46.10652" lon="6.45491">
        <ele>1867.02</ele>
        <time>2017-05-09T16:13:58Z</time>
      </trkpt>
      <trkpt lat="46.10652" lon="6.4549">
        <ele>1867.02</ele>
        <time>2017-05-09T16:14:00Z</time>
      </trkpt>
      <trkpt lat="46.10651" lon="6.4549">
        <ele>1867.02</ele>
        <time>2017-05-09T16:14:04Z</time>
      </trkpt>
      <trkpt lat="46.10651" lon="6.4549">
        <ele>1867.02</ele>
        <time>2017-05-09T16:14:06Z</time>
      </trkpt>
      <trkpt lat="46.10651" lon="6.45489">
        <ele>1867.02</ele>
        <time>2017-05-09T16:14:08Z</time>
      </trkpt>
      <trkpt lat="46.10651" lon="6.45489">
        <ele>1867.02</ele>
        <time>2017-05-09T16:14:11Z</time>
      </trkpt>
      <trkpt lat="46.10652" lon="6.45489">
        <ele>1867.02</ele>
        <time>2017-05-09T16:14:14Z</time>
      </trkpt>
      <trkpt lat="46.10652" lon="6.45489">
        <ele>1867.02</ele>
        <time>2017-05-09T16:14:17Z</time>
      </trkpt>
      <trkpt lat="46.10652" lon="6.45489">
        <ele>1867.02</ele>
        <time>2017-05-09T16:14:19Z</time>
      </trkpt>
      <trkpt lat="46.10652" lon="6.45488">
        <ele>1866.54</ele>
        <time>2017-05-09T16:14:23Z</time>
      </trkpt>
      <trkpt lat="46.10653" lon="6.45488">
        <ele>1866.54</ele>
        <time>2017-05-09T16:14:26Z</time>
      </trkpt>
      <trkpt lat="46.10653" lon="6.45488">
        <ele>1866.54</ele>
        <time>2017-05-09T16:14:27Z</time>
      </trkpt>
      <trkpt lat="46.10653" lon="6.45487">
        <ele>1866.54</ele>
        <time>2017-05-09T16:14:32Z</time>
      </trkpt>
      <trkpt lat="46.10653" lon="6.45487">
        <ele>1866.54</ele>
        <time>2017-05-09T16:14:45Z</time>
      </trkpt>
      <trkpt lat="46.10653" lon="6.45488">
        <ele>1866.54</ele>
        <time>2017-05-09T16:14:55Z</time>
      </trkpt>
      <trkpt lat="46.10653" lon="6.45489">
        <ele>1867.02</ele>
        <time>2017-05-09T16:15:37Z</time>
      </trkpt>
      <trkpt lat="46.10653" lon="6.45488">
        <ele>1866.54</ele>
        <time>2017-05-09T16:15:42Z</time>
      </trkpt>
      <trkpt lat="46.10654" lon="6.45489">
        <ele>1867.02</ele>
        <time>2017-05-09T16:15:48Z</time>
      </trkpt>
      <trkpt lat="46.10654" lon="6.4549">
        <ele>1867.02</ele>
        <time>2017-05-09T16:15:54Z</time>
      </trkpt>
      <trkpt lat="46.10653" lon="6.45492">
        <ele>1867.02</ele>
        <time>2017-05-09T16:16:13Z</time>
      </trkpt>
      <trkpt lat="46.10653" lon="6.45492">
        <ele>1867.02</ele>
        <time>2017-05-09T16:16:20Z</time>
      </trkpt>
      <trkpt lat="46.10653" lon="6.45493">
        <ele>1867.02</ele>
        <time>2017-05-09T16:16:28Z</time>
      </trkpt>
      <trkpt lat="46.10651" lon="6.45493">
        <ele>1867.02</ele>
        <time>2017-05-09T16:16:35Z</time>
      </trkpt>
      <trkpt lat="46.1065" lon="6.45493">
        <ele>1867.02</ele>
        <time>2017-05-09T16:16:39Z</time>
      </trkpt>
      <trkpt lat="46.1065" lon="6.45492">
        <ele>1867.02</ele>
        <time>2017-05-09T16:16:51Z</time>
      </trkpt>
      <trkpt lat="46.10651" lon="6.45491">
        <ele>1866.54</ele>
        <time>2017-05-09T16:17:15Z</time>
      </trkpt>
      <trkpt lat="46.1065" lon="6.45494">
        <ele>1867.5</ele>
        <time>2017-05-09T16:17:28Z</time>
      </trkpt>
      <trkpt lat="46.10649" lon="6.45495">
        <ele>1867.5</ele>
        <time>2017-05-09T16:17:30Z</time>
      </trkpt>
      <trkpt lat="46.10648" lon="6.45494">
        <ele>1866.54</ele>
        <time>2017-05-09T16:17:32Z</time>
      </trkpt>
      <trkpt lat="46.10647" lon="6.45494">
        <ele>1865.58</ele>
        <time>2017-05-09T16:17:34Z</time>
      </trkpt>
      <trkpt lat="46.10647" lon="6.45494">
        <ele>1865.58</ele>
        <time>2017-05-09T16:17:54Z</time>
      </trkpt>
      <trkpt lat="46.10641" lon="6.45511">
        <ele>1865.09</ele>
        <time>2017-05-09T16:18:07Z</time>
      </trkpt>
      <trkpt lat="46.10637" lon="6.45522">
        <ele>1864.13</ele>
        <time>2017-05-09T16:18:10Z</time>
      </trkpt>
      <trkpt lat="46.10635" lon="6.45529">
        <ele>1863.17</ele>
        <time>2017-05-09T16:18:12Z</time>
      </trkpt>
      <trkpt lat="46.10631" lon="6.45542">
        <ele>1861.25</ele>
        <time>2017-05-09T16:18:15Z</time>
      </trkpt>
      <trkpt lat="46.10627" lon="6.45555">
        <ele>1859.33</ele>
        <time>2017-05-09T16:18:18Z</time>
      </trkpt>
      <trkpt lat="46.10624" lon="6.45565">
        <ele>1857.4</ele>
        <time>2017-05-09T16:18:21Z</time>
      </trkpt>
      <trkpt lat="46.10618" lon="6.45574">
        <ele>1855.48</ele>
        <time>2017-05-09T16:18:24Z</time>
      </trkpt>
      <trkpt lat="46.10613" lon="6.45586">
        <ele>1852.6</ele>
        <time>2017-05-09T16:18:28Z</time>
      </trkpt>
      <trkpt lat="46.10606" lon="6.45601">
        <ele>1849.23</ele>
        <time>2017-05-09T16:18:34Z</time>
      </trkpt>
      <trkpt lat="46.10598" lon="6.45618">
        <ele>1846.83</ele>
        <time>2017-05-09T16:18:40Z</time>
      </trkpt>
      <trkpt lat="46.10596" lon="6.45618">
        <ele>1846.83</ele>
        <time>2017-05-09T16:18:41Z</time>
      </trkpt>
      <trkpt lat="46.10595" lon="6.45615">
        <ele>1845.87</ele>
        <time>2017-05-09T16:18:42Z</time>
      </trkpt>
      <trkpt lat="46.10596" lon="6.45611">
        <ele>1844.91</ele>
        <time>2017-05-09T16:18:43Z</time>
      </trkpt>
      <trkpt lat="46.10596" lon="6.45606">
        <ele>1844.43</ele>
        <time>2017-05-09T16:18:44Z</time>
      </trkpt>
      <trkpt lat="46.10596" lon="6.45602">
        <ele>1843.95</ele>
        <time>2017-05-09T16:18:45Z</time>
      </trkpt>
      <trkpt lat="46.10596" lon="6.45598">
        <ele>1842.98</ele>
        <time>2017-05-09T16:18:46Z</time>
      </trkpt>
      <trkpt lat="46.10596" lon="6.45593">
        <ele>1842.5</ele>
        <time>2017-05-09T16:18:47Z</time>
      </trkpt>
      <trkpt lat="46.10596" lon="6.45588">
        <ele>1842.02</ele>
        <time>2017-05-09T16:18:48Z</time>
      </trkpt>
      <trkpt lat="46.10595" lon="6.45579">
        <ele>1841.06</ele>
        <time>2017-05-09T16:18:50Z</time>
      </trkpt>
      <trkpt lat="46.10595" lon="6.4556">
        <ele>1839.14</ele>
        <time>2017-05-09T16:18:54Z</time>
      </trkpt>
      <trkpt lat="46.10593" lon="6.45542">
        <ele>1835.29</ele>
        <time>2017-05-09T16:18:58Z</time>
      </trkpt>
      <trkpt lat="46.10591" lon="6.45521">
        <ele>1832.41</ele>
        <time>2017-05-09T16:19:03Z</time>
      </trkpt>
      <trkpt lat="46.1059" lon="6.45496">
        <ele>1829.05</ele>
        <time>2017-05-09T16:19:09Z</time>
      </trkpt>
      <trkpt lat="46.10588" lon="6.45472">
        <ele>1825.68</ele>
        <time>2017-05-09T16:19:14Z</time>
      </trkpt>
      <trkpt lat="46.10588" lon="6.45468">
        <ele>1825.2</ele>
        <time>2017-05-09T16:19:15Z</time>
      </trkpt>
      <trkpt lat="46.10586" lon="6.45439">
        <ele>1821.84</ele>
        <time>2017-05-09T16:19:21Z</time>
      </trkpt>
      <trkpt lat="46.1059" lon="6.45409">
        <ele>1818.95</ele>
        <time>2017-05-09T16:19:28Z</time>
      </trkpt>
      <trkpt lat="46.10594" lon="6.4539">
        <ele>1815.11</ele>
        <time>2017-05-09T16:19:33Z</time>
      </trkpt>
      <trkpt lat="46.10601" lon="6.45366">
        <ele>1811.74</ele>
        <time>2017-05-09T16:19:39Z</time>
      </trkpt>
      <trkpt lat="46.10606" lon="6.45341">
        <ele>1808.86</ele>
        <time>2017-05-09T16:19:45Z</time>
      </trkpt>
      <trkpt lat="46.10611" lon="6.4532">
        <ele>1805.49</ele>
        <time>2017-05-09T16:19:50Z</time>
      </trkpt>
      <trkpt lat="46.10613" lon="6.45295">
        <ele>1802.13</ele>
        <time>2017-05-09T16:19:55Z</time>
      </trkpt>
      <trkpt lat="46.10614" lon="6.45268">
        <ele>1798.76</ele>
        <time>2017-05-09T16:20:01Z</time>
      </trkpt>
      <trkpt lat="46.10614" lon="6.45247">
        <ele>1794.92</ele>
        <time>2017-05-09T16:20:06Z</time>
      </trkpt>
      <trkpt lat="46.10614" lon="6.45216">
        <ele>1791.55</ele>
        <time>2017-05-09T16:20:13Z</time>
      </trkpt>
      <trkpt lat="46.10614" lon="6.45196">
        <ele>1788.19</ele>
        <time>2017-05-09T16:20:18Z</time>
      </trkpt>
      <trkpt lat="46.10615" lon="6.45189">
        <ele>1787.71</ele>
        <time>2017-05-09T16:20:20Z</time>
      </trkpt>
      <trkpt lat="46.10623" lon="6.45163">
        <ele>1784.82</ele>
        <time>2017-05-09T16:20:28Z</time>
      </trkpt>
      <trkpt lat="46.10636" lon="6.45151">
        <ele>1782.42</ele>
        <time>2017-05-09T16:20:34Z</time>
      </trkpt>
      <trkpt lat="46.10645" lon="6.45143">
        <ele>1779.06</ele>
        <time>2017-05-09T16:20:38Z</time>
      </trkpt>
      <trkpt lat="46.1066" lon="6.45136">
        <ele>1776.17</ele>
        <time>2017-05-09T16:20:43Z</time>
      </trkpt>
      <trkpt lat="46.10668" lon="6.45133">
        <ele>1775.21</ele>
        <time>2017-05-09T16:20:46Z</time>
      </trkpt>
      <trkpt lat="46.10676" lon="6.45132">
        <ele>1772.81</ele>
        <time>2017-05-09T16:20:49Z</time>
      </trkpt>
      <trkpt lat="46.10678" lon="6.45132">
        <ele>1772.81</ele>
        <time>2017-05-09T16:20:50Z</time>
      </trkpt>
      <trkpt lat="46.10684" lon="6.45131">
        <ele>1771.37</ele>
        <time>2017-05-09T16:20:54Z</time>
      </trkpt>
      <trkpt lat="46.10684" lon="6.4513">
        <ele>1770.41</ele>
        <time>2017-05-09T16:20:56Z</time>
      </trkpt>
      <trkpt lat="46.10678" lon="6.45125">
        <ele>1769.92</ele>
        <time>2017-05-09T16:20:59Z</time>
      </trkpt>
      <trkpt lat="46.10662" lon="6.45119">
        <ele>1766.56</ele>
        <time>2017-05-09T16:21:05Z</time>
      </trkpt>
      <trkpt lat="46.10642" lon="6.45114">
        <ele>1763.2</ele>
        <time>2017-05-09T16:21:12Z</time>
      </trkpt>
      <trkpt lat="46.10629" lon="6.45112">
        <ele>1759.83</ele>
        <time>2017-05-09T16:21:17Z</time>
      </trkpt>
      <trkpt lat="46.10614" lon="6.45105">
        <ele>1756.47</ele>
        <time>2017-05-09T16:21:24Z</time>
      </trkpt>
      <trkpt lat="46.10606" lon="6.45102">
        <ele>1755.02</ele>
        <time>2017-05-09T16:21:27Z</time>
      </trkpt>
      <trkpt lat="46.10604" lon="6.45101">
        <ele>1755.02</ele>
        <time>2017-05-09T16:21:28Z</time>
      </trkpt>
      <trkpt lat="46.10601" lon="6.451">
        <ele>1754.06</ele>
        <time>2017-05-09T16:21:29Z</time>
      </trkpt>
      <trkpt lat="46.10598" lon="6.45099">
        <ele>1753.58</ele>
        <time>2017-05-09T16:21:30Z</time>
      </trkpt>
      <trkpt lat="46.10594" lon="6.45098">
        <ele>1752.62</ele>
        <time>2017-05-09T16:21:31Z</time>
      </trkpt>
      <trkpt lat="46.10591" lon="6.45097">
        <ele>1751.66</ele>
        <time>2017-05-09T16:21:32Z</time>
      </trkpt>
      <trkpt lat="46.10588" lon="6.45096">
        <ele>1751.18</ele>
        <time>2017-05-09T16:21:33Z</time>
      </trkpt>
      <trkpt lat="46.10586" lon="6.45095">
        <ele>1751.18</ele>
        <time>2017-05-09T16:21:34Z</time>
      </trkpt>
      <trkpt lat="46.10578" lon="6.45087">
        <ele>1749.74</ele>
        <time>2017-05-09T16:21:38Z</time>
      </trkpt>
      <trkpt lat="46.10575" lon="6.45085">
        <ele>1748.78</ele>
        <time>2017-05-09T16:21:39Z</time>
      </trkpt>
      <trkpt lat="46.10573" lon="6.45084">
        <ele>1748.29</ele>
        <time>2017-05-09T16:21:40Z</time>
      </trkpt>
      <trkpt lat="46.10571" lon="6.45082">
        <ele>1748.29</ele>
        <time>2017-05-09T16:21:41Z</time>
      </trkpt>
      <trkpt lat="46.10569" lon="6.45081">
        <ele>1747.81</ele>
        <time>2017-05-09T16:21:42Z</time>
      </trkpt>
      <trkpt lat="46.10567" lon="6.45081">
        <ele>1746.85</ele>
        <time>2017-05-09T16:21:43Z</time>
      </trkpt>
      <trkpt lat="46.10565" lon="6.45082">
        <ele>1746.37</ele>
        <time>2017-05-09T16:21:44Z</time>
      </trkpt>
      <trkpt lat="46.10563" lon="6.45084">
        <ele>1746.37</ele>
        <time>2017-05-09T16:21:45Z</time>
      </trkpt>
      <trkpt lat="46.10562" lon="6.45086">
        <ele>1745.89</ele>
        <time>2017-05-09T16:21:46Z</time>
      </trkpt>
      <trkpt lat="46.10561" lon="6.45089">
        <ele>1745.41</ele>
        <time>2017-05-09T16:21:47Z</time>
      </trkpt>
      <trkpt lat="46.1056" lon="6.45092">
        <ele>1744.93</ele>
        <time>2017-05-09T16:21:48Z</time>
      </trkpt>
      <trkpt lat="46.10559" lon="6.45095">
        <ele>1743.97</ele>
        <time>2017-05-09T16:21:49Z</time>
      </trkpt>
      <trkpt lat="46.10557" lon="6.45097">
        <ele>1743.49</ele>
        <time>2017-05-09T16:21:50Z</time>
      </trkpt>
      <trkpt lat="46.10556" lon="6.45101">
        <ele>1743.01</ele>
        <time>2017-05-09T16:21:51Z</time>
      </trkpt>
      <trkpt lat="46.10555" lon="6.45105">
        <ele>1743.01</ele>
        <time>2017-05-09T16:21:52Z</time>
      </trkpt>
      <trkpt lat="46.10551" lon="6.45122">
        <ele>1739.64</ele>
        <time>2017-05-09T16:21:57Z</time>
      </trkpt>
      <trkpt lat="46.10546" lon="6.45131">
        <ele>1738.2</ele>
        <time>2017-05-09T16:22:00Z</time>
      </trkpt>
      <trkpt lat="46.10545" lon="6.45134">
        <ele>1737.24</ele>
        <time>2017-05-09T16:22:01Z</time>
      </trkpt>
      <trkpt lat="46.10544" lon="6.45138">
        <ele>1736.76</ele>
        <time>2017-05-09T16:22:02Z</time>
      </trkpt>
      <trkpt lat="46.10543" lon="6.45142">
        <ele>1736.28</ele>
        <time>2017-05-09T16:22:03Z</time>
      </trkpt>
      <trkpt lat="46.10542" lon="6.45146">
        <ele>1735.8</ele>
        <time>2017-05-09T16:22:04Z</time>
      </trkpt>
      <trkpt lat="46.10541" lon="6.4515">
        <ele>1735.32</ele>
        <time>2017-05-09T16:22:05Z</time>
      </trkpt>
      <trkpt lat="46.1054" lon="6.45153">
        <ele>1734.84</ele>
        <time>2017-05-09T16:22:06Z</time>
      </trkpt>
      <trkpt lat="46.10539" lon="6.45157">
        <ele>1734.36</ele>
        <time>2017-05-09T16:22:07Z</time>
      </trkpt>
      <trkpt lat="46.10537" lon="6.4516">
        <ele>1733.88</ele>
        <time>2017-05-09T16:22:08Z</time>
      </trkpt>
      <trkpt lat="46.10536" lon="6.45164">
        <ele>1733.88</ele>
        <time>2017-05-09T16:22:09Z</time>
      </trkpt>
      <trkpt lat="46.10535" lon="6.45167">
        <ele>1733.39</ele>
        <time>2017-05-09T16:22:10Z</time>
      </trkpt>
      <trkpt lat="46.10533" lon="6.45171">
        <ele>1732.43</ele>
        <time>2017-05-09T16:22:11Z</time>
      </trkpt>
      <trkpt lat="46.10531" lon="6.45174">
        <ele>1731.95</ele>
        <time>2017-05-09T16:22:12Z</time>
      </trkpt>
      <trkpt lat="46.10524" lon="6.45196">
        <ele>1728.11</ele>
        <time>2017-05-09T16:22:18Z</time>
      </trkpt>
      <trkpt lat="46.10516" lon="6.45213">
        <ele>1725.22</ele>
        <time>2017-05-09T16:22:23Z</time>
      </trkpt>
      <trkpt lat="46.10505" lon="6.45235">
        <ele>1721.38</ele>
        <time>2017-05-09T16:22:29Z</time>
      </trkpt>
      <trkpt lat="46.105" lon="6.45244">
        <ele>1720.42</ele>
        <time>2017-05-09T16:22:32Z</time>
      </trkpt>
      <trkpt lat="46.10488" lon="6.4526">
        <ele>1717.05</ele>
        <time>2017-05-09T16:22:37Z</time>
      </trkpt>
      <trkpt lat="46.10478" lon="6.45271">
        <ele>1714.17</ele>
        <time>2017-05-09T16:22:44Z</time>
      </trkpt>
      <trkpt lat="46.10477" lon="6.4527">
        <ele>1713.21</ele>
        <time>2017-05-09T16:22:45Z</time>
      </trkpt>
      <trkpt lat="46.10477" lon="6.45271">
        <ele>1712.73</ele>
        <time>2017-05-09T16:22:50Z</time>
      </trkpt>
      <trkpt lat="46.10478" lon="6.4527">
        <ele>1712.73</ele>
        <time>2017-05-09T16:22:57Z</time>
      </trkpt>
      <trkpt lat="46.10479" lon="6.45267">
        <ele>1712.73</ele>
        <time>2017-05-09T16:22:59Z</time>
      </trkpt>
      <trkpt lat="46.10479" lon="6.45264">
        <ele>1712.25</ele>
        <time>2017-05-09T16:23:00Z</time>
      </trkpt>
      <trkpt lat="46.1048" lon="6.4526">
        <ele>1712.25</ele>
        <time>2017-05-09T16:23:01Z</time>
      </trkpt>
      <trkpt lat="46.10485" lon="6.45235">
        <ele>1708.88</ele>
        <time>2017-05-09T16:23:09Z</time>
      </trkpt>
      <trkpt lat="46.10486" lon="6.45209">
        <ele>1706</ele>
        <time>2017-05-09T16:23:15Z</time>
      </trkpt>
      <trkpt lat="46.10486" lon="6.45185">
        <ele>1702.63</ele>
        <time>2017-05-09T16:23:20Z</time>
      </trkpt>
      <trkpt lat="46.10485" lon="6.45159">
        <ele>1698.79</ele>
        <time>2017-05-09T16:23:25Z</time>
      </trkpt>
      <trkpt lat="46.10484" lon="6.45136">
        <ele>1695.42</ele>
        <time>2017-05-09T16:23:30Z</time>
      </trkpt>
      <trkpt lat="46.10483" lon="6.45126">
        <ele>1694.94</ele>
        <time>2017-05-09T16:23:32Z</time>
      </trkpt>
      <trkpt lat="46.10481" lon="6.45103">
        <ele>1691.58</ele>
        <time>2017-05-09T16:23:37Z</time>
      </trkpt>
      <trkpt lat="46.10478" lon="6.45075">
        <ele>1687.73</ele>
        <time>2017-05-09T16:23:43Z</time>
      </trkpt>
      <trkpt lat="46.10475" lon="6.45049">
        <ele>1684.37</ele>
        <time>2017-05-09T16:23:49Z</time>
      </trkpt>
      <trkpt lat="46.10473" lon="6.45026">
        <ele>1681</ele>
        <time>2017-05-09T16:23:55Z</time>
      </trkpt>
      <trkpt lat="46.10472" lon="6.45001">
        <ele>1677.64</ele>
        <time>2017-05-09T16:24:01Z</time>
      </trkpt>
      <trkpt lat="46.10472" lon="6.44993">
        <ele>1676.2</ele>
        <time>2017-05-09T16:24:03Z</time>
      </trkpt>
      <trkpt lat="46.10471" lon="6.44989">
        <ele>1676.2</ele>
        <time>2017-05-09T16:24:04Z</time>
      </trkpt>
      <trkpt lat="46.10471" lon="6.44985">
        <ele>1675.72</ele>
        <time>2017-05-09T16:24:05Z</time>
      </trkpt>
      <trkpt lat="46.10471" lon="6.4498">
        <ele>1675.23</ele>
        <time>2017-05-09T16:24:06Z</time>
      </trkpt>
      <trkpt lat="46.10471" lon="6.44976">
        <ele>1674.27</ele>
        <time>2017-05-09T16:24:07Z</time>
      </trkpt>
      <trkpt lat="46.10471" lon="6.44972">
        <ele>1674.27</ele>
        <time>2017-05-09T16:24:08Z</time>
      </trkpt>
      <trkpt lat="46.1047" lon="6.44967">
        <ele>1673.31</ele>
        <time>2017-05-09T16:24:09Z</time>
      </trkpt>
      <trkpt lat="46.1047" lon="6.44959">
        <ele>1672.83</ele>
        <time>2017-05-09T16:24:11Z</time>
      </trkpt>
      <trkpt lat="46.10467" lon="6.44946">
        <ele>1670.91</ele>
        <time>2017-05-09T16:24:15Z</time>
      </trkpt>
      <trkpt lat="46.10466" lon="6.4493">
        <ele>1668.02</ele>
        <time>2017-05-09T16:24:22Z</time>
      </trkpt>
      <trkpt lat="46.10461" lon="6.44922">
        <ele>1664.18</ele>
        <time>2017-05-09T16:24:27Z</time>
      </trkpt>
      <trkpt lat="46.10457" lon="6.44919">
        <ele>1661.3</ele>
        <time>2017-05-09T16:24:30Z</time>
      </trkpt>
      <trkpt lat="46.10448" lon="6.4491">
        <ele>1656.97</ele>
        <time>2017-05-09T16:24:36Z</time>
      </trkpt>
      <trkpt lat="46.10444" lon="6.4491">
        <ele>1655.53</ele>
        <time>2017-05-09T16:24:38Z</time>
      </trkpt>
      <trkpt lat="46.10444" lon="6.44913">
        <ele>1654.57</ele>
        <time>2017-05-09T16:24:39Z</time>
      </trkpt>
      <trkpt lat="46.10443" lon="6.44919">
        <ele>1654.09</ele>
        <time>2017-05-09T16:24:41Z</time>
      </trkpt>
      <trkpt lat="46.1044" lon="6.44937">
        <ele>1650.72</ele>
        <time>2017-05-09T16:24:46Z</time>
      </trkpt>
      <trkpt lat="46.10438" lon="6.44963">
        <ele>1647.84</ele>
        <time>2017-05-09T16:24:52Z</time>
      </trkpt>
      <trkpt lat="46.10435" lon="6.44974">
        <ele>1646.88</ele>
        <time>2017-05-09T16:24:55Z</time>
      </trkpt>
      <trkpt lat="46.10434" lon="6.44977">
        <ele>1646.4</ele>
        <time>2017-05-09T16:24:56Z</time>
      </trkpt>
      <trkpt lat="46.10433" lon="6.44981">
        <ele>1645.91</ele>
        <time>2017-05-09T16:24:57Z</time>
      </trkpt>
      <trkpt lat="46.10432" lon="6.44985">
        <ele>1645.43</ele>
        <time>2017-05-09T16:24:58Z</time>
      </trkpt>
      <trkpt lat="46.10431" lon="6.44989">
        <ele>1644.95</ele>
        <time>2017-05-09T16:24:59Z</time>
      </trkpt>
      <trkpt lat="46.10429" lon="6.44992">
        <ele>1644.47</ele>
        <time>2017-05-09T16:25:00Z</time>
      </trkpt>
      <trkpt lat="46.10421" lon="6.45012">
        <ele>1641.59</ele>
        <time>2017-05-09T16:25:06Z</time>
      </trkpt>
      <trkpt lat="46.10415" lon="6.45034">
        <ele>1639.19</ele>
        <time>2017-05-09T16:25:12Z</time>
      </trkpt>
      <trkpt lat="46.10414" lon="6.45037">
        <ele>1638.7</ele>
        <time>2017-05-09T16:25:13Z</time>
      </trkpt>
      <trkpt lat="46.10413" lon="6.4504">
        <ele>1638.22</ele>
        <time>2017-05-09T16:25:14Z</time>
      </trkpt>
      <trkpt lat="46.10413" lon="6.45044">
        <ele>1638.22</ele>
        <time>2017-05-09T16:25:15Z</time>
      </trkpt>
      <trkpt lat="46.10413" lon="6.45048">
        <ele>1637.74</ele>
        <time>2017-05-09T16:25:16Z</time>
      </trkpt>
      <trkpt lat="46.10413" lon="6.45055">
        <ele>1637.26</ele>
        <time>2017-05-09T16:25:18Z</time>
      </trkpt>
      <trkpt lat="46.10412" lon="6.45057">
        <ele>1637.26</ele>
        <time>2017-05-09T16:25:19Z</time>
      </trkpt>
      <trkpt lat="46.10411" lon="6.4506">
        <ele>1636.78</ele>
        <time>2017-05-09T16:25:20Z</time>
      </trkpt>
      <trkpt lat="46.1041" lon="6.45063">
        <ele>1636.78</ele>
        <time>2017-05-09T16:25:21Z</time>
      </trkpt>
      <trkpt lat="46.10409" lon="6.45065">
        <ele>1636.3</ele>
        <time>2017-05-09T16:25:22Z</time>
      </trkpt>
      <trkpt lat="46.10408" lon="6.45068">
        <ele>1635.82</ele>
        <time>2017-05-09T16:25:23Z</time>
      </trkpt>
      <trkpt lat="46.10407" lon="6.45072">
        <ele>1635.34</ele>
        <time>2017-05-09T16:25:24Z</time>
      </trkpt>
      <trkpt lat="46.10405" lon="6.45076">
        <ele>1634.86</ele>
        <time>2017-05-09T16:25:25Z</time>
      </trkpt>
      <trkpt lat="46.10404" lon="6.4508">
        <ele>1633.9</ele>
        <time>2017-05-09T16:25:26Z</time>
      </trkpt>
      <trkpt lat="46.10403" lon="6.45084">
        <ele>1633.42</ele>
        <time>2017-05-09T16:25:27Z</time>
      </trkpt>
      <trkpt lat="46.10403" lon="6.45088">
        <ele>1632.94</ele>
        <time>2017-05-09T16:25:28Z</time>
      </trkpt>
      <trkpt lat="46.104" lon="6.45116">
        <ele>1631.01</ele>
        <time>2017-05-09T16:25:35Z</time>
      </trkpt>
      <trkpt lat="46.10395" lon="6.45145">
        <ele>1630.05</ele>
        <time>2017-05-09T16:25:42Z</time>
      </trkpt>
      <trkpt lat="46.10391" lon="6.45159">
        <ele>1631.01</ele>
        <time>2017-05-09T16:25:46Z</time>
      </trkpt>
      <trkpt lat="46.10388" lon="6.45177">
        <ele>1632.46</ele>
        <time>2017-05-09T16:25:52Z</time>
      </trkpt>
      <trkpt lat="46.10379" lon="6.45192">
        <ele>1632.94</ele>
        <time>2017-05-09T16:25:57Z</time>
      </trkpt>
      <trkpt lat="46.10369" lon="6.45211">
        <ele>1631.98</ele>
        <time>2017-05-09T16:26:04Z</time>
      </trkpt>
      <trkpt lat="46.10356" lon="6.45237">
        <ele>1631.01</ele>
        <time>2017-05-09T16:26:14Z</time>
      </trkpt>
      <trkpt lat="46.10345" lon="6.45262">
        <ele>1629.57</ele>
        <time>2017-05-09T16:26:22Z</time>
      </trkpt>
      <trkpt lat="46.10339" lon="6.45281">
        <ele>1628.13</ele>
        <time>2017-05-09T16:26:28Z</time>
      </trkpt>
      <trkpt lat="46.10338" lon="6.45284">
        <ele>1628.13</ele>
        <time>2017-05-09T16:26:29Z</time>
      </trkpt>
      <trkpt lat="46.10337" lon="6.45287">
        <ele>1627.65</ele>
        <time>2017-05-09T16:26:30Z</time>
      </trkpt>
      <trkpt lat="46.10336" lon="6.45291">
        <ele>1627.17</ele>
        <time>2017-05-09T16:26:31Z</time>
      </trkpt>
      <trkpt lat="46.10335" lon="6.45295">
        <ele>1626.69</ele>
        <time>2017-05-09T16:26:32Z</time>
      </trkpt>
      <trkpt lat="46.10334" lon="6.45298">
        <ele>1626.21</ele>
        <time>2017-05-09T16:26:33Z</time>
      </trkpt>
      <trkpt lat="46.10333" lon="6.45301">
        <ele>1626.21</ele>
        <time>2017-05-09T16:26:34Z</time>
      </trkpt>
      <trkpt lat="46.10333" lon="6.45304">
        <ele>1625.73</ele>
        <time>2017-05-09T16:26:35Z</time>
      </trkpt>
      <trkpt lat="46.10333" lon="6.45308">
        <ele>1625.25</ele>
        <time>2017-05-09T16:26:36Z</time>
      </trkpt>
      <trkpt lat="46.10332" lon="6.45312">
        <ele>1625.25</ele>
        <time>2017-05-09T16:26:37Z</time>
      </trkpt>
      <trkpt lat="46.10331" lon="6.45316">
        <ele>1624.77</ele>
        <time>2017-05-09T16:26:38Z</time>
      </trkpt>
      <trkpt lat="46.10324" lon="6.45339">
        <ele>1622.36</ele>
        <time>2017-05-09T16:26:44Z</time>
      </trkpt>
      <trkpt lat="46.10323" lon="6.45349">
        <ele>1621.88</ele>
        <time>2017-05-09T16:26:46Z</time>
      </trkpt>
      <trkpt lat="46.10317" lon="6.45379">
        <ele>1619.48</ele>
        <time>2017-05-09T16:26:53Z</time>
      </trkpt>
      <trkpt lat="46.10311" lon="6.45408">
        <ele>1617.56</ele>
        <time>2017-05-09T16:27:01Z</time>
      </trkpt>
      <trkpt lat="46.10302" lon="6.45427">
        <ele>1615.15</ele>
        <time>2017-05-09T16:27:06Z</time>
      </trkpt>
      <trkpt lat="46.10283" lon="6.45437">
        <ele>1613.71</ele>
        <time>2017-05-09T16:27:12Z</time>
      </trkpt>
      <trkpt lat="46.10261" lon="6.45444">
        <ele>1611.79</ele>
        <time>2017-05-09T16:27:19Z</time>
      </trkpt>
      <trkpt lat="46.10245" lon="6.45446">
        <ele>1608.42</ele>
        <time>2017-05-09T16:27:25Z</time>
      </trkpt>
      <trkpt lat="46.10233" lon="6.45448">
        <ele>1604.58</ele>
        <time>2017-05-09T16:27:31Z</time>
      </trkpt>
      <trkpt lat="46.10219" lon="6.45451">
        <ele>1601.21</ele>
        <time>2017-05-09T16:27:37Z</time>
      </trkpt>
      <trkpt lat="46.10207" lon="6.45458">
        <ele>1597.85</ele>
        <time>2017-05-09T16:27:43Z</time>
      </trkpt>
      <trkpt lat="46.10203" lon="6.45459">
        <ele>1597.37</ele>
        <time>2017-05-09T16:27:45Z</time>
      </trkpt>
      <trkpt lat="46.10201" lon="6.45458">
        <ele>1596.41</ele>
        <time>2017-05-09T16:27:46Z</time>
      </trkpt>
      <trkpt lat="46.10198" lon="6.45458">
        <ele>1594.96</ele>
        <time>2017-05-09T16:27:47Z</time>
      </trkpt>
      <trkpt lat="46.10196" lon="6.45459">
        <ele>1594.48</ele>
        <time>2017-05-09T16:27:48Z</time>
      </trkpt>
      <trkpt lat="46.10194" lon="6.45458">
        <ele>1594</ele>
        <time>2017-05-09T16:27:49Z</time>
      </trkpt>
      <trkpt lat="46.10191" lon="6.45457">
        <ele>1592.56</ele>
        <time>2017-05-09T16:27:50Z</time>
      </trkpt>
      <trkpt lat="46.10189" lon="6.45457">
        <ele>1591.6</ele>
        <time>2017-05-09T16:27:51Z</time>
      </trkpt>
      <trkpt lat="46.10187" lon="6.45457">
        <ele>1591.12</ele>
        <time>2017-05-09T16:27:52Z</time>
      </trkpt>
      <trkpt lat="46.10186" lon="6.45458">
        <ele>1590.64</ele>
        <time>2017-05-09T16:27:53Z</time>
      </trkpt>
      <trkpt lat="46.10184" lon="6.45457">
        <ele>1590.16</ele>
        <time>2017-05-09T16:27:54Z</time>
      </trkpt>
      <trkpt lat="46.10182" lon="6.45458">
        <ele>1589.2</ele>
        <time>2017-05-09T16:27:55Z</time>
      </trkpt>
      <trkpt lat="46.1018" lon="6.45459">
        <ele>1588.72</ele>
        <time>2017-05-09T16:27:56Z</time>
      </trkpt>
      <trkpt lat="46.10178" lon="6.4546">
        <ele>1587.27</ele>
        <time>2017-05-09T16:27:57Z</time>
      </trkpt>
      <trkpt lat="46.10176" lon="6.45461">
        <ele>1586.31</ele>
        <time>2017-05-09T16:27:58Z</time>
      </trkpt>
      <trkpt lat="46.10174" lon="6.45461">
        <ele>1585.83</ele>
        <time>2017-05-09T16:27:59Z</time>
      </trkpt>
      <trkpt lat="46.10172" lon="6.45462">
        <ele>1584.87</ele>
        <time>2017-05-09T16:28:00Z</time>
      </trkpt>
      <trkpt lat="46.10169" lon="6.45463">
        <ele>1584.39</ele>
        <time>2017-05-09T16:28:01Z</time>
      </trkpt>
      <trkpt lat="46.10167" lon="6.45464">
        <ele>1582.95</ele>
        <time>2017-05-09T16:28:02Z</time>
      </trkpt>
      <trkpt lat="46.10158" lon="6.45465">
        <ele>1579.58</ele>
        <time>2017-05-09T16:28:06Z</time>
      </trkpt>
      <trkpt lat="46.10152" lon="6.45465">
        <ele>1576.22</ele>
        <time>2017-05-09T16:28:09Z</time>
      </trkpt>
      <trkpt lat="46.10146" lon="6.45463">
        <ele>1573.33</ele>
        <time>2017-05-09T16:28:12Z</time>
      </trkpt>
      <trkpt lat="46.10143" lon="6.45463">
        <ele>1572.37</ele>
        <time>2017-05-09T16:28:13Z</time>
      </trkpt>
      <trkpt lat="46.10141" lon="6.45463">
        <ele>1570.93</ele>
        <time>2017-05-09T16:28:14Z</time>
      </trkpt>
      <trkpt lat="46.10139" lon="6.45464">
        <ele>1569.97</ele>
        <time>2017-05-09T16:28:15Z</time>
      </trkpt>
      <trkpt lat="46.10137" lon="6.45465">
        <ele>1569.01</ele>
        <time>2017-05-09T16:28:16Z</time>
      </trkpt>
      <trkpt lat="46.10135" lon="6.45466">
        <ele>1569.01</ele>
        <time>2017-05-09T16:28:17Z</time>
      </trkpt>
      <trkpt lat="46.10133" lon="6.45466">
        <ele>1568.05</ele>
        <time>2017-05-09T16:28:18Z</time>
      </trkpt>
      <trkpt lat="46.10131" lon="6.45467">
        <ele>1567.09</ele>
        <time>2017-05-09T16:28:19Z</time>
      </trkpt>
      <trkpt lat="46.1012" lon="6.45466">
        <ele>1563.24</ele>
        <time>2017-05-09T16:28:24Z</time>
      </trkpt>
      <trkpt lat="46.10109" lon="6.45462">
        <ele>1560.36</ele>
        <time>2017-05-09T16:28:29Z</time>
      </trkpt>
      <trkpt lat="46.10097" lon="6.45456">
        <ele>1556.99</ele>
        <time>2017-05-09T16:28:35Z</time>
      </trkpt>
      <trkpt lat="46.10087" lon="6.45452">
        <ele>1554.11</ele>
        <time>2017-05-09T16:28:41Z</time>
      </trkpt>
      <trkpt lat="46.10078" lon="6.4545">
        <ele>1551.22</ele>
        <time>2017-05-09T16:28:47Z</time>
      </trkpt>
      <trkpt lat="46.10077" lon="6.4545">
        <ele>1550.74</ele>
        <time>2017-05-09T16:28:48Z</time>
      </trkpt>
      <trkpt lat="46.10076" lon="6.45451">
        <ele>1550.74</ele>
        <time>2017-05-09T16:28:49Z</time>
      </trkpt>
      <trkpt lat="46.10073" lon="6.45458">
        <ele>1548.82</ele>
        <time>2017-05-09T16:28:54Z</time>
      </trkpt>
      <trkpt lat="46.10071" lon="6.45462">
        <ele>1547.86</ele>
        <time>2017-05-09T16:28:57Z</time>
      </trkpt>
      <trkpt lat="46.10071" lon="6.45464">
        <ele>1547.86</ele>
        <time>2017-05-09T16:28:58Z</time>
      </trkpt>
      <trkpt lat="46.10071" lon="6.45466">
        <ele>1547.38</ele>
        <time>2017-05-09T16:28:59Z</time>
      </trkpt>
      <trkpt lat="46.10071" lon="6.45468">
        <ele>1547.38</ele>
        <time>2017-05-09T16:29:00Z</time>
      </trkpt>
      <trkpt lat="46.10071" lon="6.45469">
        <ele>1546.9</ele>
        <time>2017-05-09T16:29:01Z</time>
      </trkpt>
      <trkpt lat="46.10069" lon="6.45471">
        <ele>1546.42</ele>
        <time>2017-05-09T16:29:12Z</time>
      </trkpt>
      <trkpt lat="46.10069" lon="6.4547">
        <ele>1546.9</ele>
        <time>2017-05-09T16:29:46Z</time>
      </trkpt>
      <trkpt lat="46.10069" lon="6.4547">
        <ele>1546.9</ele>
        <time>2017-05-09T16:29:52Z</time>
      </trkpt>
      <trkpt lat="46.10067" lon="6.45477">
        <ele>1546.42</ele>
        <time>2017-05-09T16:30:05Z</time>
      </trkpt>
      <trkpt lat="46.10064" lon="6.45497">
        <ele>1544.01</ele>
        <time>2017-05-09T16:30:12Z</time>
      </trkpt>
      <trkpt lat="46.10063" lon="6.45526">
        <ele>1542.57</ele>
        <time>2017-05-09T16:30:19Z</time>
      </trkpt>
      <trkpt lat="46.10063" lon="6.45539">
        <ele>1541.13</ele>
        <time>2017-05-09T16:30:22Z</time>
      </trkpt>
      <trkpt lat="46.10066" lon="6.45559">
        <ele>1540.65</ele>
        <time>2017-05-09T16:30:27Z</time>
      </trkpt>
      <trkpt lat="46.10068" lon="6.4557">
        <ele>1541.13</ele>
        <time>2017-05-09T16:30:30Z</time>
      </trkpt>
      <trkpt lat="46.1007" lon="6.45577">
        <ele>1541.61</ele>
        <time>2017-05-09T16:30:32Z</time>
      </trkpt>
      <trkpt lat="46.10071" lon="6.4558">
        <ele>1541.61</ele>
        <time>2017-05-09T16:30:33Z</time>
      </trkpt>
      <trkpt lat="46.10072" lon="6.45592">
        <ele>1542.57</ele>
        <time>2017-05-09T16:30:36Z</time>
      </trkpt>
      <trkpt lat="46.10071" lon="6.45604">
        <ele>1543.05</ele>
        <time>2017-05-09T16:30:39Z</time>
      </trkpt>
      <trkpt lat="46.1007" lon="6.45615">
        <ele>1544.01</ele>
        <time>2017-05-09T16:30:42Z</time>
      </trkpt>
      <trkpt lat="46.10068" lon="6.45625">
        <ele>1544.98</ele>
        <time>2017-05-09T16:30:45Z</time>
      </trkpt>
      <trkpt lat="46.10066" lon="6.45634">
        <ele>1545.94</ele>
        <time>2017-05-09T16:30:48Z</time>
      </trkpt>
      <trkpt lat="46.10064" lon="6.45642">
        <ele>1546.42</ele>
        <time>2017-05-09T16:30:51Z</time>
      </trkpt>
      <trkpt lat="46.10063" lon="6.45648">
        <ele>1546.9</ele>
        <time>2017-05-09T16:30:53Z</time>
      </trkpt>
      <trkpt lat="46.10062" lon="6.45652">
        <ele>1547.38</ele>
        <time>2017-05-09T16:30:54Z</time>
      </trkpt>
      <trkpt lat="46.10062" lon="6.45655">
        <ele>1547.38</ele>
        <time>2017-05-09T16:30:55Z</time>
      </trkpt>
      <trkpt lat="46.10063" lon="6.45658">
        <ele>1547.38</ele>
        <time>2017-05-09T16:30:56Z</time>
      </trkpt>
      <trkpt lat="46.10063" lon="6.45661">
        <ele>1547.86</ele>
        <time>2017-05-09T16:30:57Z</time>
      </trkpt>
      <trkpt lat="46.10063" lon="6.45663">
        <ele>1548.34</ele>
        <time>2017-05-09T16:30:58Z</time>
      </trkpt>
      <trkpt lat="46.10062" lon="6.45667">
        <ele>1548.34</ele>
        <time>2017-05-09T16:30:59Z</time>
      </trkpt>
      <trkpt lat="46.10061" lon="6.4567">
        <ele>1548.82</ele>
        <time>2017-05-09T16:31:00Z</time>
      </trkpt>
      <trkpt lat="46.1006" lon="6.45702">
        <ele>1547.86</ele>
        <time>2017-05-09T16:31:08Z</time>
      </trkpt>
      <trkpt lat="46.10062" lon="6.45733">
        <ele>1548.34</ele>
        <time>2017-05-09T16:31:16Z</time>
      </trkpt>
      <trkpt lat="46.10065" lon="6.45761">
        <ele>1548.82</ele>
        <time>2017-05-09T16:31:24Z</time>
      </trkpt>
      <trkpt lat="46.10065" lon="6.45765">
        <ele>1549.3</ele>
        <time>2017-05-09T16:31:25Z</time>
      </trkpt>
      <trkpt lat="46.10068" lon="6.45784">
        <ele>1550.74</ele>
        <time>2017-05-09T16:31:32Z</time>
      </trkpt>
      <trkpt lat="46.10068" lon="6.45787">
        <ele>1551.22</ele>
        <time>2017-05-09T16:31:33Z</time>
      </trkpt>
      <trkpt lat="46.10067" lon="6.45789">
        <ele>1551.71</ele>
        <time>2017-05-09T16:31:34Z</time>
      </trkpt>
      <trkpt lat="46.10067" lon="6.45791">
        <ele>1551.71</ele>
        <time>2017-05-09T16:31:35Z</time>
      </trkpt>
      <trkpt lat="46.10067" lon="6.45793">
        <ele>1552.19</ele>
        <time>2017-05-09T16:31:36Z</time>
      </trkpt>
      <trkpt lat="46.10068" lon="6.45808">
        <ele>1554.11</ele>
        <time>2017-05-09T16:31:42Z</time>
      </trkpt>
      <trkpt lat="46.10067" lon="6.4581">
        <ele>1554.59</ele>
        <time>2017-05-09T16:31:43Z</time>
      </trkpt>
      <trkpt lat="46.10066" lon="6.45811">
        <ele>1555.55</ele>
        <time>2017-05-09T16:31:44Z</time>
      </trkpt>
      <trkpt lat="46.10064" lon="6.45813">
        <ele>1555.55</ele>
        <time>2017-05-09T16:31:45Z</time>
      </trkpt>
      <trkpt lat="46.10062" lon="6.45815">
        <ele>1556.03</ele>
        <time>2017-05-09T16:31:46Z</time>
      </trkpt>
      <trkpt lat="46.1006" lon="6.45818">
        <ele>1556.03</ele>
        <time>2017-05-09T16:31:47Z</time>
      </trkpt>
      <trkpt lat="46.10058" lon="6.4582">
        <ele>1556.03</ele>
        <time>2017-05-09T16:31:48Z</time>
      </trkpt>
      <trkpt lat="46.10047" lon="6.45844">
        <ele>1558.43</ele>
        <time>2017-05-09T16:32:00Z</time>
      </trkpt>
      <trkpt lat="46.10043" lon="6.45863">
        <ele>1559.4</ele>
        <time>2017-05-09T16:32:07Z</time>
      </trkpt>
      <trkpt lat="46.10042" lon="6.45866">
        <ele>1558.92</ele>
        <time>2017-05-09T16:32:08Z</time>
      </trkpt>
      <trkpt lat="46.10042" lon="6.45869">
        <ele>1558.92</ele>
        <time>2017-05-09T16:32:09Z</time>
      </trkpt>
      <trkpt lat="46.10042" lon="6.45872">
        <ele>1558.92</ele>
        <time>2017-05-09T16:32:10Z</time>
      </trkpt>
      <trkpt lat="46.10042" lon="6.45874">
        <ele>1559.4</ele>
        <time>2017-05-09T16:32:11Z</time>
      </trkpt>
      <trkpt lat="46.10043" lon="6.45877">
        <ele>1559.4</ele>
        <time>2017-05-09T16:32:12Z</time>
      </trkpt>
      <trkpt lat="46.10043" lon="6.45879">
        <ele>1559.88</ele>
        <time>2017-05-09T16:32:13Z</time>
      </trkpt>
      <trkpt lat="46.10043" lon="6.45882">
        <ele>1559.88</ele>
        <time>2017-05-09T16:32:14Z</time>
      </trkpt>
      <trkpt lat="46.10043" lon="6.45885">
        <ele>1560.36</ele>
        <time>2017-05-09T16:32:15Z</time>
      </trkpt>
      <trkpt lat="46.10043" lon="6.4592">
        <ele>1560.36</ele>
        <time>2017-05-09T16:32:25Z</time>
      </trkpt>
      <trkpt lat="46.10047" lon="6.45954">
        <ele>1559.88</ele>
        <time>2017-05-09T16:32:34Z</time>
      </trkpt>
      <trkpt lat="46.10049" lon="6.45979">
        <ele>1560.84</ele>
        <time>2017-05-09T16:32:42Z</time>
      </trkpt>
      <trkpt lat="46.10049" lon="6.45982">
        <ele>1560.84</ele>
        <time>2017-05-09T16:32:43Z</time>
      </trkpt>
      <trkpt lat="46.10048" lon="6.45984">
        <ele>1561.32</ele>
        <time>2017-05-09T16:32:44Z</time>
      </trkpt>
      <trkpt lat="46.10048" lon="6.45986">
        <ele>1561.8</ele>
        <time>2017-05-09T16:32:45Z</time>
      </trkpt>
      <trkpt lat="46.10048" lon="6.45989">
        <ele>1561.8</ele>
        <time>2017-05-09T16:32:46Z</time>
      </trkpt>
      <trkpt lat="46.10047" lon="6.45991">
        <ele>1562.28</ele>
        <time>2017-05-09T16:32:47Z</time>
      </trkpt>
      <trkpt lat="46.10045" lon="6.45993">
        <ele>1562.28</ele>
        <time>2017-05-09T16:32:48Z</time>
      </trkpt>
      <trkpt lat="46.10044" lon="6.45995">
        <ele>1562.76</ele>
        <time>2017-05-09T16:32:49Z</time>
      </trkpt>
      <trkpt lat="46.10043" lon="6.45998">
        <ele>1562.76</ele>
        <time>2017-05-09T16:32:50Z</time>
      </trkpt>
      <trkpt lat="46.10041" lon="6.46">
        <ele>1562.76</ele>
        <time>2017-05-09T16:32:51Z</time>
      </trkpt>
      <trkpt lat="46.1004" lon="6.46002">
        <ele>1563.24</ele>
        <time>2017-05-09T16:32:52Z</time>
      </trkpt>
      <trkpt lat="46.10037" lon="6.46006">
        <ele>1563.72</ele>
        <time>2017-05-09T16:32:55Z</time>
      </trkpt>
      <trkpt lat="46.10036" lon="6.46007">
        <ele>1563.72</ele>
        <time>2017-05-09T16:32:56Z</time>
      </trkpt>
      <trkpt lat="46.10035" lon="6.46008">
        <ele>1563.72</ele>
        <time>2017-05-09T16:32:57Z</time>
      </trkpt>
      <trkpt lat="46.10034" lon="6.4601">
        <ele>1564.2</ele>
        <time>2017-05-09T16:32:58Z</time>
      </trkpt>
      <trkpt lat="46.10034" lon="6.46013">
        <ele>1564.2</ele>
        <time>2017-05-09T16:32:59Z</time>
      </trkpt>
      <trkpt lat="46.10033" lon="6.46015">
        <ele>1564.68</ele>
        <time>2017-05-09T16:33:00Z</time>
      </trkpt>
      <trkpt lat="46.10033" lon="6.46018">
        <ele>1565.16</ele>
        <time>2017-05-09T16:33:01Z</time>
      </trkpt>
      <trkpt lat="46.10031" lon="6.4602">
        <ele>1565.16</ele>
        <time>2017-05-09T16:33:02Z</time>
      </trkpt>
      <trkpt lat="46.10031" lon="6.46022">
        <ele>1565.16</ele>
        <time>2017-05-09T16:33:03Z</time>
      </trkpt>
      <trkpt lat="46.1003" lon="6.46026">
        <ele>1565.64</ele>
        <time>2017-05-09T16:33:04Z</time>
      </trkpt>
      <trkpt lat="46.10016" lon="6.4606">
        <ele>1568.53</ele>
        <time>2017-05-09T16:33:17Z</time>
      </trkpt>
      <trkpt lat="46.10012" lon="6.46087">
        <ele>1569.97</ele>
        <time>2017-05-09T16:33:26Z</time>
      </trkpt>
      <trkpt lat="46.10012" lon="6.4609">
        <ele>1569.97</ele>
        <time>2017-05-09T16:33:27Z</time>
      </trkpt>
      <trkpt lat="46.10012" lon="6.46092">
        <ele>1569.97</ele>
        <time>2017-05-09T16:33:28Z</time>
      </trkpt>
      <trkpt lat="46.10012" lon="6.46095">
        <ele>1570.45</ele>
        <time>2017-05-09T16:33:30Z</time>
      </trkpt>
      <trkpt lat="46.10013" lon="6.46097">
        <ele>1570.45</ele>
        <time>2017-05-09T16:33:31Z</time>
      </trkpt>
      <trkpt lat="46.10012" lon="6.46101">
        <ele>1570.45</ele>
        <time>2017-05-09T16:33:32Z</time>
      </trkpt>
      <trkpt lat="46.10012" lon="6.46106">
        <ele>1570.45</ele>
        <time>2017-05-09T16:33:33Z</time>
      </trkpt>
      <trkpt lat="46.10014" lon="6.46109">
        <ele>1570.45</ele>
        <time>2017-05-09T16:33:34Z</time>
      </trkpt>
      <trkpt lat="46.10014" lon="6.46113">
        <ele>1570.93</ele>
        <time>2017-05-09T16:33:35Z</time>
      </trkpt>
      <trkpt lat="46.10014" lon="6.46117">
        <ele>1570.93</ele>
        <time>2017-05-09T16:33:36Z</time>
      </trkpt>
      <trkpt lat="46.10015" lon="6.4615">
        <ele>1571.89</ele>
        <time>2017-05-09T16:33:46Z</time>
      </trkpt>
      <trkpt lat="46.10016" lon="6.46158">
        <ele>1572.37</ele>
        <time>2017-05-09T16:33:48Z</time>
      </trkpt>
      <trkpt lat="46.10017" lon="6.46162">
        <ele>1572.85</ele>
        <time>2017-05-09T16:33:49Z</time>
      </trkpt>
      <trkpt lat="46.10017" lon="6.46165">
        <ele>1572.85</ele>
        <time>2017-05-09T16:33:50Z</time>
      </trkpt>
      <trkpt lat="46.10022" lon="6.46191">
        <ele>1573.33</ele>
        <time>2017-05-09T16:33:58Z</time>
      </trkpt>
      <trkpt lat="46.10022" lon="6.46195">
        <ele>1573.82</ele>
        <time>2017-05-09T16:33:59Z</time>
      </trkpt>
      <trkpt lat="46.10023" lon="6.46198">
        <ele>1573.82</ele>
        <time>2017-05-09T16:34:00Z</time>
      </trkpt>
      <trkpt lat="46.10024" lon="6.462">
        <ele>1573.82</ele>
        <time>2017-05-09T16:34:01Z</time>
      </trkpt>
      <trkpt lat="46.10024" lon="6.46203">
        <ele>1574.3</ele>
        <time>2017-05-09T16:34:02Z</time>
      </trkpt>
      <trkpt lat="46.1003" lon="6.46226">
        <ele>1576.22</ele>
        <time>2017-05-09T16:34:11Z</time>
      </trkpt>
      <trkpt lat="46.1003" lon="6.46229">
        <ele>1576.22</ele>
        <time>2017-05-09T16:34:12Z</time>
      </trkpt>
      <trkpt lat="46.1003" lon="6.46233">
        <ele>1576.22</ele>
        <time>2017-05-09T16:34:13Z</time>
      </trkpt>
      <trkpt lat="46.10034" lon="6.46258">
        <ele>1577.66</ele>
        <time>2017-05-09T16:34:23Z</time>
      </trkpt>
      <trkpt lat="46.10036" lon="6.46262">
        <ele>1578.62</ele>
        <time>2017-05-09T16:34:25Z</time>
      </trkpt>
      <trkpt lat="46.10036" lon="6.46265">
        <ele>1578.62</ele>
        <time>2017-05-09T16:34:26Z</time>
      </trkpt>
      <trkpt lat="46.10036" lon="6.46268">
        <ele>1579.1</ele>
        <time>2017-05-09T16:34:27Z</time>
      </trkpt>
      <trkpt lat="46.10037" lon="6.46271">
        <ele>1579.1</ele>
        <time>2017-05-09T16:34:28Z</time>
      </trkpt>
      <trkpt lat="46.10037" lon="6.46276">
        <ele>1579.1</ele>
        <time>2017-05-09T16:34:30Z</time>
      </trkpt>
      <trkpt lat="46.10037" lon="6.46278">
        <ele>1579.58</ele>
        <time>2017-05-09T16:34:31Z</time>
      </trkpt>
      <trkpt lat="46.10036" lon="6.4628">
        <ele>1579.58</ele>
        <time>2017-05-09T16:34:32Z</time>
      </trkpt>
      <trkpt lat="46.10035" lon="6.46282">
        <ele>1579.58</ele>
        <time>2017-05-09T16:34:33Z</time>
      </trkpt>
      <trkpt lat="46.10034" lon="6.46284">
        <ele>1580.06</ele>
        <time>2017-05-09T16:34:34Z</time>
      </trkpt>
      <trkpt lat="46.10034" lon="6.46287">
        <ele>1580.06</ele>
        <time>2017-05-09T16:34:35Z</time>
      </trkpt>
      <trkpt lat="46.10035" lon="6.4629">
        <ele>1580.54</ele>
        <time>2017-05-09T16:34:36Z</time>
      </trkpt>
      <trkpt lat="46.10035" lon="6.46293">
        <ele>1580.54</ele>
        <time>2017-05-09T16:34:37Z</time>
      </trkpt>
      <trkpt lat="46.10036" lon="6.46295">
        <ele>1581.03</ele>
        <time>2017-05-09T16:34:38Z</time>
      </trkpt>
      <trkpt lat="46.10036" lon="6.46297">
        <ele>1581.51</ele>
        <time>2017-05-09T16:34:39Z</time>
      </trkpt>
      <trkpt lat="46.10036" lon="6.46299">
        <ele>1581.51</ele>
        <time>2017-05-09T16:34:40Z</time>
      </trkpt>
      <trkpt lat="46.10037" lon="6.46302">
        <ele>1581.99</ele>
        <time>2017-05-09T16:34:41Z</time>
      </trkpt>
      <trkpt lat="46.10036" lon="6.46307">
        <ele>1581.99</ele>
        <time>2017-05-09T16:34:43Z</time>
      </trkpt>
      <trkpt lat="46.10035" lon="6.46311">
        <ele>1581.99</ele>
        <time>2017-05-09T16:34:44Z</time>
      </trkpt>
      <trkpt lat="46.10035" lon="6.46314">
        <ele>1582.47</ele>
        <time>2017-05-09T16:34:45Z</time>
      </trkpt>
      <trkpt lat="46.10035" lon="6.46318">
        <ele>1582.47</ele>
        <time>2017-05-09T16:34:46Z</time>
      </trkpt>
      <trkpt lat="46.10035" lon="6.4632">
        <ele>1582.95</ele>
        <time>2017-05-09T16:34:47Z</time>
      </trkpt>
      <trkpt lat="46.10035" lon="6.46326">
        <ele>1583.43</ele>
        <time>2017-05-09T16:34:49Z</time>
      </trkpt>
      <trkpt lat="46.10037" lon="6.46335">
        <ele>1583.91</ele>
        <time>2017-05-09T16:34:52Z</time>
      </trkpt>
      <trkpt lat="46.10037" lon="6.46338">
        <ele>1584.39</ele>
        <time>2017-05-09T16:34:53Z</time>
      </trkpt>
      <trkpt lat="46.10038" lon="6.46341">
        <ele>1584.39</ele>
        <time>2017-05-09T16:34:54Z</time>
      </trkpt>
      <trkpt lat="46.10039" lon="6.46343">
        <ele>1584.87</ele>
        <time>2017-05-09T16:34:55Z</time>
      </trkpt>
      <trkpt lat="46.10039" lon="6.46346">
        <ele>1585.35</ele>
        <time>2017-05-09T16:34:56Z</time>
      </trkpt>
      <trkpt lat="46.10039" lon="6.46349">
        <ele>1585.35</ele>
        <time>2017-05-09T16:34:57Z</time>
      </trkpt>
      <trkpt lat="46.1004" lon="6.46381">
        <ele>1586.79</ele>
        <time>2017-05-09T16:35:07Z</time>
      </trkpt>
      <trkpt lat="46.10043" lon="6.46394">
        <ele>1588.24</ele>
        <time>2017-05-09T16:35:12Z</time>
      </trkpt>
      <trkpt lat="46.10044" lon="6.46397">
        <ele>1588.24</ele>
        <time>2017-05-09T16:35:13Z</time>
      </trkpt>
      <trkpt lat="46.10045" lon="6.464">
        <ele>1588.24</ele>
        <time>2017-05-09T16:35:14Z</time>
      </trkpt>
      <trkpt lat="46.10055" lon="6.46418">
        <ele>1589.68</ele>
        <time>2017-05-09T16:35:23Z</time>
      </trkpt>
      <trkpt lat="46.10056" lon="6.46418">
        <ele>1590.16</ele>
        <time>2017-05-09T16:35:24Z</time>
      </trkpt>
      <trkpt lat="46.10057" lon="6.4642">
        <ele>1590.64</ele>
        <time>2017-05-09T16:35:25Z</time>
      </trkpt>
      <trkpt lat="46.10059" lon="6.46421">
        <ele>1590.64</ele>
        <time>2017-05-09T16:35:26Z</time>
      </trkpt>
      <trkpt lat="46.1006" lon="6.46423">
        <ele>1591.12</ele>
        <time>2017-05-09T16:35:27Z</time>
      </trkpt>
      <trkpt lat="46.10063" lon="6.46427">
        <ele>1592.08</ele>
        <time>2017-05-09T16:35:30Z</time>
      </trkpt>
      <trkpt lat="46.10064" lon="6.46428">
        <ele>1592.56</ele>
        <time>2017-05-09T16:35:31Z</time>
      </trkpt>
      <trkpt lat="46.10064" lon="6.46429">
        <ele>1592.56</ele>
        <time>2017-05-09T16:35:32Z</time>
      </trkpt>
      <trkpt lat="46.10064" lon="6.46431">
        <ele>1592.56</ele>
        <time>2017-05-09T16:35:33Z</time>
      </trkpt>
      <trkpt lat="46.10061" lon="6.46433">
        <ele>1591.6</ele>
        <time>2017-05-09T16:35:40Z</time>
      </trkpt>
      <trkpt lat="46.10061" lon="6.46434">
        <ele>1591.6</ele>
        <time>2017-05-09T16:35:46Z</time>
      </trkpt>
      <trkpt lat="46.1006" lon="6.46435">
        <ele>1591.6</ele>
        <time>2017-05-09T16:35:51Z</time>
      </trkpt>
      <trkpt lat="46.1006" lon="6.46435">
        <ele>1591.6</ele>
        <time>2017-05-09T16:35:55Z</time>
      </trkpt>
      <trkpt lat="46.1006" lon="6.46435">
        <ele>1591.6</ele>
        <time>2017-05-09T16:36:00Z</time>
      </trkpt>
      <trkpt lat="46.10061" lon="6.46435">
        <ele>1591.6</ele>
        <time>2017-05-09T16:36:03Z</time>
      </trkpt>
      <trkpt lat="46.10062" lon="6.46437">
        <ele>1591.6</ele>
        <time>2017-05-09T16:36:07Z</time>
      </trkpt>
      <trkpt lat="46.10063" lon="6.46438">
        <ele>1591.6</ele>
        <time>2017-05-09T16:36:11Z</time>
      </trkpt>
      <trkpt lat="46.10064" lon="6.46439">
        <ele>1591.12</ele>
        <time>2017-05-09T16:36:17Z</time>
      </trkpt>
      <trkpt lat="46.10065" lon="6.4644">
        <ele>1591.6</ele>
        <time>2017-05-09T16:36:19Z</time>
      </trkpt>
      <trkpt lat="46.10066" lon="6.46441">
        <ele>1591.12</ele>
        <time>2017-05-09T16:36:20Z</time>
      </trkpt>
      <trkpt lat="46.10067" lon="6.46442">
        <ele>1591.12</ele>
        <time>2017-05-09T16:36:21Z</time>
      </trkpt>
      <trkpt lat="46.10068" lon="6.46444">
        <ele>1590.64</ele>
        <time>2017-05-09T16:36:22Z</time>
      </trkpt>
      <trkpt lat="46.10069" lon="6.46446">
        <ele>1590.64</ele>
        <time>2017-05-09T16:36:23Z</time>
      </trkpt>
      <trkpt lat="46.10069" lon="6.46449">
        <ele>1590.16</ele>
        <time>2017-05-09T16:36:24Z</time>
      </trkpt>
      <trkpt lat="46.10069" lon="6.46451">
        <ele>1589.2</ele>
        <time>2017-05-09T16:36:25Z</time>
      </trkpt>
      <trkpt lat="46.1007" lon="6.46453">
        <ele>1588.72</ele>
        <time>2017-05-09T16:36:26Z</time>
      </trkpt>
      <trkpt lat="46.10071" lon="6.46455">
        <ele>1588.24</ele>
        <time>2017-05-09T16:36:27Z</time>
      </trkpt>
      <trkpt lat="46.10072" lon="6.46456">
        <ele>1588.24</ele>
        <time>2017-05-09T16:36:28Z</time>
      </trkpt>
      <trkpt lat="46.10073" lon="6.46455">
        <ele>1587.75</ele>
        <time>2017-05-09T16:36:29Z</time>
      </trkpt>
      <trkpt lat="46.10074" lon="6.46454">
        <ele>1586.79</ele>
        <time>2017-05-09T16:36:30Z</time>
      </trkpt>
      <trkpt lat="46.10075" lon="6.46452">
        <ele>1586.79</ele>
        <time>2017-05-09T16:36:31Z</time>
      </trkpt>
      <trkpt lat="46.10083" lon="6.4644">
        <ele>1583.43</ele>
        <time>2017-05-09T16:36:36Z</time>
      </trkpt>
      <trkpt lat="46.10093" lon="6.4643">
        <ele>1580.06</ele>
        <time>2017-05-09T16:36:42Z</time>
      </trkpt>
      <trkpt lat="46.10102" lon="6.4642">
        <ele>1576.7</ele>
        <time>2017-05-09T16:36:47Z</time>
      </trkpt>
      <trkpt lat="46.10112" lon="6.46411">
        <ele>1573.82</ele>
        <time>2017-05-09T16:36:52Z</time>
      </trkpt>
      <trkpt lat="46.10122" lon="6.46402">
        <ele>1570.93</ele>
        <time>2017-05-09T16:36:58Z</time>
      </trkpt>
      <trkpt lat="46.1013" lon="6.46398">
        <ele>1568.05</ele>
        <time>2017-05-09T16:37:03Z</time>
      </trkpt>
      <trkpt lat="46.10134" lon="6.46394">
        <ele>1566.61</ele>
        <time>2017-05-09T16:37:05Z</time>
      </trkpt>
      <trkpt lat="46.10135" lon="6.46395">
        <ele>1566.12</ele>
        <time>2017-05-09T16:37:06Z</time>
      </trkpt>
      <trkpt lat="46.10135" lon="6.46397">
        <ele>1565.16</ele>
        <time>2017-05-09T16:37:07Z</time>
      </trkpt>
      <trkpt lat="46.10135" lon="6.464">
        <ele>1564.68</ele>
        <time>2017-05-09T16:37:08Z</time>
      </trkpt>
      <trkpt lat="46.10135" lon="6.46403">
        <ele>1564.2</ele>
        <time>2017-05-09T16:37:09Z</time>
      </trkpt>
      <trkpt lat="46.10136" lon="6.46406">
        <ele>1563.24</ele>
        <time>2017-05-09T16:37:10Z</time>
      </trkpt>
      <trkpt lat="46.10136" lon="6.46409">
        <ele>1562.76</ele>
        <time>2017-05-09T16:37:11Z</time>
      </trkpt>
      <trkpt lat="46.10136" lon="6.46413">
        <ele>1561.8</ele>
        <time>2017-05-09T16:37:12Z</time>
      </trkpt>
      <trkpt lat="46.10135" lon="6.46419">
        <ele>1561.32</ele>
        <time>2017-05-09T16:37:14Z</time>
      </trkpt>
      <trkpt lat="46.10134" lon="6.46431">
        <ele>1557.95</ele>
        <time>2017-05-09T16:37:18Z</time>
      </trkpt>
      <trkpt lat="46.10132" lon="6.46446">
        <ele>1554.59</ele>
        <time>2017-05-09T16:37:23Z</time>
      </trkpt>
      <trkpt lat="46.10132" lon="6.46462">
        <ele>1551.22</ele>
        <time>2017-05-09T16:37:29Z</time>
      </trkpt>
      <trkpt lat="46.10133" lon="6.46472">
        <ele>1549.78</ele>
        <time>2017-05-09T16:37:32Z</time>
      </trkpt>
      <trkpt lat="46.10134" lon="6.46485">
        <ele>1546.42</ele>
        <time>2017-05-09T16:37:37Z</time>
      </trkpt>
      <trkpt lat="46.10134" lon="6.46487">
        <ele>1545.94</ele>
        <time>2017-05-09T16:37:38Z</time>
      </trkpt>
      <trkpt lat="46.10136" lon="6.46491">
        <ele>1545.46</ele>
        <time>2017-05-09T16:37:40Z</time>
      </trkpt>
      <trkpt lat="46.10146" lon="6.46504">
        <ele>1541.61</ele>
        <time>2017-05-09T16:37:47Z</time>
      </trkpt>
      <trkpt lat="46.1015" lon="6.46513">
        <ele>1539.69</ele>
        <time>2017-05-09T16:37:50Z</time>
      </trkpt>
      <trkpt lat="46.10152" lon="6.46515">
        <ele>1539.21</ele>
        <time>2017-05-09T16:37:51Z</time>
      </trkpt>
      <trkpt lat="46.10154" lon="6.46516">
        <ele>1538.25</ele>
        <time>2017-05-09T16:37:52Z</time>
      </trkpt>
      <trkpt lat="46.10161" lon="6.46519">
        <ele>1536.32</ele>
        <time>2017-05-09T16:37:55Z</time>
      </trkpt>
      <trkpt lat="46.10175" lon="6.46516">
        <ele>1533.44</ele>
        <time>2017-05-09T16:38:01Z</time>
      </trkpt>
      <trkpt lat="46.10179" lon="6.46515">
        <ele>1532.48</ele>
        <time>2017-05-09T16:38:03Z</time>
      </trkpt>
      <trkpt lat="46.1018" lon="6.46513">
        <ele>1532</ele>
        <time>2017-05-09T16:38:04Z</time>
      </trkpt>
      <trkpt lat="46.10182" lon="6.46512">
        <ele>1531.04</ele>
        <time>2017-05-09T16:38:05Z</time>
      </trkpt>
      <trkpt lat="46.10183" lon="6.46511">
        <ele>1530.56</ele>
        <time>2017-05-09T16:38:06Z</time>
      </trkpt>
      <trkpt lat="46.10185" lon="6.46509">
        <ele>1530.08</ele>
        <time>2017-05-09T16:38:07Z</time>
      </trkpt>
      <trkpt lat="46.10187" lon="6.46508">
        <ele>1529.59</ele>
        <time>2017-05-09T16:38:08Z</time>
      </trkpt>
      <trkpt lat="46.10188" lon="6.46507">
        <ele>1528.63</ele>
        <time>2017-05-09T16:38:09Z</time>
      </trkpt>
      <trkpt lat="46.1019" lon="6.46505">
        <ele>1527.67</ele>
        <time>2017-05-09T16:38:10Z</time>
      </trkpt>
      <trkpt lat="46.10191" lon="6.46502">
        <ele>1526.23</ele>
        <time>2017-05-09T16:38:11Z</time>
      </trkpt>
      <trkpt lat="46.10197" lon="6.46492">
        <ele>1523.35</ele>
        <time>2017-05-09T16:38:15Z</time>
      </trkpt>
      <trkpt lat="46.10208" lon="6.46485">
        <ele>1519.98</ele>
        <time>2017-05-09T16:38:21Z</time>
      </trkpt>
      <trkpt lat="46.10215" lon="6.46487">
        <ele>1516.62</ele>
        <time>2017-05-09T16:38:25Z</time>
      </trkpt>
      <trkpt lat="46.10223" lon="6.4649">
        <ele>1513.73</ele>
        <time>2017-05-09T16:38:30Z</time>
      </trkpt>
      <trkpt lat="46.10227" lon="6.46494">
        <ele>1512.77</ele>
        <time>2017-05-09T16:38:34Z</time>
      </trkpt>
      <trkpt lat="46.10228" lon="6.46495">
        <ele>1512.29</ele>
        <time>2017-05-09T16:38:35Z</time>
      </trkpt>
      <trkpt lat="46.1023" lon="6.46494">
        <ele>1511.81</ele>
        <time>2017-05-09T16:38:36Z</time>
      </trkpt>
      <trkpt lat="46.10232" lon="6.46494">
        <ele>1511.81</ele>
        <time>2017-05-09T16:38:37Z</time>
      </trkpt>
      <trkpt lat="46.10234" lon="6.46495">
        <ele>1510.85</ele>
        <time>2017-05-09T16:38:38Z</time>
      </trkpt>
      <trkpt lat="46.10235" lon="6.46497">
        <ele>1510.37</ele>
        <time>2017-05-09T16:38:39Z</time>
      </trkpt>
      <trkpt lat="46.10236" lon="6.46499">
        <ele>1510.37</ele>
        <time>2017-05-09T16:38:40Z</time>
      </trkpt>
      <trkpt lat="46.10244" lon="6.46503">
        <ele>1507</ele>
        <time>2017-05-09T16:38:46Z</time>
      </trkpt>
      <trkpt lat="46.10245" lon="6.46503">
        <ele>1506.52</ele>
        <time>2017-05-09T16:38:59Z</time>
      </trkpt>
      <trkpt lat="46.10245" lon="6.46503">
        <ele>1506.52</ele>
        <time>2017-05-09T16:39:09Z</time>
      </trkpt>
      <trkpt lat="46.10248" lon="6.46506">
        <ele>1506.04</ele>
        <time>2017-05-09T16:39:17Z</time>
      </trkpt>
      <trkpt lat="46.10255" lon="6.46512">
        <ele>1505.08</ele>
        <time>2017-05-09T16:39:22Z</time>
      </trkpt>
      <trkpt lat="46.10257" lon="6.46514">
        <ele>1504.6</ele>
        <time>2017-05-09T16:39:23Z</time>
      </trkpt>
      <trkpt lat="46.10261" lon="6.46524">
        <ele>1502.2</ele>
        <time>2017-05-09T16:39:27Z</time>
      </trkpt>
      <trkpt lat="46.10261" lon="6.46532">
        <ele>1500.76</ele>
        <time>2017-05-09T16:39:30Z</time>
      </trkpt>
      <trkpt lat="46.10258" lon="6.46541">
        <ele>1499.31</ele>
        <time>2017-05-09T16:39:33Z</time>
      </trkpt>
      <trkpt lat="46.10254" lon="6.46554">
        <ele>1495.47</ele>
        <time>2017-05-09T16:39:38Z</time>
      </trkpt>
      <trkpt lat="46.10252" lon="6.46562">
        <ele>1493.55</ele>
        <time>2017-05-09T16:39:41Z</time>
      </trkpt>
      <trkpt lat="46.10253" lon="6.46563">
        <ele>1492.58</ele>
        <time>2017-05-09T16:39:42Z</time>
      </trkpt>
      <trkpt lat="46.10254" lon="6.46564">
        <ele>1492.1</ele>
        <time>2017-05-09T16:39:43Z</time>
      </trkpt>
      <trkpt lat="46.10256" lon="6.46564">
        <ele>1491.14</ele>
        <time>2017-05-09T16:39:44Z</time>
      </trkpt>
      <trkpt lat="46.10258" lon="6.46563">
        <ele>1490.66</ele>
        <time>2017-05-09T16:39:45Z</time>
      </trkpt>
      <trkpt lat="46.10259" lon="6.46562">
        <ele>1490.18</ele>
        <time>2017-05-09T16:39:46Z</time>
      </trkpt>
      <trkpt lat="46.1026" lon="6.46562">
        <ele>1489.22</ele>
        <time>2017-05-09T16:39:47Z</time>
      </trkpt>
      <trkpt lat="46.10262" lon="6.46563">
        <ele>1488.74</ele>
        <time>2017-05-09T16:39:48Z</time>
      </trkpt>
      <trkpt lat="46.10262" lon="6.46565">
        <ele>1488.26</ele>
        <time>2017-05-09T16:39:49Z</time>
      </trkpt>
      <trkpt lat="46.10261" lon="6.46567">
        <ele>1488.26</ele>
        <time>2017-05-09T16:39:50Z</time>
      </trkpt>
      <trkpt lat="46.1026" lon="6.4657">
        <ele>1487.78</ele>
        <time>2017-05-09T16:39:51Z</time>
      </trkpt>
      <trkpt lat="46.10259" lon="6.46572">
        <ele>1486.82</ele>
        <time>2017-05-09T16:39:52Z</time>
      </trkpt>
      <trkpt lat="46.10257" lon="6.46574">
        <ele>1485.85</ele>
        <time>2017-05-09T16:39:53Z</time>
      </trkpt>
      <trkpt lat="46.10255" lon="6.46575">
        <ele>1485.37</ele>
        <time>2017-05-09T16:39:54Z</time>
      </trkpt>
      <trkpt lat="46.10249" lon="6.46578">
        <ele>1484.41</ele>
        <time>2017-05-09T16:39:58Z</time>
      </trkpt>
      <trkpt lat="46.10241" lon="6.4658">
        <ele>1483.45</ele>
        <time>2017-05-09T16:40:03Z</time>
      </trkpt>
      <trkpt lat="46.10239" lon="6.46582">
        <ele>1482.01</ele>
        <time>2017-05-09T16:40:05Z</time>
      </trkpt>
      <trkpt lat="46.10238" lon="6.46583">
        <ele>1481.05</ele>
        <time>2017-05-09T16:40:06Z</time>
      </trkpt>
      <trkpt lat="46.10237" lon="6.46584">
        <ele>1480.57</ele>
        <time>2017-05-09T16:40:07Z</time>
      </trkpt>
      <trkpt lat="46.10236" lon="6.46585">
        <ele>1479.61</ele>
        <time>2017-05-09T16:40:08Z</time>
      </trkpt>
      <trkpt lat="46.10235" lon="6.46585">
        <ele>1479.13</ele>
        <time>2017-05-09T16:40:09Z</time>
      </trkpt>
      <trkpt lat="46.10235" lon="6.46586">
        <ele>1478.65</ele>
        <time>2017-05-09T16:40:10Z</time>
      </trkpt>
      <trkpt lat="46.10234" lon="6.46588">
        <ele>1478.16</ele>
        <time>2017-05-09T16:40:11Z</time>
      </trkpt>
      <trkpt lat="46.10234" lon="6.4659">
        <ele>1478.16</ele>
        <time>2017-05-09T16:40:12Z</time>
      </trkpt>
      <trkpt lat="46.10233" lon="6.46592">
        <ele>1477.68</ele>
        <time>2017-05-09T16:40:13Z</time>
      </trkpt>
      <trkpt lat="46.10232" lon="6.46594">
        <ele>1477.2</ele>
        <time>2017-05-09T16:40:14Z</time>
      </trkpt>
      <trkpt lat="46.10231" lon="6.46596">
        <ele>1476.72</ele>
        <time>2017-05-09T16:40:15Z</time>
      </trkpt>
      <trkpt lat="46.1023" lon="6.46596">
        <ele>1475.76</ele>
        <time>2017-05-09T16:40:16Z</time>
      </trkpt>
      <trkpt lat="46.10229" lon="6.46596">
        <ele>1475.28</ele>
        <time>2017-05-09T16:40:17Z</time>
      </trkpt>
      <trkpt lat="46.10228" lon="6.46597">
        <ele>1474.8</ele>
        <time>2017-05-09T16:40:18Z</time>
      </trkpt>
      <trkpt lat="46.10227" lon="6.46599">
        <ele>1474.32</ele>
        <time>2017-05-09T16:40:19Z</time>
      </trkpt>
      <trkpt lat="46.10227" lon="6.466">
        <ele>1473.84</ele>
        <time>2017-05-09T16:40:20Z</time>
      </trkpt>
      <trkpt lat="46.10226" lon="6.46601">
        <ele>1473.84</ele>
        <time>2017-05-09T16:40:21Z</time>
      </trkpt>
      <trkpt lat="46.10225" lon="6.46603">
        <ele>1473.36</ele>
        <time>2017-05-09T16:40:22Z</time>
      </trkpt>
      <trkpt lat="46.10225" lon="6.46606">
        <ele>1472.88</ele>
        <time>2017-05-09T16:40:23Z</time>
      </trkpt>
      <trkpt lat="46.10224" lon="6.46608">
        <ele>1472.4</ele>
        <time>2017-05-09T16:40:24Z</time>
      </trkpt>
      <trkpt lat="46.10222" lon="6.4661">
        <ele>1471.92</ele>
        <time>2017-05-09T16:40:25Z</time>
      </trkpt>
      <trkpt lat="46.10221" lon="6.46611">
        <ele>1471.44</ele>
        <time>2017-05-09T16:40:26Z</time>
      </trkpt>
      <trkpt lat="46.10212" lon="6.46622">
        <ele>1471.92</ele>
        <time>2017-05-09T16:40:31Z</time>
      </trkpt>
      <trkpt lat="46.10204" lon="6.46636">
        <ele>1470.47</ele>
        <time>2017-05-09T16:40:37Z</time>
      </trkpt>
      <trkpt lat="46.10194" lon="6.46654">
        <ele>1469.51</ele>
        <time>2017-05-09T16:40:44Z</time>
      </trkpt>
      <trkpt lat="46.10181" lon="6.4668">
        <ele>1468.07</ele>
        <time>2017-05-09T16:40:52Z</time>
      </trkpt>
      <trkpt lat="46.1017" lon="6.46704">
        <ele>1467.11</ele>
        <time>2017-05-09T16:40:59Z</time>
      </trkpt>
      <trkpt lat="46.10154" lon="6.46723">
        <ele>1466.63</ele>
        <time>2017-05-09T16:41:06Z</time>
      </trkpt>
      <trkpt lat="46.10139" lon="6.46745">
        <ele>1466.15</ele>
        <time>2017-05-09T16:41:13Z</time>
      </trkpt>
      <trkpt lat="46.10124" lon="6.46766">
        <ele>1466.63</ele>
        <time>2017-05-09T16:41:21Z</time>
      </trkpt>
      <trkpt lat="46.1011" lon="6.46787">
        <ele>1464.23</ele>
        <time>2017-05-09T16:41:28Z</time>
      </trkpt>
      <trkpt lat="46.10096" lon="6.46808">
        <ele>1463.74</ele>
        <time>2017-05-09T16:41:36Z</time>
      </trkpt>
      <trkpt lat="46.10087" lon="6.46818">
        <ele>1463.26</ele>
        <time>2017-05-09T16:41:40Z</time>
      </trkpt>
      <trkpt lat="46.10073" lon="6.46837">
        <ele>1462.78</ele>
        <time>2017-05-09T16:41:47Z</time>
      </trkpt>
      <trkpt lat="46.1006" lon="6.46856">
        <ele>1462.3</ele>
        <time>2017-05-09T16:41:55Z</time>
      </trkpt>
      <trkpt lat="46.1006" lon="6.4686">
        <ele>1461.82</ele>
        <time>2017-05-09T16:41:56Z</time>
      </trkpt>
      <trkpt lat="46.1006" lon="6.46864">
        <ele>1461.82</ele>
        <time>2017-05-09T16:41:57Z</time>
      </trkpt>
      <trkpt lat="46.1006" lon="6.46868">
        <ele>1461.82</ele>
        <time>2017-05-09T16:41:58Z</time>
      </trkpt>
      <trkpt lat="46.1006" lon="6.46871">
        <ele>1461.82</ele>
        <time>2017-05-09T16:41:59Z</time>
      </trkpt>
      <trkpt lat="46.1006" lon="6.46875">
        <ele>1461.82</ele>
        <time>2017-05-09T16:42:00Z</time>
      </trkpt>
      <trkpt lat="46.10059" lon="6.46878">
        <ele>1461.34</ele>
        <time>2017-05-09T16:42:01Z</time>
      </trkpt>
      <trkpt lat="46.10059" lon="6.46882">
        <ele>1460.86</ele>
        <time>2017-05-09T16:42:02Z</time>
      </trkpt>
      <trkpt lat="46.10058" lon="6.46885">
        <ele>1460.38</ele>
        <time>2017-05-09T16:42:03Z</time>
      </trkpt>
      <trkpt lat="46.10058" lon="6.46889">
        <ele>1459.9</ele>
        <time>2017-05-09T16:42:04Z</time>
      </trkpt>
      <trkpt lat="46.10057" lon="6.46909">
        <ele>1457.98</ele>
        <time>2017-05-09T16:42:10Z</time>
      </trkpt>
      <trkpt lat="46.10056" lon="6.46935">
        <ele>1454.61</ele>
        <time>2017-05-09T16:42:16Z</time>
      </trkpt>
      <trkpt lat="46.10054" lon="6.46965">
        <ele>1451.73</ele>
        <time>2017-05-09T16:42:24Z</time>
      </trkpt>
      <trkpt lat="46.10052" lon="6.46985">
        <ele>1448.36</ele>
        <time>2017-05-09T16:42:30Z</time>
      </trkpt>
      <trkpt lat="46.1005" lon="6.46996">
        <ele>1446.92</ele>
        <time>2017-05-09T16:42:33Z</time>
      </trkpt>
      <trkpt lat="46.10048" lon="6.47">
        <ele>1446.44</ele>
        <time>2017-05-09T16:42:34Z</time>
      </trkpt>
      <trkpt lat="46.10044" lon="6.47005">
        <ele>1445.48</ele>
        <time>2017-05-09T16:42:36Z</time>
      </trkpt>
      <trkpt lat="46.10033" lon="6.47018">
        <ele>1443.56</ele>
        <time>2017-05-09T16:42:42Z</time>
      </trkpt>
      <trkpt lat="46.10022" lon="6.47029">
        <ele>1441.63</ele>
        <time>2017-05-09T16:42:47Z</time>
      </trkpt>
      <trkpt lat="46.10022" lon="6.47033">
        <ele>1441.15</ele>
        <time>2017-05-09T16:42:48Z</time>
      </trkpt>
      <trkpt lat="46.10022" lon="6.47036">
        <ele>1440.67</ele>
        <time>2017-05-09T16:42:49Z</time>
      </trkpt>
      <trkpt lat="46.10023" lon="6.47041">
        <ele>1440.19</ele>
        <time>2017-05-09T16:42:50Z</time>
      </trkpt>
      <trkpt lat="46.10023" lon="6.47045">
        <ele>1439.71</ele>
        <time>2017-05-09T16:42:51Z</time>
      </trkpt>
      <trkpt lat="46.10024" lon="6.47048">
        <ele>1439.71</ele>
        <time>2017-05-09T16:42:52Z</time>
      </trkpt>
      <trkpt lat="46.10025" lon="6.47052">
        <ele>1439.23</ele>
        <time>2017-05-09T16:42:53Z</time>
      </trkpt>
      <trkpt lat="46.10025" lon="6.47056">
        <ele>1438.27</ele>
        <time>2017-05-09T16:42:54Z</time>
      </trkpt>
      <trkpt lat="46.10017" lon="6.47086">
        <ele>1435.87</ele>
        <time>2017-05-09T16:43:02Z</time>
      </trkpt>
      <trkpt lat="46.10014" lon="6.47101">
        <ele>1435.39</ele>
        <time>2017-05-09T16:43:07Z</time>
      </trkpt>
      <trkpt lat="46.10011" lon="6.4713">
        <ele>1434.91</ele>
        <time>2017-05-09T16:43:16Z</time>
      </trkpt>
      <trkpt lat="46.10002" lon="6.4716">
        <ele>1433.94</ele>
        <time>2017-05-09T16:43:24Z</time>
      </trkpt>
      <trkpt lat="46.10004" lon="6.47191">
        <ele>1431.06</ele>
        <time>2017-05-09T16:43:33Z</time>
      </trkpt>
      <trkpt lat="46.10005" lon="6.47193">
        <ele>1430.58</ele>
        <time>2017-05-09T16:43:34Z</time>
      </trkpt>
      <trkpt lat="46.10006" lon="6.47197">
        <ele>1430.58</ele>
        <time>2017-05-09T16:43:35Z</time>
      </trkpt>
      <trkpt lat="46.10008" lon="6.47211">
        <ele>1430.1</ele>
        <time>2017-05-09T16:43:39Z</time>
      </trkpt>
      <trkpt lat="46.10009" lon="6.47214">
        <ele>1429.14</ele>
        <time>2017-05-09T16:43:40Z</time>
      </trkpt>
      <trkpt lat="46.10009" lon="6.47225">
        <ele>1426.73</ele>
        <time>2017-05-09T16:43:43Z</time>
      </trkpt>
      <trkpt lat="46.10009" lon="6.47229">
        <ele>1426.25</ele>
        <time>2017-05-09T16:43:44Z</time>
      </trkpt>
      <trkpt lat="46.10007" lon="6.47259">
        <ele>1423.37</ele>
        <time>2017-05-09T16:43:53Z</time>
      </trkpt>
      <trkpt lat="46.10005" lon="6.4727">
        <ele>1422.41</ele>
        <time>2017-05-09T16:43:56Z</time>
      </trkpt>
      <trkpt lat="46.10004" lon="6.47274">
        <ele>1422.41</ele>
        <time>2017-05-09T16:43:57Z</time>
      </trkpt>
      <trkpt lat="46.10004" lon="6.47277">
        <ele>1421.93</ele>
        <time>2017-05-09T16:43:58Z</time>
      </trkpt>
      <trkpt lat="46.09996" lon="6.47297">
        <ele>1419.52</ele>
        <time>2017-05-09T16:44:04Z</time>
      </trkpt>
      <trkpt lat="46.09993" lon="6.4733">
        <ele>1417.12</ele>
        <time>2017-05-09T16:44:12Z</time>
      </trkpt>
      <trkpt lat="46.09989" lon="6.47361">
        <ele>1416.64</ele>
        <time>2017-05-09T16:44:19Z</time>
      </trkpt>
      <trkpt lat="46.09989" lon="6.47393">
        <ele>1414.24</ele>
        <time>2017-05-09T16:44:27Z</time>
      </trkpt>
      <trkpt lat="46.10001" lon="6.47412">
        <ele>1411.35</ele>
        <time>2017-05-09T16:44:36Z</time>
      </trkpt>
      <trkpt lat="46.10004" lon="6.47413">
        <ele>1410.39</ele>
        <time>2017-05-09T16:44:49Z</time>
      </trkpt>
      <trkpt lat="46.10004" lon="6.47413">
        <ele>1410.39</ele>
        <time>2017-05-09T16:44:57Z</time>
      </trkpt>
      <trkpt lat="46.10005" lon="6.47414">
        <ele>1410.39</ele>
        <time>2017-05-09T16:45:02Z</time>
      </trkpt>
      <trkpt lat="46.1001" lon="6.47414">
        <ele>1409.43</ele>
        <time>2017-05-09T16:45:07Z</time>
      </trkpt>
      <trkpt lat="46.10013" lon="6.47412">
        <ele>1409.43</ele>
        <time>2017-05-09T16:45:08Z</time>
      </trkpt>
      <trkpt lat="46.10016" lon="6.4741">
        <ele>1408.47</ele>
        <time>2017-05-09T16:45:09Z</time>
      </trkpt>
      <trkpt lat="46.10019" lon="6.47407">
        <ele>1407.99</ele>
        <time>2017-05-09T16:45:10Z</time>
      </trkpt>
      <trkpt lat="46.10021" lon="6.47404">
        <ele>1407.51</ele>
        <time>2017-05-09T16:45:11Z</time>
      </trkpt>
      <trkpt lat="46.10024" lon="6.474">
        <ele>1407.03</ele>
        <time>2017-05-09T16:45:12Z</time>
      </trkpt>
      <trkpt lat="46.10026" lon="6.47395">
        <ele>1407.03</ele>
        <time>2017-05-09T16:45:13Z</time>
      </trkpt>
      <trkpt lat="46.10029" lon="6.47391">
        <ele>1406.55</ele>
        <time>2017-05-09T16:45:14Z</time>
      </trkpt>
      <trkpt lat="46.10031" lon="6.47388">
        <ele>1406.55</ele>
        <time>2017-05-09T16:45:15Z</time>
      </trkpt>
      <trkpt lat="46.1004" lon="6.47368">
        <ele>1404.62</ele>
        <time>2017-05-09T16:45:20Z</time>
      </trkpt>
      <trkpt lat="46.10053" lon="6.47343">
        <ele>1402.7</ele>
        <time>2017-05-09T16:45:27Z</time>
      </trkpt>
      <trkpt lat="46.10059" lon="6.47333">
        <ele>1401.26</ele>
        <time>2017-05-09T16:45:30Z</time>
      </trkpt>
      <trkpt lat="46.10062" lon="6.47323">
        <ele>1398.37</ele>
        <time>2017-05-09T16:45:33Z</time>
      </trkpt>
      <trkpt lat="46.10071" lon="6.47312">
        <ele>1395.01</ele>
        <time>2017-05-09T16:45:38Z</time>
      </trkpt>
      <trkpt lat="46.10088" lon="6.47295">
        <ele>1391.65</ele>
        <time>2017-05-09T16:45:46Z</time>
      </trkpt>
      <trkpt lat="46.10103" lon="6.47287">
        <ele>1388.28</ele>
        <time>2017-05-09T16:45:52Z</time>
      </trkpt>
      <trkpt lat="46.10115" lon="6.47271">
        <ele>1384.92</ele>
        <time>2017-05-09T16:45:58Z</time>
      </trkpt>
      <trkpt lat="46.10126" lon="6.47259">
        <ele>1382.03</ele>
        <time>2017-05-09T16:46:04Z</time>
      </trkpt>
      <trkpt lat="46.10132" lon="6.4724">
        <ele>1378.67</ele>
        <time>2017-05-09T16:46:12Z</time>
      </trkpt>
      <trkpt lat="46.10133" lon="6.47213">
        <ele>1375.78</ele>
        <time>2017-05-09T16:46:18Z</time>
      </trkpt>
      <trkpt lat="46.10135" lon="6.47208">
        <ele>1375.3</ele>
        <time>2017-05-09T16:46:19Z</time>
      </trkpt>
      <trkpt lat="46.10141" lon="6.4719">
        <ele>1375.3</ele>
        <time>2017-05-09T16:46:23Z</time>
      </trkpt>
      <trkpt lat="46.10145" lon="6.47178">
        <ele>1375.78</ele>
        <time>2017-05-09T16:46:27Z</time>
      </trkpt>
      <trkpt lat="46.10151" lon="6.47166">
        <ele>1374.82</ele>
        <time>2017-05-09T16:46:31Z</time>
      </trkpt>
      <trkpt lat="46.10162" lon="6.47153">
        <ele>1371.46</ele>
        <time>2017-05-09T16:46:37Z</time>
      </trkpt>
      <trkpt lat="46.10176" lon="6.47131">
        <ele>1368.09</ele>
        <time>2017-05-09T16:46:44Z</time>
      </trkpt>
      <trkpt lat="46.10191" lon="6.47112">
        <ele>1364.25</ele>
        <time>2017-05-09T16:46:51Z</time>
      </trkpt>
      <trkpt lat="46.1021" lon="6.47097">
        <ele>1360.88</ele>
        <time>2017-05-09T16:46:59Z</time>
      </trkpt>
      <trkpt lat="46.10231" lon="6.47086">
        <ele>1358</ele>
        <time>2017-05-09T16:47:07Z</time>
      </trkpt>
      <trkpt lat="46.10254" lon="6.47079">
        <ele>1354.15</ele>
        <time>2017-05-09T16:47:15Z</time>
      </trkpt>
      <trkpt lat="46.10267" lon="6.47072">
        <ele>1351.75</ele>
        <time>2017-05-09T16:47:20Z</time>
      </trkpt>
      <trkpt lat="46.10275" lon="6.47067">
        <ele>1350.31</ele>
        <time>2017-05-09T16:47:23Z</time>
      </trkpt>
      <trkpt lat="46.10291" lon="6.47059">
        <ele>1348.39</ele>
        <time>2017-05-09T16:47:28Z</time>
      </trkpt>
      <trkpt lat="46.10299" lon="6.47054">
        <ele>1346.94</ele>
        <time>2017-05-09T16:47:32Z</time>
      </trkpt>
      <trkpt lat="46.10314" lon="6.47051">
        <ele>1344.06</ele>
        <time>2017-05-09T16:47:40Z</time>
      </trkpt>
      <trkpt lat="46.10322" lon="6.47059">
        <ele>1341.66</ele>
        <time>2017-05-09T16:47:45Z</time>
      </trkpt>
      <trkpt lat="46.10326" lon="6.47076">
        <ele>1338.77</ele>
        <time>2017-05-09T16:47:51Z</time>
      </trkpt>
      <trkpt lat="46.10326" lon="6.4708">
        <ele>1338.29</ele>
        <time>2017-05-09T16:47:52Z</time>
      </trkpt>
      <trkpt lat="46.10324" lon="6.47083">
        <ele>1338.29</ele>
        <time>2017-05-09T16:47:53Z</time>
      </trkpt>
      <trkpt lat="46.10322" lon="6.47085">
        <ele>1338.29</ele>
        <time>2017-05-09T16:47:54Z</time>
      </trkpt>
      <trkpt lat="46.1032" lon="6.47087">
        <ele>1337.81</ele>
        <time>2017-05-09T16:47:55Z</time>
      </trkpt>
      <trkpt lat="46.10317" lon="6.47088">
        <ele>1337.81</ele>
        <time>2017-05-09T16:47:56Z</time>
      </trkpt>
      <trkpt lat="46.10315" lon="6.47089">
        <ele>1337.81</ele>
        <time>2017-05-09T16:47:57Z</time>
      </trkpt>
      <trkpt lat="46.1031" lon="6.47091">
        <ele>1336.85</ele>
        <time>2017-05-09T16:47:59Z</time>
      </trkpt>
      <trkpt lat="46.10307" lon="6.47091">
        <ele>1336.85</ele>
        <time>2017-05-09T16:48:00Z</time>
      </trkpt>
      <trkpt lat="46.10304" lon="6.47092">
        <ele>1336.85</ele>
        <time>2017-05-09T16:48:01Z</time>
      </trkpt>
      <trkpt lat="46.10302" lon="6.47094">
        <ele>1336.85</ele>
        <time>2017-05-09T16:48:02Z</time>
      </trkpt>
      <trkpt lat="46.10299" lon="6.47095">
        <ele>1336.85</ele>
        <time>2017-05-09T16:48:03Z</time>
      </trkpt>
      <trkpt lat="46.10281" lon="6.4711">
        <ele>1336.85</ele>
        <time>2017-05-09T16:48:10Z</time>
      </trkpt>
      <trkpt lat="46.10273" lon="6.47118">
        <ele>1336.85</ele>
        <time>2017-05-09T16:48:18Z</time>
      </trkpt>
      <trkpt lat="46.10271" lon="6.47122">
        <ele>1336.85</ele>
        <time>2017-05-09T16:48:22Z</time>
      </trkpt>
      <trkpt lat="46.1027" lon="6.47122">
        <ele>1336.85</ele>
        <time>2017-05-09T16:48:27Z</time>
      </trkpt>
      <trkpt lat="46.10269" lon="6.47124">
        <ele>1337.33</ele>
        <time>2017-05-09T16:48:32Z</time>
      </trkpt>
      <trkpt lat="46.10269" lon="6.47125">
        <ele>1337.33</ele>
        <time>2017-05-09T16:48:33Z</time>
      </trkpt>
    </trkseg>
  </trk>
</gpx>